[[{"header":{"parameterUnit":"m.s-1","parameterCategory":1,"la1":30.6,"la2":29.2853,"lo1":-89.7004,"lo2":-87.6739,"dy":0.0162,"dx":0.0183,"nx":112,"ny":82,"refTime":"2024-03-13T18:00:00:Z","depth":0,"parameterNumber":2,"parameterNumberName":"U-component_of_WINDS"},"data":[0.0,0.0,0.0,0.0,0.0,0.0,0.0,0.0,0.0,0.0,0.0,0.0,0.0,0.0,0.0,0.0,0.0,0.0,0.0,0.0,0.0,0.0,0.0,0.0,0.0,0.0,0.0,0.0,0.0,0.0,0.0,0.0,0.0,0.0,0.0,0.0,0.0,0.0,0.0,0.0,0.0,0.0,0.0,0.0,0.0,0.0,0.0,0.0,0.0,0.0,0.0,0.0,0.0,0.0,0.0,0.0,0.0,0.0,0.0,0.0,0.0,0.0,0.0,0.0,0.0,0.0,0.0,0.0,0.0,0.0,0.0,0.0,0.0,0.0,0.0,0.0,0.0,0.0,0.0,0.0,0.0,0.0,0.0,0.0,0.0,0.0,0.0,0.0,0.0,0.0,0.0,5.4873,5.5569,5.6012,5.6012,5.6012,5.5337,5.3795,0.0,0.0,0.0,0.0,0.0,0.0,0.0,0.0,0.0,0.0,0.0,0.0,0.0,0.0,0.0,0.0,0.0,0.0,0.0,0.0,0.0,0.0,0.0,0.0,0.0,0.0,0.0,0.0,0.0,0.0,0.0,0.0,0.0,0.0,0.0,0.0,0.0,0.0,0.0,0.0,0.0,0.0,0.0,0.0,0.0,0.0,0.0,0.0,0.0,0.0,0.0,0.0,0.0,0.0,0.0,0.0,0.0,0.0,0.0,0.0,0.0,0.0,0.0,0.0,0.0,0.0,0.0,0.0,0.0,0.0,0.0,0.0,0.0,0.0,0.0,0.0,0.0,0.0,0.0,0.0,0.0,0.0,0.0,0.0,0.0,0.0,0.0,0.0,0.0,0.0,0.0,0.0,0.0,0.0,0.0,0.0,0.0,0.0,0.0,0.0,0.0,0.0,0.0,0.0,5.3293,5.5569,5.5935,5.6012,5.6012,5.6012,5.5608,5.4663,0.0,0.0,0.0,0.0,0.0,0.0,0.0,0.0,0.0,0.0,0.0,0.0,0.0,0.0,0.0,0.0,0.0,0.0,0.0,0.0,0.0,0.0,0.0,0.0,0.0,0.0,0.0,0.0,0.0,0.0,0.0,0.0,0.0,0.0,0.0,0.0,0.0,0.0,0.0,0.0,0.0,0.0,0.0,0.0,0.0,0.0,0.0,0.0,0.0,0.0,0.0,0.0,0.0,0.0,0.0,0.0,0.0,0.0,0.0,0.0,0.0,0.0,0.0,0.0,0.0,0.0,0.0,0.0,0.0,0.0,0.0,0.0,0.0,0.0,0.0,0.0,0.0,0.0,0.0,0.0,0.0,0.0,0.0,0.0,0.0,0.0,0.0,0.0,0.0,0.0,0.0,0.0,0.0,0.0,0.0,0.0,0.0,0.0,0.0,0.0,0.0,0.0,0.0,5.3121,5.4392,5.6476,5.6725,5.6919,5.7383,5.7422,5.6687,5.4912,5.4426,0.0,0.0,0.0,0.0,0.0,0.0,0.0,0.0,0.0,0.0,0.0,0.0,0.0,0.0,0.0,0.0,0.0,0.0,0.0,0.0,0.0,0.0,0.0,0.0,0.0,0.0,0.0,0.0,0.0,0.0,0.0,0.0,0.0,0.0,0.0,0.0,0.0,0.0,0.0,0.0,0.0,0.0,0.0,0.0,0.0,0.0,0.0,0.0,0.0,0.0,0.0,0.0,0.0,0.0,0.0,0.0,0.0,0.0,0.0,0.0,0.0,0.0,0.0,0.0,0.0,0.0,0.0,0.0,0.0,0.0,0.0,0.0,0.0,0.0,0.0,0.0,0.0,0.0,0.0,0.0,0.0,0.0,0.0,0.0,0.0,0.0,0.0,0.0,0.0,0.0,0.0,0.0,0.0,0.0,0.0,0.0,0.0,0.0,0.0,0.0,0.0,0.0,5.5316,5.6205,5.7461,5.7615,5.7886,5.8544,5.8583,5.7598,5.5243,5.4923,0.0,0.0,0.0,0.0,0.0,0.0,0.0,0.0,0.0,0.0,0.0,0.0,0.0,0.0,0.0,0.0,0.0,0.0,0.0,0.0,0.0,0.0,0.0,0.0,0.0,0.0,0.0,0.0,0.0,0.0,0.0,0.0,0.0,0.0,0.0,0.0,0.0,0.0,0.0,0.0,0.0,0.0,0.0,0.0,0.0,0.0,0.0,0.0,0.0,0.0,0.0,0.0,0.0,0.0,0.0,0.0,0.0,0.0,0.0,0.0,0.0,0.0,0.0,0.0,0.0,0.0,0.0,0.0,0.0,0.0,0.0,0.0,0.0,0.0,0.0,0.0,0.0,0.0,0.0,0.0,0.0,0.0,0.0,0.0,0.0,0.0,0.0,0.0,0.0,0.0,0.0,0.0,0.0,0.0,0.0,0.0,0.0,0.0,0.0,0.0,0.0,0.0,5.6875,5.8368,5.8484,5.8508,5.8528,5.8606,5.8606,5.7853,5.6039,5.52,0.0,0.0,0.0,0.0,0.0,0.0,0.0,0.0,0.0,0.0,0.0,0.0,0.0,0.0,0.0,0.0,0.0,0.0,0.0,0.0,0.0,0.0,0.0,0.0,0.0,0.0,0.0,0.0,0.0,0.0,0.0,0.0,0.0,0.0,0.0,0.0,0.0,0.0,0.0,0.0,0.0,0.0,0.0,0.0,0.0,0.0,0.0,0.0,0.0,0.0,0.0,0.0,0.0,0.0,0.0,0.0,0.0,0.0,0.0,0.0,0.0,0.0,0.0,0.0,0.0,0.0,0.0,0.0,0.0,0.0,0.0,0.0,0.0,0.0,0.0,0.0,0.0,0.0,0.0,0.0,0.0,0.0,0.0,0.0,0.0,0.0,0.0,0.0,0.0,0.0,0.0,0.0,0.0,0.0,0.0,0.0,0.0,0.0,0.0,0.0,0.0,0.0,5.6866,5.8199,0.0,5.9398,5.9611,6.0132,6.0171,5.9186,5.6927,0.0,0.0,0.0,0.0,0.0,0.0,0.0,0.0,0.0,0.0,0.0,0.0,0.0,0.0,0.0,0.0,0.0,0.0,0.0,0.0,0.0,0.0,0.0,0.0,0.0,0.0,0.0,0.0,0.0,0.0,0.0,0.0,0.0,0.0,0.0,0.0,0.0,0.0,0.0,0.0,0.0,0.0,0.0,0.0,0.0,0.0,0.0,0.0,0.0,0.0,0.0,0.0,0.0,0.0,0.0,0.0,0.0,0.0,0.0,0.0,0.0,0.0,0.0,0.0,0.0,0.0,0.0,0.0,0.0,0.0,0.0,0.0,0.0,0.0,0.0,0.0,0.0,0.0,0.0,0.0,0.0,0.0,0.0,0.0,0.0,0.0,0.0,0.0,0.0,0.0,0.0,0.0,0.0,0.0,0.0,0.0,0.0,0.0,0.0,0.0,0.0,0.0,5.6116,5.7641,5.8954,0.0,6.0287,6.048,6.1041,6.1118,6.0016,5.7448,0.0,0.0,0.0,0.0,0.0,0.0,0.0,0.0,0.0,0.0,0.0,0.0,0.0,0.0,0.0,0.0,0.0,0.0,0.0,0.0,0.0,0.0,0.0,0.0,0.0,0.0,0.0,0.0,0.0,0.0,0.0,0.0,0.0,0.0,0.0,0.0,0.0,0.0,0.0,0.0,0.0,0.0,0.0,0.0,0.0,0.0,0.0,0.0,0.0,0.0,0.0,0.0,0.0,0.0,0.0,0.0,0.0,0.0,0.0,0.0,0.0,0.0,0.0,0.0,0.0,0.0,0.0,0.0,0.0,0.0,0.0,0.0,0.0,0.0,0.0,0.0,0.0,0.0,0.0,0.0,0.0,0.0,0.0,0.0,0.0,0.0,0.0,0.0,0.0,0.0,0.0,0.0,0.0,0.0,0.0,0.0,0.0,0.0,0.0,0.0,0.0,0.0,5.71,5.9534,6.1118,6.1118,6.1118,6.1118,6.1118,6.1118,6.0016,0.0,0.0,0.0,0.0,0.0,0.0,0.0,0.0,0.0,0.0,0.0,0.0,0.0,0.0,0.0,0.0,0.0,0.0,0.0,0.0,0.0,0.0,0.0,0.0,0.0,0.0,0.0,0.0,0.0,0.0,0.0,0.0,0.0,0.0,0.0,0.0,0.0,0.0,0.0,0.0,0.0,0.0,0.0,0.0,0.0,0.0,0.0,0.0,0.0,0.0,0.0,0.0,0.0,0.0,0.0,0.0,0.0,0.0,0.0,0.0,0.0,0.0,0.0,0.0,0.0,0.0,0.0,0.0,0.0,0.0,0.0,0.0,0.0,0.0,0.0,0.0,0.0,0.0,0.0,0.0,0.0,0.0,0.0,0.0,0.0,0.0,0.0,0.0,0.0,0.0,0.0,0.0,0.0,0.0,0.0,0.0,0.0,0.0,0.0,0.0,0.0,0.0,0.0,5.8007,5.99,6.1118,6.1118,6.1118,6.1118,6.1118,6.1118,6.0016,5.7448,0.0,0.0,0.0,0.0,0.0,0.0,0.0,0.0,0.0,0.0,0.0,0.0,0.0,0.0,0.0,0.0,0.0,0.0,0.0,0.0,0.0,0.0,0.0,0.0,0.0,0.0,0.0,0.0,0.0,0.0,0.0,0.0,0.0,0.0,0.0,0.0,0.0,0.0,0.0,0.0,0.0,0.0,0.0,0.0,0.0,0.0,0.0,0.0,0.0,0.0,0.0,0.0,0.0,0.0,0.0,0.0,0.0,0.0,0.0,0.0,0.0,0.0,0.0,0.0,0.0,0.0,0.0,0.0,0.0,0.0,0.0,0.0,0.0,0.0,0.0,0.0,0.0,0.0,0.0,0.0,0.0,0.0,0.0,0.0,0.0,0.0,0.0,0.0,0.0,0.0,0.0,0.0,0.0,0.0,0.0,0.0,0.0,0.0,0.0,0.0,0.0,0.0,5.8355,6.0055,6.1118,6.1118,6.1118,6.1118,6.1118,6.1118,6.0171,5.795,0.0,0.0,0.0,0.0,0.0,0.0,0.0,0.0,0.0,0.0,0.0,0.0,0.0,0.0,0.0,0.0,0.0,0.0,0.0,0.0,0.0,0.0,0.0,0.0,0.0,0.0,0.0,0.0,0.0,0.0,0.0,0.0,0.0,0.0,0.0,0.0,0.0,0.0,0.0,0.0,0.0,0.0,0.0,0.0,0.0,0.0,0.0,0.0,0.0,0.0,0.0,0.0,0.0,0.0,0.0,0.0,0.0,0.0,0.0,0.0,0.0,0.0,0.0,0.0,0.0,0.0,0.0,0.0,0.0,0.0,0.0,0.0,0.0,0.0,0.0,0.0,0.0,0.0,0.0,0.0,0.0,0.0,0.0,0.0,0.0,0.0,0.0,0.0,0.0,0.0,0.0,0.0,0.0,0.0,0.0,0.0,0.0,0.0,0.0,0.0,0.0,0.0,5.8355,6.0055,6.1118,6.1118,6.1118,6.1118,6.1118,6.1118,6.0364,5.8703,0.0,0.0,0.0,0.0,0.0,0.0,0.0,0.0,0.0,0.0,0.0,0.0,0.0,0.0,0.0,0.0,0.0,0.0,0.0,0.0,0.0,0.0,0.0,0.0,0.0,0.0,0.0,0.0,0.0,0.0,0.0,0.0,0.0,0.0,0.0,0.0,0.0,0.0,0.0,0.0,0.0,0.0,0.0,0.0,0.0,0.0,0.0,0.0,0.0,0.0,0.0,0.0,0.0,0.0,0.0,0.0,0.0,0.0,0.0,0.0,5.1274,0.0,0.0,0.0,0.0,0.0,0.0,0.0,0.0,0.0,0.0,0.0,0.0,0.0,0.0,0.0,0.0,0.0,0.0,0.0,0.0,0.0,0.0,0.0,0.0,0.0,0.0,0.0,0.0,0.0,0.0,0.0,0.0,0.0,0.0,0.0,0.0,0.0,0.0,0.0,0.0,0.0,5.8355,6.0055,6.1118,6.1118,6.1118,6.1118,6.1118,6.1118,6.0364,5.8703,0.0,0.0,0.0,0.0,0.0,0.0,0.0,0.0,0.0,0.0,0.0,0.0,0.0,0.0,0.0,0.0,0.0,0.0,0.0,0.0,0.0,0.0,0.0,0.0,0.0,0.0,0.0,0.0,0.0,0.0,0.0,0.0,0.0,0.0,0.0,0.0,0.0,0.0,0.0,0.0,0.0,0.0,0.0,0.0,0.0,0.0,0.0,0.0,0.0,0.0,0.0,0.0,0.0,0.0,0.0,0.0,0.0,0.0,0.0,0.0,0.0,5.1851,0.0,0.0,0.0,0.0,0.0,0.0,0.0,0.0,0.0,0.0,0.0,0.0,0.0,0.0,0.0,0.0,0.0,0.0,0.0,0.0,0.0,0.0,0.0,0.0,0.0,0.0,0.0,0.0,0.0,0.0,0.0,0.0,0.0,0.0,0.0,0.0,0.0,0.0,0.0,0.0,5.8355,6.0055,6.1118,6.1195,6.1157,6.1118,6.1195,6.1157,6.0731,5.9862,5.907,0.0,0.0,0.0,0.0,0.0,0.0,0.0,0.0,0.0,0.0,0.0,0.0,0.0,0.0,0.0,0.0,0.0,0.0,0.0,0.0,0.0,0.0,0.0,0.0,0.0,0.0,0.0,0.0,0.0,0.0,0.0,0.0,0.0,0.0,0.0,0.0,0.0,0.0,0.0,0.0,0.0,0.0,0.0,0.0,0.0,0.0,0.0,0.0,0.0,0.0,0.0,0.0,0.0,0.0,5.3756,5.4459,5.4459,5.4849,5.5435,5.399,5.4103,5.5201,0.0,0.0,0.0,0.0,0.0,0.0,0.0,0.0,0.0,0.0,0.0,0.0,0.0,0.0,0.0,0.0,0.0,0.0,0.0,0.0,0.0,0.0,0.0,0.0,0.0,5.707,5.7586,0.0,0.0,0.0,0.0,0.0,0.0,0.0,0.0,0.0,0.0,0.0,0.0,5.8838,6.0442,6.1466,6.1756,6.1668,6.1608,6.1756,6.166,6.1582,6.1582,6.0171,5.9224,0.0,0.0,0.0,0.0,0.0,0.0,0.0,0.0,0.0,0.0,0.0,0.0,0.0,0.0,0.0,0.0,0.0,0.0,0.0,0.0,0.0,0.0,0.0,0.0,0.0,0.0,0.0,0.0,0.0,0.0,0.0,0.0,5.098,5.1219,0.0,0.0,0.0,0.0,0.0,0.0,0.0,0.0,0.0,0.0,0.0,0.0,0.0,0.0,5.3639,5.442,5.4849,5.4966,5.5708,5.6138,5.6255,5.6255,5.6333,5.6411,5.6177,0.0,5.5279,5.5049,0.0,0.0,0.0,0.0,0.0,0.0,0.0,0.0,0.0,0.0,0.0,0.0,0.0,0.0,0.0,0.0,0.0,0.0,0.0,0.0,0.0,0.0,5.8555,5.8633,5.9373,5.9954,0.0,5.7765,5.6128,5.6015,0.0,0.0,0.0,0.0,0.0,0.0,0.0,0.0,6.0692,6.1872,6.278,6.3555,6.3535,6.3514,6.361,6.3516,6.3477,6.3593,6.2703,6.1794,6.1002,5.9263,0.0,0.0,0.0,0.0,0.0,0.0,0.0,0.0,0.0,0.0,0.0,0.0,0.0,0.0,0.0,0.0,0.0,0.0,0.0,0.0,0.0,0.0,0.0,0.0,0.0,0.0,0.0,0.0,0.0,5.0395,5.1566,5.2078,5.1804,5.118,0.0,0.0,0.0,0.0,0.0,0.0,0.0,0.0,0.0,5.4147,5.4147,5.4576,5.5435,5.5825,5.602,5.6059,5.7387,5.8011,5.805,5.9026,5.9183,5.8714,5.8207,5.7504,5.6645,5.5708,5.5083,5.4693,0.0,0.0,0.0,0.0,0.0,5.3561,5.4537,0.0,0.0,0.0,0.0,0.0,0.0,0.0,0.0,0.0,0.0,0.0,0.0,0.0,0.0,5.9765,6.0508,6.1133,6.1133,6.0234,5.914,0.0,5.8008,5.7383,5.5351,0.0,0.0,0.0,0.0,0.0,6.1876,6.2898,6.36,6.4068,6.4005,6.3979,6.4095,6.4001,6.3951,6.399,6.3639,6.3249,6.282,6.0623,5.8895,0.0,0.0,0.0,0.0,0.0,0.0,0.0,0.0,0.0,0.0,0.0,0.0,0.0,0.0,0.0,0.0,0.0,0.0,0.0,0.0,0.0,0.0,0.0,0.0,0.0,0.0,0.0,0.0,5.141,5.2624,5.3288,5.3366,5.2858,0.0,0.0,0.0,0.0,0.0,0.0,5.4303,5.4537,5.5044,5.5903,5.5942,5.6372,5.7231,5.7231,5.7231,5.727,5.8519,5.9222,5.9456,6.0549,6.0783,6.0354,5.9495,5.8714,5.8011,5.6567,5.5942,5.5903,5.5474,5.5318,0.0,5.602,5.5864,5.547,5.6801,5.684,5.625,5.625,0.0,5.5821,5.5157,0.0,0.0,0.0,0.0,5.7498,5.8593,0.0,6.0,6.0586,6.1211,6.1719,6.1719,6.1719,6.1328,0.0,5.9844,5.9101,5.6758,0.0,0.0,0.0,0.0,6.1523,6.3203,6.4023,6.4531,6.4844,6.4765,6.4739,6.4867,6.4788,6.4726,6.4726,6.4531,6.4375,6.4375,6.2249,6.088,6.0364,0.0,0.0,0.0,0.0,0.0,0.0,0.0,0.0,0.0,0.0,0.0,0.0,0.0,0.0,0.0,0.0,0.0,0.0,0.0,0.0,0.0,0.0,0.0,0.0,0.0,0.0,0.0,0.0,0.0,5.5162,5.5162,0.0,0.0,0.0,0.0,5.3873,5.4693,5.5201,5.524,5.602,5.684,5.766,5.766,5.8089,5.8987,5.8987,5.8987,5.8987,5.9065,5.9534,6.0315,5.9573,5.9651,6.0354,5.9495,5.9065,5.8948,5.805,5.766,5.7738,5.8519,5.8831,5.8831,5.8909,5.887,5.887,5.8948,5.8948,5.8909,5.8909,5.8363,5.7656,5.7616,5.7109,0.0,0.0,5.8987,5.9464,6.1092,6.1523,6.1562,6.1601,6.168,6.1719,6.1719,6.1719,6.168,0.0,6.1562,6.125,6.0195,0.0,6.1369,6.1394,6.2187,6.3437,6.5234,6.5508,6.5859,6.668,6.664,6.6601,6.6756,6.664,6.6601,6.6758,6.5976,6.5469,6.5312,6.4452,6.3169,6.1446,6.0326,0.0,0.0,0.0,0.0,0.0,0.0,0.0,0.0,0.0,0.0,0.0,0.0,0.0,0.0,0.0,0.0,0.0,0.0,0.0,0.0,0.0,0.0,0.0,0.0,0.0,0.0,0.0,0.0,5.4537,5.4966,0.0,0.0,5.4693,5.4849,5.4849,5.6138,5.6918,5.6918,5.7738,5.8324,5.8636,5.9183,5.9612,5.9924,6.051,6.0783,6.0783,6.1915,6.2618,6.293,6.3711,6.3945,6.3711,6.2813,6.211,6.1603,6.1252,6.0159,5.8675,5.8987,5.9104,5.9104,5.9104,5.9104,5.9104,5.9104,5.9104,5.9183,5.9768,6.0119,6.0315,6.0315,6.0115,5.9998,6.0622,6.0778,6.0948,6.1522,6.1719,6.1718,6.1707,6.1715,6.1719,6.1719,6.1719,6.1875,6.2422,6.2539,6.2226,6.1289,6.2361,6.3321,6.328,6.4062,6.5078,6.6289,6.6445,6.6758,6.7656,6.7695,6.789,6.8476,6.8476,6.8242,6.7773,6.7461,6.6992,6.6406,6.5469,6.468,6.4028,6.3036,6.0925,0.0,0.0,0.0,0.0,0.0,0.0,0.0,0.0,0.0,0.0,0.0,0.0,0.0,0.0,0.0,0.0,0.0,0.0,0.0,0.0,0.0,0.0,0.0,0.0,0.0,0.0,5.5083,5.4498,5.5201,5.5747,5.5708,5.5981,5.6372,5.6996,5.7777,5.8363,5.8675,5.9222,5.9807,6.0393,6.0978,6.1408,6.172,6.2306,6.2579,6.2579,6.375,6.4453,6.4765,6.5585,6.5819,6.5546,6.4687,6.3984,6.3438,6.3438,6.2423,6.0822,6.0549,6.0432,6.0393,6.008,5.9963,5.9963,5.9963,5.9963,6.008,6.0666,6.1213,6.172,6.172,6.172,6.172,6.172,6.172,6.1686,6.1711,6.1713,6.1711,6.1686,6.1701,6.1791,6.2066,6.2145,6.2418,6.3277,6.3202,6.289,6.2578,6.375,6.4609,6.4297,6.5508,6.6562,6.6875,6.7383,6.7969,6.8555,6.8633,6.8828,6.9336,6.914,6.8906,6.8633,6.8359,6.8086,6.7773,6.6523,6.5859,6.5898,6.4714,6.2161,5.8351,0.0,0.0,0.0,0.0,0.0,0.0,0.0,0.0,0.0,0.0,0.0,0.0,0.0,0.0,0.0,0.0,0.0,0.0,0.0,0.0,0.0,0.0,0.0,5.2897,5.4264,5.5357,5.5396,5.6138,5.7309,5.8987,5.8363,5.8597,6.0276,5.9651,5.9573,6.0432,6.051,6.1291,6.3008,6.3086,6.3516,6.4375,6.4414,6.4453,6.4453,6.4453,6.4882,6.5702,6.4843,6.4921,6.5663,6.4843,6.4453,6.4453,6.4453,6.4453,6.4375,6.3399,6.3047,6.293,6.211,6.1798,6.1798,6.1798,6.1798,6.1798,6.1759,6.1759,6.1759,6.172,6.172,6.1759,6.1759,6.1759,6.1798,6.1798,6.1798,6.1798,6.1798,6.1798,6.1993,6.2852,6.3047,6.3282,6.4179,6.3662,6.3359,6.4218,6.5078,6.539,6.4531,6.6601,0.0,6.7109,6.8398,6.9414,6.9492,6.9453,6.9414,6.9453,6.8711,6.8633,6.9492,6.875,6.8633,6.9453,6.7734,6.6836,6.6953,6.5115,6.2814,6.0073,0.0,0.0,0.0,0.0,0.0,0.0,0.0,0.0,0.0,0.0,0.0,0.0,0.0,0.0,0.0,0.0,0.0,0.0,0.0,0.0,0.0,0.0,5.4849,5.4615,5.5552,5.6684,5.7894,5.7699,5.8168,5.9885,5.9846,5.9885,6.0354,6.1369,6.2032,6.2267,6.2891,6.3438,6.3945,6.5116,6.5858,6.6092,6.7381,6.8005,6.8005,6.8005,6.8122,6.8357,6.8122,6.8122,6.8357,6.8083,6.8005,6.8005,6.8005,6.8005,6.7732,6.4999,6.3945,6.3906,6.3672,6.3594,6.3594,6.3594,6.3594,6.3477,6.2852,6.2657,6.254,6.1876,6.2149,6.2657,6.2657,6.3086,6.3594,6.3594,6.3594,6.3594,6.3594,6.3594,6.3633,6.3906,6.3945,6.4219,6.5077,6.5048,6.4978,6.5212,6.6504,6.7409,6.7148,0.0,0.0,6.8828,6.918,6.9492,6.9492,6.9453,6.9648,7.0273,7.0156,7.0117,0.0,7.0156,6.9844,6.9453,6.8943,6.8378,6.7851,6.4825,6.2882,0.0,0.0,0.0,0.0,0.0,0.0,0.0,0.0,0.0,0.0,0.0,0.0,0.0,0.0,0.0,0.0,0.0,0.0,0.0,0.0,0.0,0.0,5.5552,5.6333,5.6333,5.6762,5.7738,5.9456,5.9183,5.9573,6.133,6.1486,6.1798,6.2501,6.3516,6.4258,6.457,6.5429,6.6053,6.6405,6.7381,6.7888,6.7888,6.8903,6.9411,6.9411,6.9411,6.9411,6.9411,6.9411,6.9411,0.0,6.9411,6.9411,6.9411,6.9411,6.9411,0.0,0.0,0.0,0.0,0.0,6.4297,6.4297,6.4297,6.4297,6.4219,6.3711,6.3555,6.3438,6.293,6.3125,6.3555,6.3555,6.3906,6.4297,6.4297,6.457,6.4843,6.4843,6.4843,6.4921,6.5273,6.5077,6.5077,6.5936,0.0,0.0,6.6561,6.7203,6.7648,6.7617,6.8672,6.9453,0.0,7.0117,7.0547,7.0547,7.0508,7.0703,7.1211,7.0898,0.0,0.0,0.0,7.0312,6.9414,6.9419,0.0,0.0,0.0,6.4555,0.0,0.0,0.0,0.0,5.8871,5.8294,0.0,0.0,0.0,0.0,0.0,0.0,0.0,0.0,0.0,0.0,0.0,0.0,0.0,0.0,0.0,0.0,5.684,5.7933,5.8324,5.8285,5.8831,6.051,6.0705,6.1369,6.3125,6.3399,6.4062,6.5624,6.5936,6.6327,6.7068,0.0,0.0,0.0,0.0,6.9567,6.9567,6.9645,6.9684,6.9684,6.9684,6.9684,6.9684,6.9684,6.9684,6.9684,6.9684,6.9684,6.9684,6.9684,6.9645,6.9372,6.7732,6.7107,6.6912,6.5429,6.4882,0.0,0.0,0.0,0.0,6.4765,6.4726,6.4726,6.4609,6.4648,6.4726,6.4726,6.4804,6.4882,6.4882,6.539,6.5897,6.5897,6.5819,6.5936,6.6639,6.6327,6.6092,6.6795,6.7029,6.7342,6.8122,6.7646,6.7187,6.7226,6.8632,0.0,6.9687,7.1055,7.1953,7.1875,0.0,0.0,7.1836,7.1133,7.1055,7.1953,7.1289,7.0469,6.9648,6.9609,6.9219,6.832,6.7578,6.707,6.6875,6.6085,6.5187,6.4123,6.0816,5.9702,0.0,0.0,0.0,0.0,0.0,0.0,0.0,0.0,0.0,0.0,0.0,0.0,0.0,0.0,0.0,5.7113,5.7582,5.8792,6.1603,6.1408,6.133,6.2384,6.2501,6.3164,6.4921,6.5663,6.6209,6.6522,6.7888,6.8747,6.8903,6.9059,0.0,6.9372,7.0074,7.0465,7.0465,7.1167,7.1519,7.1519,0.0,0.0,7.1519,7.1519,7.1519,7.1519,7.1519,7.1519,7.1519,7.1519,7.1089,7.0348,6.9294,6.8903,6.8864,6.8513,6.8396,6.8396,6.8396,6.8396,6.8318,6.7576,6.7381,6.7224,6.6522,6.6795,0.0,6.7381,6.7888,6.8396,6.8396,6.8005,6.7615,6.7615,6.7068,6.66,6.6756,6.7224,6.7654,6.781,6.8435,6.8942,6.9137,6.903,6.9163,6.9843,7.0812,7.1506,7.1484,7.1797,7.1719,7.1015,7.0937,7.0937,7.0937,7.0781,7.1055,7.1953,7.1836,7.168,7.1484,7.082,7.039,7.0195,6.9336,6.8594,6.789,6.7724,6.6856,6.5251,6.3689,6.3029,0.0,0.0,0.0,0.0,0.0,0.0,0.0,0.0,0.0,0.0,0.0,5.4927,5.5786,0.0,5.6957,5.8246,5.9183,6.0344,6.2024,6.2953,6.3715,6.4253,6.4297,6.4794,6.5964,6.6934,6.7604,6.7914,6.9276,7.0035,7.0035,7.0465,7.0699,7.0699,7.1128,7.1363,7.1363,7.1792,7.1987,7.1987,7.1987,7.1987,7.1987,7.1987,7.2221,7.2651,7.2651,7.2885,7.3236,7.2807,7.2143,7.1324,7.0855,7.0152,6.9411,6.9411,6.9411,6.9411,6.9411,6.9411,6.9333,6.8903,6.8747,6.8669,6.8239,6.8396,6.8747,6.8747,6.9059,6.9411,6.9411,6.9411,6.9411,6.9411,6.9059,6.8747,6.8747,6.8747,6.8747,6.8747,6.9098,6.9528,6.9996,7.0035,7.0201,7.0611,7.1065,7.1529,7.1939,7.1981,7.183,7.1406,7.1367,7.1367,7.1367,7.1367,7.1523,7.1953,7.1992,7.1992,7.1992,7.1562,7.1367,7.1367,7.0508,6.9844,6.9453,6.9023,6.8164,6.6875,6.6367,6.5333,0.0,0.0,0.0,0.0,0.0,0.0,0.0,0.0,5.4533,5.4679,5.5382,5.6196,5.6887,5.7545,5.8325,5.9339,6.0705,6.1736,6.2123,6.3982,6.5397,6.5751,6.5959,6.6244,6.679,6.7922,6.8841,6.9353,7.0356,7.0933,7.0933,7.1636,7.1987,7.1987,7.1987,7.1987,7.1987,7.1987,7.1987,7.1987,7.1987,7.1987,7.1987,7.1987,7.2378,7.308,7.3236,7.3666,7.4212,7.3744,7.3119,7.2495,7.2495,7.1636,7.0348,7.0035,6.9918,6.9918,6.9918,6.9918,6.9918,6.9918,6.9918,6.9918,6.9918,6.9918,6.9918,6.9918,6.9918,6.9918,6.9918,7.0309,7.0699,7.0699,7.0582,7.0504,7.066,7.027,6.9957,7.0113,7.027,7.0621,7.1324,7.1441,7.1324,7.1011,7.0933,7.1285,7.2143,7.226,7.2314,7.2497,7.2498,7.2498,7.2498,7.2343,7.2265,7.2265,7.2109,7.1992,7.1992,7.1992,7.1992,7.1992,7.1328,7.0859,7.0703,7.0,6.9258,6.8437,6.8281,6.6953,5.4913,5.4351,5.3758,5.3552,5.3643,5.4156,0.0,0.0,5.6475,5.7073,5.7875,5.8471,5.8479,5.8545,5.9128,6.0708,6.1136,6.2069,6.4348,6.493,6.5453,6.6361,6.716,6.7667,6.7764,6.9373,7.042,7.0531,7.1357,7.1831,7.1831,7.1948,7.1987,7.1987,7.1987,7.1987,7.1987,7.1987,7.1987,7.1987,7.1987,7.1987,7.1987,7.1987,7.2065,7.2182,7.2963,7.3354,7.3471,7.4095,7.429,7.4212,7.4212,7.4095,7.3744,7.226,7.1714,7.1714,7.1714,7.1714,7.1714,7.1714,7.1714,7.1714,7.1714,7.1714,7.1714,7.1714,7.1714,7.1714,7.1714,7.1206,7.0699,7.0699,7.0113,6.9762,7.0543,7.1245,7.1948,7.2729,7.3432,7.3978,7.4056,7.4056,7.3588,7.2065,7.1831,7.2182,7.3041,7.3158,7.3437,7.4223,7.4301,7.4301,7.4301,7.3589,7.3164,7.3164,7.2422,7.1992,7.1992,7.1992,7.1992,7.1992,7.1914,7.1484,7.0703,7.0586,7.0156,6.9336,6.8555,6.7578,5.5675,5.5823,0.0,0.0,5.585,5.6691,5.6835,5.7375,5.7897,5.8192,5.8542,5.8907,5.936,5.9463,6.0007,0.0,6.2376,6.3284,6.4877,6.5498,6.615,6.7061,6.8043,6.8621,6.8582,6.988,7.0876,7.1261,7.1735,7.1987,7.1987,7.1987,7.1987,7.1987,7.1987,7.1987,7.1987,7.1987,7.1987,7.1987,7.1987,7.1987,7.1987,7.1987,7.226,7.2807,7.3627,7.3744,7.3315,7.3666,7.351,7.308,7.3588,7.3783,7.3783,7.3549,7.3432,7.3432,7.3432,7.3432,7.3432,7.3432,7.3432,7.3432,7.3432,7.3432,7.3432,7.3432,7.3432,7.3432,7.3432,7.3197,7.2924,7.2924,7.2612,7.2456,7.2846,7.3197,7.3549,7.3939,7.4251,7.4369,7.3861,7.3783,7.3549,7.2846,7.3158,7.3588,7.3939,7.3984,7.4134,7.4486,7.4525,7.4564,7.4603,7.4271,7.4054,7.4062,7.3242,7.2773,7.2773,7.2265,7.1992,7.1992,7.1992,7.1836,7.1445,7.1445,7.1015,7.0195,6.9805,6.914,5.6302,0.0,0.0,5.6601,5.7528,5.8474,5.7838,5.8425,5.9022,5.8978,5.9172,5.9506,6.0118,6.0428,6.1031,6.2504,6.3485,6.4355,6.5196,6.6045,6.6816,6.7454,6.8652,6.9396,6.9421,7.0346,7.1144,7.1614,7.177,7.1846,7.1846,7.1846,7.1846,7.1846,7.1846,7.1846,7.1846,7.1846,7.1862,7.1924,7.1924,7.193,7.1987,7.1987,7.2339,7.3002,7.3822,7.3822,7.3315,7.3549,7.3275,7.2768,7.3393,7.3627,7.3705,7.429,7.4486,7.4486,7.4486,7.4486,7.4486,7.4486,7.4486,7.4486,7.4486,7.4486,7.4486,7.4486,7.4486,7.4486,7.4486,7.4486,7.4486,7.4486,7.433,7.4212,7.4447,7.433,7.4212,7.4447,7.4486,7.433,7.3744,7.3627,7.3627,7.3627,7.4134,7.4603,7.4837,7.5071,7.5227,7.5227,7.5227,7.5227,7.5305,7.5071,7.4935,7.4961,7.414,7.3555,7.332,7.2695,7.2265,7.1992,7.1992,7.1992,7.1992,7.1992,7.168,7.1055,7.082,7.0351,5.6757,0.0,5.7377,5.719,5.7851,5.8488,5.8488,5.9242,5.9886,5.9723,6.0344,6.0906,6.0773,6.1458,6.2305,6.3152,6.4128,6.5041,6.5755,6.6753,6.7384,6.7384,6.8875,6.9963,0.0,7.1083,7.1614,7.1497,7.1497,7.1536,7.1536,7.1536,7.1536,7.1536,7.1536,7.1536,7.1536,7.1536,7.1573,7.1711,7.1711,7.1798,7.1987,7.1987,7.2026,7.2104,7.2963,7.3315,7.3354,7.4134,7.4447,7.4447,7.4447,7.4447,7.4486,7.4486,7.4486,7.4486,7.4486,7.4486,7.4486,7.4486,7.4486,7.4486,7.4486,7.4486,7.4486,7.4486,7.4486,7.4486,7.4486,7.4486,7.4486,7.4486,7.39,7.3549,7.433,7.39,7.3588,7.4369,7.4486,7.4486,7.4486,7.4447,7.4447,7.4447,7.4486,7.4798,7.5657,7.6516,7.7023,7.7023,7.7023,7.7023,7.7023,7.6242,7.5794,7.5859,7.5039,7.418,7.332,7.3281,7.2851,7.2031,7.1992,7.1992,7.1992,7.1992,7.1992,7.1953,7.1094,7.0703,5.7804,0.0,5.891,5.8739,5.9391,6.0008,6.0008,6.0303,6.0517,6.0453,6.0663,6.1026,6.1574,6.1897,6.2551,6.3935,6.447,6.518,6.6676,6.7188,6.7851,6.9109,6.9747,0.0,0.0,0.0,0.0,7.1481,7.1481,7.1481,7.1481,7.1481,7.1481,7.1481,7.1481,7.1481,7.1481,7.1481,7.1513,7.1573,7.1665,7.1798,7.1987,7.1987,7.1987,7.2026,7.23,7.2456,7.2456,7.2729,7.2846,7.2885,7.3471,7.3705,7.3783,7.429,7.4486,7.4486,7.4486,7.4486,7.4486,7.4486,7.4486,7.4486,7.4486,7.4486,7.4486,7.4486,7.4486,7.4486,7.4486,7.4486,7.4486,7.4486,7.429,7.4173,7.4447,7.429,7.4173,7.4447,7.4486,7.433,7.3783,7.3705,7.3705,7.3705,7.4173,7.4597,7.4915,7.5188,7.5384,7.5384,7.5891,7.6242,7.6242,7.6516,7.6677,7.6696,7.5934,7.5312,7.5039,7.3906,7.3164,7.2851,7.2305,7.1992,7.1992,7.1992,7.1992,7.1992,7.1719,7.1562,5.8828,5.932,5.9746,5.9926,6.0396,6.0781,6.0781,6.0781,6.0781,6.0781,6.0781,6.0973,6.1512,6.2127,6.2897,6.3974,6.4971,6.599,6.7139,6.7862,6.8721,6.9904,7.0292,7.0617,0.0,0.0,0.0,7.128,7.128,7.128,7.128,7.128,7.128,7.128,7.159,7.1745,7.1745,7.2035,7.2425,7.2841,7.3315,7.3622,7.3822,7.351,7.3354,7.3354,7.3041,7.2885,7.2885,7.2573,7.2456,7.2495,7.2729,7.2846,7.2885,7.3432,7.3627,7.3705,7.429,7.4486,7.4486,7.4486,7.4486,7.4486,7.4486,7.4486,7.4486,7.4486,7.4486,7.4486,7.4486,7.4486,7.4486,7.4486,7.429,7.4056,7.4056,7.3822,7.3627,7.3627,7.3627,7.3432,7.2924,7.2846,7.2846,7.2846,7.3275,7.3822,7.4408,7.4486,7.4486,7.4486,7.4993,7.5345,7.5345,7.5852,7.6164,7.6203,7.5997,7.5778,7.5469,7.4648,7.3945,7.332,7.2734,7.2305,7.1992,7.1992,7.1992,7.1992,7.1992,7.1992,5.9782,5.9766,5.992,6.0657,6.0781,6.0781,6.0781,6.0781,6.0781,6.0781,6.0804,6.0843,0.0,0.0,6.332,6.3358,6.565,6.7338,6.7218,6.8714,6.9865,0.0,0.0,0.0,0.0,0.0,0.0,7.0898,0.0,7.0898,7.0898,7.0937,7.0975,7.0975,7.186,7.2322,7.2322,7.3196,7.4215,7.5383,7.6352,7.6897,7.7062,7.6242,7.5852,7.5813,7.4993,7.4642,7.4564,7.3822,7.351,7.3393,7.2573,7.2221,7.2143,7.2143,7.2065,7.2221,7.3822,7.4369,7.4369,7.4369,7.4369,7.4369,7.4369,7.4369,7.4369,7.4369,7.4369,7.4369,7.4369,7.4369,7.4369,7.4369,7.3783,7.3236,7.3236,7.2612,7.2065,7.2065,7.2104,7.2143,7.2143,7.2143,7.2143,7.2143,7.2143,7.2651,7.4179,7.4374,7.4374,7.4374,7.4413,7.4447,7.4447,7.448,7.4519,7.4597,7.5384,7.5486,7.4687,7.543,7.5078,7.3476,7.3398,7.2969,7.2148,7.2109,7.207,7.207,7.2031,7.1992,6.0398,6.0525,6.0542,6.0766,6.0781,6.0781,6.0781,6.0781,6.0781,6.0781,6.0877,6.1095,0.0,0.0,0.0,6.4191,6.5909,0.0,6.7975,6.9027,0.0,7.0514,0.0,7.0898,7.0898,7.0898,0.0,0.0,7.0898,7.0898,7.0898,7.1514,7.186,7.186,7.3283,7.4053,7.4053,7.5105,7.583,7.6277,7.6663,7.6946,7.7101,7.6867,7.6789,7.675,7.6516,7.6438,7.6438,7.6203,7.6125,7.6125,7.5891,7.4993,7.3861,7.3861,7.308,7.2065,7.2495,7.2651,7.2651,7.2651,7.2651,7.2651,7.2651,7.2651,7.2651,7.2651,7.2651,7.2651,7.2651,7.2651,7.2651,7.2651,7.2495,7.2339,7.2339,7.2651,7.2963,7.2963,7.3432,7.3861,7.3861,7.3861,7.3861,7.3861,7.3861,7.3549,7.2729,7.2651,7.2651,7.2651,7.3236,7.3627,7.3627,7.4173,7.4525,7.4525,7.4759,7.5134,7.5547,7.5156,7.5039,7.5234,7.4609,7.414,7.3945,7.3281,7.2969,7.2969,7.2305,7.1992,6.1174,6.1358,6.1473,6.182,6.1897,6.1781,6.1435,6.1358,6.1243,6.0858,6.0856,0.0,6.1458,0.0,0.0,0.0,0.0,0.0,6.8321,6.9436,7.0398,0.0,7.0898,0.0,7.0898,7.0898,7.0898,0.0,7.0898,7.1052,7.1437,7.1937,7.2552,7.3283,7.4591,7.5649,7.648,7.7566,7.8185,7.8411,7.8884,7.9208,7.9366,7.8975,7.8819,7.878,0.0,7.8233,7.8194,7.7843,7.7687,7.7648,7.7257,7.6516,7.5657,7.5657,7.4798,7.3666,7.3666,7.3432,7.2963,7.2221,7.1987,7.1987,7.1987,7.1987,7.1987,7.1987,7.226,7.2573,7.2573,7.2846,7.308,7.308,7.308,7.308,7.308,7.3471,7.3822,7.3822,7.4173,7.4486,7.4486,7.4486,7.4642,7.4993,7.5077,7.4882,7.429,7.3588,7.308,7.308,7.351,7.3666,7.3315,7.3705,7.3822,7.3432,7.3783,7.4267,7.4757,7.4648,7.4844,7.5312,7.4844,7.4609,7.4609,7.4101,7.3867,7.3867,7.3359,7.3125,6.1897,6.2166,6.2435,6.3128,6.332,6.3089,6.2281,6.2089,6.182,6.0819,0.0,6.0789,6.0627,6.2113,6.3306,6.332,0.0,6.8398,6.8398,6.986,7.0898,7.0898,7.0898,7.0898,7.0898,7.1014,7.1052,7.1052,7.1168,7.1514,7.2168,7.2514,7.3504,7.5187,7.587,7.7074,7.8805,7.9777,8.0419,8.0713,8.1505,8.2026,8.2254,8.1513,8.1161,8.1122,0.0,0.0,7.999,7.9248,7.8936,7.8858,7.8077,7.7648,7.7453,7.7453,7.6828,7.5969,7.5969,7.5462,7.4564,7.2885,7.2339,7.2339,7.2339,7.2339,7.2339,7.2339,7.2885,7.3471,7.3471,7.3978,7.4486,7.4486,7.4486,7.4486,7.4486,7.4603,7.472,7.4837,7.4954,7.5032,7.5032,7.511,7.5462,7.6203,7.6326,7.6599,7.7335,7.593,7.4843,7.4843,7.4725,7.4369,7.3705,7.3432,7.2963,7.2221,7.2768,7.3197,7.3315,7.4017,7.4492,7.4609,7.4726,7.4765,7.4765,7.4765,7.4765,7.4765,7.4648,7.4609,6.205,6.2589,6.3128,6.3281,6.332,6.3089,6.2281,6.2089,0.0,0.0,6.0398,6.0691,5.9903,6.1825,6.351,6.3344,0.0,0.0,0.0,0.0,7.0898,0.0,0.0,0.0,0.0,0.0,0.0,0.0,0.0,0.0,7.2206,7.4207,7.6206,7.8001,7.7711,7.7991,7.902,7.9408,7.9936,8.0701,8.1031,8.1577,8.2293,8.2137,8.2059,8.2059,0.0,0.0,8.1825,8.1708,8.163,8.163,8.1474,8.0537,7.9248,7.9248,7.8233,7.6867,7.6867,7.6789,7.636,7.4642,7.4056,7.4056,7.4056,7.4056,7.4056,7.4056,7.4173,7.429,7.429,7.4408,7.4486,7.4486,7.4486,7.4486,7.4486,7.5071,7.5774,7.6516,7.7218,7.7726,7.7726,7.8311,7.8858,7.9014,7.902,7.9092,7.9248,7.7726,7.6633,7.6633,7.6008,7.554,7.5384,7.4095,7.3236,7.308,7.2534,7.2534,7.3275,7.3431,7.3867,7.4609,7.5312,7.5664,7.5664,7.5664,7.5664,7.5664,7.4922,7.4609,6.2589,6.3358,6.4089,6.4551,6.4666,6.432,6.3012,0.0,0.0,0.0,5.987,6.0068,5.9611,6.1296,0.0,6.3267,6.5782,0.0,0.0,0.0,0.0,0.0,0.0,0.0,0.0,0.0,0.0,0.0,0.0,0.0,7.4207,7.6169,7.7544,7.8114,7.8359,7.8742,7.9267,7.945,7.9773,8.0163,8.0282,8.0537,8.0966,8.0966,8.0966,8.0966,8.0966,0.0,8.0966,8.0966,8.0966,8.1005,8.1435,8.1122,8.042,8.0888,8.0224,7.9131,7.9131,7.8819,7.8311,7.7492,7.6281,7.5188,7.5188,7.4876,7.4486,7.4486,7.4837,7.5188,7.5188,7.5501,7.5852,7.5852,7.5852,7.5969,7.6438,7.6867,7.7414,7.8272,7.878,7.9092,7.9092,7.9405,7.9834,8.0302,8.0381,8.0537,8.1005,8.0302,7.9444,7.8546,7.8077,7.7648,7.7179,7.6008,7.4876,7.3978,7.3119,7.2651,7.2612,7.2611,7.3047,7.3906,7.4336,7.4765,7.5234,7.5664,7.5898,7.5898,7.5937,7.5937,6.3166,6.4089,6.5051,6.5743,6.5897,6.5436,6.3705,6.282,0.0,5.9896,5.9665,5.9704,5.955,0.0,6.2358,0.0,6.5282,6.7205,6.8244,7.0437,7.1668,0.0,0.0,0.0,0.0,0.0,0.0,0.0,0.0,0.0,7.6553,7.7458,7.7869,7.7519,7.8185,7.8637,7.8831,7.8993,7.9197,7.9405,7.9405,7.9522,7.9717,7.9717,7.9717,7.9717,7.9717,0.0,0.0,7.9717,7.9717,7.9756,8.0459,8.0732,8.081,8.1474,8.1317,8.0732,8.0927,8.0537,8.0029,8.0185,7.8624,7.6633,7.6633,7.6164,7.5618,7.5618,7.6125,7.6633,7.6633,7.714,7.7648,7.7648,7.7648,7.7843,7.8546,7.8663,7.8897,7.9561,7.9834,7.999,7.999,8.0146,8.0498,8.1161,8.1278,8.1513,8.2215,8.2293,8.1786,8.0413,8.0101,7.9717,7.9014,7.7999,7.6711,7.5149,7.4095,7.3158,7.23,7.2103,7.2305,7.3008,7.3203,7.3633,7.4336,7.5195,7.5625,7.5625,7.6523,7.6914,6.3512,6.4512,6.5782,6.5859,6.5897,6.5436,6.3705,0.0,6.2512,6.0012,6.0127,6.0435,5.9665,6.0935,0.0,0.0,0.0,6.6551,6.8167,6.9898,7.0975,7.0898,0.0,0.0,0.0,0.0,0.0,0.0,0.0,0.0,0.0,7.7151,7.6799,7.7481,7.706,7.6887,7.7038,7.705,7.757,7.8507,7.8507,7.8936,7.9717,7.9717,7.9717,7.9717,0.0,0.0,0.0,7.9717,7.9717,7.9717,7.9795,7.9834,7.9834,7.9912,7.9873,7.9912,8.0732,8.0966,8.1005,8.1786,8.0849,7.9326,7.9326,7.9287,7.9209,7.9209,7.9287,7.9326,7.9326,7.9405,7.9444,7.9444,7.9444,7.9483,7.9561,7.96,7.96,7.9678,8.0341,8.0888,8.0888,8.1552,8.2098,8.2176,8.2176,8.2215,8.2293,8.2293,8.2254,8.2098,8.1356,8.0849,8.0771,7.9242,7.7876,7.6906,7.5305,7.4023,7.3197,7.2416,7.2031,7.2109,7.289,7.3359,7.3437,7.4297,7.4726,7.4726,7.5625,7.6015,6.3397,6.4589,6.5897,6.5897,6.5897,6.5436,6.3705,0.0,6.1973,5.9935,5.9781,5.9896,5.955,6.0512,6.1743,6.3089,6.432,0.0,6.7398,6.9513,7.0706,7.0244,0.0,0.0,0.0,0.0,0.0,0.0,0.0,0.0,0.0,7.7207,7.6842,7.6784,7.6527,7.6552,7.6804,7.6804,7.7092,7.7609,7.7609,7.7804,7.8155,7.8155,7.8155,7.8155,0.0,0.0,0.0,7.8155,7.8155,7.8194,7.8702,7.8936,7.8975,7.9522,7.9717,7.9756,8.0107,8.0224,8.0341,8.1239,8.1044,8.0498,8.0498,8.0107,7.9717,7.9717,7.9717,7.96,7.9053,7.8546,7.8155,7.8155,7.8155,7.8272,7.878,7.8936,7.9248,8.0263,8.0771,8.1161,8.1708,8.2059,8.2293,8.2293,8.2293,8.2293,8.2293,8.2293,8.2293,8.2293,8.1981,8.1786,8.1786,8.0654,7.9359,7.7954,7.675,7.5227,7.3393,7.2962,7.2539,7.1992,7.2344,7.2539,7.2539,7.3398,7.3828,7.3828,7.4726,7.5117,6.3358,6.4589,6.5897,6.5897,6.5897,6.5436,0.0,0.0,6.1973,6.0242,5.9896,5.9896,5.9896,6.0396,6.1358,6.3051,6.382,6.4897,6.6821,6.909,7.0321,0.0,0.0,0.0,0.0,0.0,0.0,0.0,0.0,0.0,0.0,7.7053,7.6707,7.6237,7.6199,7.6333,7.663,7.6728,7.6816,7.6989,7.705,7.7101,7.7101,7.7101,7.7101,7.7101,0.0,0.0,0.0,7.7101,7.7101,7.7179,7.7765,7.8038,7.8077,7.8702,7.8936,7.8975,7.9248,7.9326,7.9444,8.0341,8.0615,8.0615,8.0615,8.0537,8.0459,8.0459,8.0263,7.9873,7.9014,7.8311,7.7882,7.7882,7.7882,7.8038,7.8663,7.878,7.9131,8.0381,8.0615,8.081,8.1435,8.1513,8.1513,8.1513,8.1747,8.1903,8.1903,8.2137,8.2293,8.2293,8.2293,8.2293,8.2293,8.1747,8.0771,7.9242,7.835,7.6711,7.4173,7.3822,7.3164,7.2031,7.1992,7.1992,7.1992,7.2617,7.293,7.293,7.3828,7.4336,6.3551,6.4589,6.5897,6.5897,6.5897,6.5436,0.0,6.3281,6.282,6.1127,6.0781,6.0781,6.0781,6.0781,6.1358,6.3051,6.332,6.4205,6.6744,6.859,6.9706,0.0,0.0,0.0,0.0,0.0,0.0,0.0,0.0,0.0,0.0,7.6476,7.6015,7.5976,7.5976,7.6079,7.6281,7.6517,7.6669,7.6804,7.6989,7.7101,7.7101,7.7101,7.7101,0.0,0.0,0.0,0.0,7.7101,7.7101,7.7101,7.7101,7.7101,7.7101,7.7101,7.714,7.7257,7.8116,7.839,7.8546,7.9444,7.9717,7.9717,7.9717,8.0927,8.2254,8.2254,8.1669,8.0771,7.9912,7.9678,7.9678,7.9678,7.9678,7.9678,7.9678,7.9678,7.9678,7.9717,7.9717,7.9717,7.9717,7.9717,7.9717,7.9711,8.0452,8.1005,8.1005,8.1786,8.2293,8.2293,8.2293,8.2293,8.2293,8.2293,8.1903,8.1044,8.0146,7.8546,7.5969,7.5032,7.3789,7.2031,7.1992,7.1992,7.1992,7.1992,7.1992,7.2031,7.289,7.3789,6.2397,6.3281,6.4128,6.4128,6.4128,6.382,6.2743,6.2474,6.2166,6.1012,6.0781,6.0781,6.0781,6.0781,6.1358,6.3051,6.332,6.4012,0.0,0.0,0.0,0.0,0.0,0.0,0.0,0.0,0.0,0.0,0.0,0.0,0.0,7.613,7.6015,7.6015,7.6015,7.6079,7.6281,7.6372,7.6534,7.6804,7.6838,7.6973,7.7101,7.7101,0.0,0.0,0.0,0.0,0.0,7.7101,7.7101,7.7101,7.7101,7.7101,7.7101,7.7101,7.7101,7.714,7.7414,7.7492,7.7648,7.8546,7.8819,7.8936,7.9522,8.0107,8.0537,8.0537,7.9912,7.917,7.8897,7.835,7.7921,7.7921,7.7921,7.7921,7.7921,7.7921,7.8116,7.8702,7.8819,7.9014,7.96,7.9717,7.9717,7.9717,7.9951,8.0101,8.0101,8.0888,8.1396,8.1396,8.1942,8.2293,8.2293,8.2293,8.1942,8.1044,8.0732,7.9694,7.7691,7.6249,7.4961,7.3789,7.2617,7.1992,7.1992,7.1992,7.1992,7.1992,7.2265,7.2578,6.1666,6.2704,6.332,6.332,6.332,6.3089,6.2281,6.2089,6.1858,6.0973,6.0781,6.0781,6.0781,6.0781,6.1243,6.2627,0.0,0.0,0.0,0.0,0.0,0.0,0.0,0.0,0.0,0.0,0.0,0.0,0.0,0.0,0.0,0.0,7.6015,7.6015,7.6015,7.6062,7.6173,7.6273,7.6397,7.6599,7.6699,7.6768,7.6926,7.6926,0.0,0.0,0.0,0.0,0.0,7.705,7.7101,7.7101,7.7101,7.7101,7.7101,7.7101,7.7101,7.7101,7.7101,7.7101,7.7179,7.7726,7.7921,7.7999,7.8546,7.917,7.9639,7.9287,7.8819,7.8311,7.7999,7.7492,7.7101,7.7101,7.7101,7.7101,7.7101,7.7101,7.7257,7.7804,7.7921,7.8077,7.8624,7.8702,7.8702,7.8702,7.9014,7.9209,7.9209,7.999,8.0498,8.0498,8.1278,8.1825,8.1825,8.2098,8.2059,8.1513,8.1495,8.0694,7.8945,7.7617,7.6328,7.5117,7.3711,7.2812,7.25,7.2148,7.1992,7.1992,7.1992,7.1992,0.0,6.2512,6.3128,6.3128,6.3128,6.2935,6.2166,6.2012,0.0,6.0973,6.0781,6.0819,6.0858,6.0819,6.1089,0.0,0.0,0.0,0.0,0.0,0.0,0.0,0.0,0.0,0.0,0.0,0.0,0.0,0.0,0.0,0.0,0.0,7.6015,7.6015,7.6015,7.6015,7.6015,7.6173,7.6297,7.6281,7.6497,7.6609,7.6609,7.6609,0.0,0.0,0.0,0.0,0.0,7.6981,7.705,7.7089,7.7056,7.7095,7.7095,7.7101,7.7101,7.7101,7.7101,7.7101,7.7101,7.7101,7.7101,7.7101,7.7101,7.8233,7.9366,7.8546,7.8311,7.8116,7.7296,7.7101,7.7101,7.7101,7.7101,7.7101,7.7101,7.7101,7.7101,7.7101,7.7101,7.7101,7.7101,7.7101,7.7101,7.7101,7.7804,7.8311,7.8311,7.9053,7.96,7.9593,8.0381,8.0927,8.1005,8.1786,8.2293,8.2299,8.2297,8.1562,7.9961,7.9062,7.7812,7.6133,7.5117,7.4219,7.3398,7.2578,7.2187,7.2187,7.2187,7.2187,5.9781,0.0,6.1396,6.1396,6.1396,6.1358,0.0,6.1089,6.105,0.0,0.0,6.1012,6.1666,6.1243,6.1281,0.0,0.0,0.0,0.0,0.0,0.0,0.0,0.0,0.0,0.0,0.0,0.0,0.0,0.0,0.0,0.0,0.0,7.6015,7.6015,7.6015,7.6015,7.6015,7.6062,7.616,7.6281,7.635,7.6457,7.6609,7.6609,0.0,0.0,0.0,0.0,7.6638,7.6723,7.6738,7.6752,7.6816,7.6887,7.6897,7.7043,7.7101,7.7101,7.7101,7.7101,7.7101,7.7101,7.7101,7.7101,7.7101,7.7375,7.7687,7.7453,7.7414,7.7375,7.714,7.7101,7.7101,7.7101,7.7101,7.7101,7.7101,7.7101,7.7101,7.7101,7.7101,7.7101,7.7101,7.7101,7.7101,7.7101,7.7257,7.7414,7.7414,7.8155,7.8702,7.8702,7.9483,8.0263,8.0927,8.1786,8.231,8.2301,8.2304,8.2109,8.1719,8.0234,7.8945,7.789,7.5703,7.4492,7.4297,7.4101,7.3984,7.3984,7.3984,7.3984,5.9281,6.0435,6.1396,6.1396,6.1396,6.1396,6.1396,6.1089,6.0781,0.0,0.0,6.0935,6.1396,6.1743,0.0,0.0,0.0,0.0,0.0,0.0,0.0,0.0,0.0,0.0,0.0,0.0,0.0,0.0,0.0,0.0,0.0,0.0,7.6015,7.6015,7.6015,7.6015,7.6015,7.6015,7.6062,7.6186,7.6186,7.6224,7.6305,7.6305,0.0,0.0,0.0,0.0,7.6477,7.6573,7.6609,7.6626,7.6684,7.6713,7.6728,7.6897,7.6973,7.6973,7.705,7.7101,7.7101,7.7101,7.7101,7.7101,7.7101,7.7101,7.7101,7.7101,7.7101,7.7101,7.7101,7.7101,7.7101,7.7101,7.7101,7.7101,7.7101,7.7101,7.7101,7.7101,7.7101,7.7101,7.7101,7.7101,7.7101,7.7101,7.7101,7.7101,7.7101,7.7492,7.7804,7.7804,7.8585,7.9287,7.9756,8.0966,8.1876,8.2253,8.2303,8.2304,8.2304,8.1015,7.9726,7.8515,7.6719,7.5586,7.5195,7.4805,7.4609,7.4609,7.4609,7.4609,5.9435,6.0973,6.2204,6.1973,6.1973,6.205,6.1935,6.132,6.0781,0.0,0.0,6.0935,6.132,6.232,0.0,0.0,0.0,0.0,0.0,0.0,0.0,0.0,0.0,0.0,0.0,0.0,0.0,0.0,0.0,0.0,0.0,0.0,0.0,7.6015,7.6015,7.6015,7.6015,7.6015,7.6015,7.6015,7.6015,7.6015,7.6015,7.6015,0.0,0.0,0.0,0.0,7.6273,7.6457,7.6517,7.6536,7.6555,7.6534,7.6552,7.6728,7.6768,7.6793,7.6981,7.7056,7.7101,7.7101,7.7101,7.7101,7.7101,7.7101,7.7101,7.7101,7.7101,7.7101,7.7101,7.7101,7.7101,7.7101,7.7101,7.7101,7.7101,7.7101,7.7101,7.7101,7.7101,7.7101,7.7101,7.7101,7.7101,7.7101,7.7101,7.7101,7.7101,7.7101,7.7101,7.7101,7.7765,7.8272,7.839,7.9756,8.1044,8.2032,8.2221,8.2304,8.2304,8.1445,8.0273,7.8711,7.7851,7.6953,7.6094,7.5351,7.5,7.5,7.5,7.5,6.0165,6.182,6.2781,6.1358,6.155,6.1897,6.1166,6.0896,6.0781,6.0781,0.0,0.0,0.0,6.3051,0.0,0.0,0.0,0.0,0.0,0.0,0.0,0.0,0.0,0.0,0.0,0.0,0.0,0.0,0.0,0.0,0.0,0.0,0.0,7.6015,7.6015,7.6015,7.6015,7.6015,7.6015,7.6015,7.6015,7.6015,7.6015,7.6015,7.6015,0.0,0.0,7.6034,7.6062,7.609,7.6079,7.6106,7.6297,7.635,7.6372,7.6552,7.6621,7.6638,7.6793,7.6965,7.7101,7.7101,7.7101,7.7101,7.7101,7.7101,7.7101,7.7101,7.7101,7.7101,7.7101,7.7101,7.7101,7.7101,7.7101,7.7101,7.7101,7.7101,7.7101,7.7101,7.7101,7.7101,7.7101,7.7101,7.7101,7.7101,7.7101,7.7101,7.7101,7.7101,7.7101,7.7101,7.7218,7.7609,7.835,7.8663,7.9504,8.1092,8.1875,8.2304,8.2304,8.1445,8.0547,7.9531,7.8711,7.7851,7.6992,7.6875,7.6797,7.6797,7.6797,7.6797,6.0319,6.1704,6.2474,6.1704,6.2474,6.3358,6.2935,6.2858,6.2704,0.0,0.0,0.0,0.0,0.0,0.0,0.0,0.0,0.0,0.0,0.0,0.0,0.0,0.0,0.0,0.0,0.0,0.0,0.0,0.0,0.0,0.0,0.0,0.0,0.0,7.6015,7.6015,7.6015,7.6015,7.6015,7.6015,7.6015,7.6015,7.6015,7.6015,7.6015,7.6015,0.0,7.6015,7.6015,7.6015,7.6015,7.6015,7.6079,7.6133,7.6186,7.6372,7.6552,7.6713,7.678,7.6917,7.7101,7.7101,7.7101,7.7101,7.7101,7.7101,7.7101,7.7101,7.7101,7.7101,7.7101,7.7101,7.7101,7.7101,7.7101,7.7101,7.7101,7.7101,7.7101,7.7101,7.7101,7.7101,7.7101,7.7101,7.7101,7.7101,7.7101,7.7101,7.7101,7.7101,7.7101,7.7101,7.7101,7.7257,7.7648,7.8116,7.9157,8.0898,8.1836,8.2304,8.2304,8.1914,8.1289,8.0429,8.0039,7.9219,7.789,7.789,7.7656,7.7187,7.7187,7.7187,6.0627,6.1589,6.2127,6.232,6.3205,6.4128,6.4512,6.4436,6.4205,0.0,0.0,0.0,0.0,0.0,0.0,0.0,0.0,0.0,0.0,0.0,0.0,0.0,0.0,0.0,0.0,0.0,0.0,0.0,0.0,0.0,0.0,0.0,0.0,0.0,7.6015,7.6015,7.6015,7.6015,7.6015,7.6015,7.6015,7.6015,7.6015,7.6015,7.6015,7.6015,7.6015,7.6015,7.6015,7.6015,7.6015,7.6015,7.6015,7.6015,7.6005,7.6147,7.6458,7.6755,7.6755,7.6897,7.7101,7.7101,7.7101,7.7101,7.7101,7.7101,7.7101,7.7101,7.7101,7.7101,7.7101,7.7101,7.7101,7.7101,7.7101,7.7101,7.7101,7.7101,7.7101,7.7101,7.7101,7.7101,7.7101,7.7101,7.7101,7.7101,7.7101,7.7101,7.7101,7.7101,7.7101,7.7101,7.7101,7.7101,7.7101,7.7893,7.9047,8.0586,8.1523,8.2109,8.2304,8.2304,8.1875,8.1015,8.1015,8.0273,7.8789,7.8789,7.8437,7.7773,7.7773,7.7773,6.1512,6.205,6.2281,6.3051,6.2743,6.2666,6.4243,6.3974,0.0,6.5397,0.0,0.0,0.0,0.0,0.0,0.0,0.0,0.0,0.0,0.0,0.0,0.0,0.0,0.0,0.0,0.0,0.0,0.0,0.0,0.0,0.0,0.0,0.0,0.0,0.0,7.6015,7.6015,7.6015,7.6015,7.6015,7.6015,7.6015,7.6015,7.6015,7.6015,7.6015,7.6015,7.6015,7.6015,7.6015,7.6015,7.6015,7.6015,7.6015,7.6015,7.6005,7.6258,7.6588,7.6588,7.6832,7.7101,7.7101,7.7101,7.7101,7.7101,7.7101,7.7101,7.7101,7.7101,7.7101,7.7101,7.7101,7.7101,7.7101,7.7101,7.7101,7.7101,7.7101,7.7101,7.7101,7.7101,7.7101,7.7101,7.7101,7.7101,7.7101,7.7101,7.7101,7.7101,7.7101,7.7101,7.7101,7.7101,7.714,7.7179,7.792,7.8789,7.9726,8.0625,8.1445,8.2265,8.2304,8.1875,8.1015,8.1015,8.0547,7.9609,7.9609,7.957,7.9531,7.9531,7.9531,6.0973,6.1666,6.2281,6.3089,6.3089,0.0,0.0,6.5974,6.6667,6.7321,6.7898,0.0,0.0,0.0,0.0,0.0,0.0,0.0,0.0,0.0,0.0,0.0,0.0,0.0,0.0,0.0,0.0,0.0,0.0,0.0,0.0,0.0,0.0,0.0,0.0,7.6015,7.6015,7.6015,7.6015,7.6015,7.6015,7.6015,7.6015,7.6015,7.6015,7.6015,7.6015,7.6015,7.6015,7.6015,7.6015,7.6015,7.6015,7.6015,7.6015,7.6015,7.6273,7.6609,7.6609,7.6819,7.7101,7.7101,7.7101,7.7101,7.7101,7.7101,7.7101,7.7101,7.7101,7.7101,7.7101,7.7101,7.7101,7.7101,7.7101,7.7101,7.7101,7.7101,7.7101,7.7101,7.7101,7.7101,7.7101,7.7101,7.7101,7.7101,7.7101,7.7101,7.7101,7.7101,7.7107,7.7087,7.7097,7.7133,7.7185,7.7493,7.8047,7.8906,8.0234,8.1406,8.2265,8.2304,8.2148,8.1797,8.1797,8.1367,8.0508,8.0508,8.0234,7.9687,7.9687,7.9687,6.105,6.1627,6.2281,6.3089,0.0,0.0,6.5897,6.7167,6.8205,6.9013,6.9475,0.0,0.0,0.0,0.0,0.0,0.0,0.0,0.0,0.0,0.0,0.0,0.0,0.0,0.0,0.0,0.0,0.0,0.0,0.0,0.0,0.0,0.0,0.0,0.0,0.0,7.6015,7.6015,7.6015,7.6015,7.6015,7.6015,7.6015,7.6015,7.6015,7.6015,7.6015,7.6015,7.6015,7.6015,7.6015,7.6015,7.6015,7.6015,7.6015,7.6015,7.6224,7.6497,7.6591,7.6794,7.7028,7.7095,7.7101,7.7101,7.7101,7.7101,7.7101,7.7101,7.7101,7.7101,7.7101,7.7101,7.7101,7.7101,7.7101,7.7101,7.7101,7.7101,7.7101,7.7101,7.7335,7.7492,7.7492,7.7726,7.7921,7.7921,7.7921,7.7921,7.7921,7.7921,7.782,7.7532,7.7265,7.7147,7.7208,7.7184,7.7578,7.8437,7.957,8.0703,8.1836,8.2148,8.2304,8.2304,8.2304,8.1992,8.1406,8.1406,8.1094,8.0508,8.0508,8.0508,6.2089,6.2089,6.2281,6.3128,0.0,0.0,6.6744,6.7128,6.7821,7.036,7.0283,6.9706,0.0,0.0,0.0,0.0,0.0,0.0,0.0,0.0,0.0,0.0,0.0,0.0,0.0,0.0,0.0,0.0,0.0,0.0,0.0,0.0,0.0,0.0,0.0,0.0,7.6015,7.6015,7.6015,7.6015,7.6015,7.6015,7.6015,7.6015,7.6015,7.6015,7.6015,7.6015,7.6015,7.6015,7.6015,7.6015,7.6015,7.6015,7.6015,7.6015,7.6133,7.6327,7.6555,7.6684,7.6827,7.7036,7.7101,7.7101,7.7101,7.7101,7.7101,7.7101,7.7101,7.7101,7.7101,7.7101,7.7101,7.7101,7.7101,7.7101,7.7101,7.7101,7.7101,7.7101,7.7804,7.839,7.839,7.9131,7.9717,7.9717,7.9717,7.9717,7.9717,7.9717,7.9387,7.8515,7.7617,7.7148,7.7226,7.7187,7.7578,7.8437,7.8515,7.9258,8.0937,8.1836,8.2304,8.2304,8.2304,8.2304,8.2304,8.2304,8.2304,8.2304,8.2304,8.2304,6.1358,6.205,0.0,6.4012,0.0,0.0,0.0,6.8936,0.0,0.0,7.0706,7.0552,0.0,0.0,0.0,0.0,0.0,0.0,0.0,0.0,0.0,0.0,0.0,0.0,0.0,0.0,0.0,0.0,0.0,0.0,0.0,0.0,0.0,0.0,0.0,0.0,7.6015,7.6015,7.6015,7.6015,7.6015,7.6015,7.6015,7.6015,7.6015,7.6015,7.6015,7.6015,7.6015,7.6015,7.6015,7.6015,7.6015,7.6015,7.6015,7.6015,7.6133,7.6327,7.6555,7.6684,7.6827,7.7036,7.7101,7.7101,7.7101,7.7101,7.7218,7.7843,7.7999,7.8155,7.878,7.8936,7.878,7.8155,7.7999,7.8194,7.8819,7.8936,7.8936,7.8936,7.9131,7.9326,7.9326,7.9522,7.9717,7.9717,7.9717,7.9717,7.9717,7.9717,7.9606,7.9348,7.8511,7.8008,7.8047,7.7539,7.7305,7.7578,7.8164,7.9258,8.0937,8.125,8.1679,8.2304,8.2304,8.2304,8.2304,8.2304,8.2304,8.2304,8.2304,8.2304,6.2281,6.3051,0.0,6.5282,6.659,6.8052,6.9783,0.0,0.0,0.0,0.0,0.0,0.0,0.0,0.0,0.0,0.0,0.0,0.0,0.0,0.0,0.0,0.0,0.0,0.0,0.0,0.0,0.0,0.0,0.0,0.0,0.0,0.0,0.0,0.0,0.0,7.6015,7.6015,7.6015,7.6015,7.6015,7.6015,7.6015,7.6015,7.6015,7.6015,7.6015,7.6015,7.6015,7.6015,7.6015,7.6015,7.6015,7.6015,7.6015,7.6015,7.609,7.6224,7.6517,7.6638,7.6755,7.7028,7.7101,7.7179,7.7492,7.7609,7.7804,7.8663,7.8936,7.9053,7.9561,7.9717,7.9561,7.9053,7.8936,7.9053,7.96,7.9717,7.9717,7.9717,7.999,8.0224,8.0224,8.0498,8.0732,8.0732,8.0732,8.0732,8.0732,8.042,8.0224,8.0224,7.9434,7.8784,7.8437,7.7969,7.7578,7.7226,7.7695,7.8594,7.9961,8.0312,8.0742,8.125,8.1289,8.1289,8.1289,8.1289,8.1445,8.1797,8.1797,8.1953,6.4089,6.4666,0.0,6.6821,6.7936,0.0,7.0552,0.0,0.0,0.0,0.0,0.0,0.0,0.0,0.0,0.0,0.0,0.0,0.0,0.0,0.0,0.0,0.0,0.0,0.0,0.0,0.0,0.0,0.0,0.0,0.0,0.0,0.0,0.0,0.0,0.0,7.6015,7.6015,7.6015,0.0,7.6015,7.6015,7.6015,7.6015,7.6015,7.6015,7.6015,7.6015,7.6015,7.6015,7.6015,7.6015,7.6015,7.6015,7.6015,7.6015,7.6015,7.6062,7.6457,7.6552,7.6638,7.6965,7.7134,7.7375,7.8155,7.8468,7.8702,7.9561,7.9834,7.9834,7.9912,7.9951,7.9951,7.9951,7.9873,7.9834,7.9912,7.9951,7.9951,7.9951,8.0576,8.1122,8.1122,8.1786,8.2293,8.2293,8.2293,8.2293,8.2293,8.1591,8.1122,8.1122,8.0341,7.9504,7.871,7.8554,7.8164,7.7344,7.7226,7.7578,7.8359,7.914,7.9648,7.9687,7.9687,7.9687,7.9687,7.9687,8.0156,8.1015,8.1015,8.1484,6.3666,6.5051,0.0,0.0,6.9244,7.0475,7.0821,0.0,0.0,0.0,0.0,0.0,0.0,0.0,0.0,0.0,0.0,0.0,0.0,0.0,0.0,0.0,0.0,0.0,0.0,0.0,0.0,0.0,0.0,0.0,0.0,0.0,0.0,0.0,0.0,7.6669,7.6015,7.6015,7.6015,0.0,7.6015,7.6015,7.6015,7.6015,7.6015,7.6015,7.6015,7.6015,7.6015,7.6015,7.6015,7.6015,7.6015,7.6015,7.6015,7.6015,7.6015,7.6034,7.6297,7.6477,7.6605,7.6793,7.7441,7.8155,7.835,7.8897,7.96,8.0498,8.0732,8.0888,8.1552,8.1747,8.1747,8.1747,8.1239,8.0927,8.1591,8.1747,8.1747,8.1747,8.1903,8.202,8.202,8.2176,8.2293,8.2293,8.2293,8.2293,8.2293,8.2137,8.202,8.202,8.1239,8.066,8.0475,7.9214,7.8359,7.8164,7.7539,7.7265,7.7461,7.8281,7.9062,7.9687,7.9687,7.9687,7.9687,7.9687,8.0156,8.1015,8.1015,8.1484,6.4205,0.0,0.0,6.909,0.0,7.0898,7.0898,0.0,0.0,0.0,0.0,0.0,0.0,0.0,0.0,0.0,0.0,0.0,0.0,0.0,0.0,0.0,0.0,0.0,0.0,0.0,0.0,0.0,0.0,0.0,0.0,0.0,0.0,0.0,7.7707,7.6861,7.6015,7.6015,7.6015,7.6015,7.6015,7.6015,7.6015,7.6015,7.6015,7.6015,7.6015,7.6015,7.6015,7.6015,7.6015,7.6015,7.6015,7.6015,7.6015,7.6015,7.6015,7.6034,7.6224,7.6669,7.7188,7.7391,7.8165,7.9092,7.9522,7.9951,8.0498,8.1396,8.163,8.1747,8.2176,8.2293,8.2293,8.2293,8.1942,8.1747,8.2215,8.2293,8.2293,8.2293,8.2293,8.2293,8.2293,8.2293,8.2293,8.2293,8.2293,8.2293,8.2293,8.2293,8.2293,8.2293,8.1903,8.1435,8.1044,8.0172,7.948,7.905,7.8237,7.7772,7.7773,7.8203,7.8476,7.8515,7.8515,7.8515,7.8515,7.8515,7.914,8.039,8.039,8.1054,6.4666,0.0,6.7051,7.0129,7.0898,0.0,7.0898,7.0898,0.0,0.0,0.0,0.0,0.0,0.0,0.0,0.0,0.0,0.0,0.0,0.0,0.0,0.0,0.0,0.0,0.0,0.0,0.0,0.0,0.0,0.0,0.0,0.0,7.9631,7.8746,7.7938,7.7092,7.6245,7.6092,7.6015,7.6015,7.6015,7.6092,7.6207,7.6207,7.613,7.6015,7.6015,7.6015,7.6015,7.6015,7.6015,7.6015,7.6015,7.6015,7.6015,7.6015,7.6092,7.6236,7.6405,7.7108,7.799,7.8207,7.9003,8.0009,8.0771,8.1122,8.1356,8.2098,8.2293,8.2293,8.2293,8.2293,8.2293,8.2293,8.2293,8.2293,8.2293,8.2293,8.2293,8.2293,8.2293,8.2293,8.2293,8.2293,8.2293,8.2293,8.2293,8.2293,8.2293,8.2293,8.2293,8.2293,8.2293,8.202,8.1278,8.1083,8.0693,7.999,7.9113,7.8623,7.8631,7.8632,7.832,7.7656,7.7617,7.7617,7.7617,7.7617,7.8437,7.9922,7.9922,8.0781,6.3512,0.0,6.8513,0.0,7.0898,7.0898,0.0,0.0,0.0,0.0,0.0,0.0,0.0,0.0,0.0,0.0,0.0,0.0,0.0,0.0,0.0,0.0,0.0,0.0,0.0,0.0,0.0,0.0,0.0,0.0,0.0,8.0592,8.0516,7.9669,7.8784,7.7938,7.713,7.6361,7.6015,7.6015,7.6015,7.6399,7.713,7.713,7.6707,7.6015,7.6015,7.6015,7.6015,7.6015,7.6015,7.6015,7.6015,7.6015,7.6015,7.6015,7.6476,7.713,7.715,7.7807,7.8673,7.8922,7.9671,8.063,8.0907,8.1513,8.2137,8.2254,8.2293,8.2293,8.2293,8.2293,8.2293,8.2293,8.2293,8.2293,8.2293,8.2293,8.2293,8.2293,8.2293,8.2293,8.2293,8.2293,8.2293,8.2293,8.2293,8.2293,8.2293,8.2293,8.2293,8.2293,8.2293,8.2254,8.2137,8.1435,8.0966,8.0849,7.999,7.9528,7.9533,7.9516,7.9483,7.9366,7.9374,7.9375,7.9375,7.9375,7.9883,8.082,8.082,8.1367,6.4243,6.6551,6.8821,0.0,7.0898,7.0898,7.0898,0.0,0.0,0.0,0.0,0.0,0.0,0.0,0.0,0.0,0.0,0.0,0.0,0.0,0.0,0.0,0.0,0.0,0.0,0.0,0.0,0.0,0.0,0.0,7.9785,8.0631,8.0708,7.9823,7.9438,7.8592,7.7323,7.6899,7.6476,7.6015,7.6515,7.6938,7.7323,7.7746,7.7746,7.74,7.74,7.74,7.74,7.74,7.74,7.74,7.74,7.74,7.74,7.74,7.763,7.7977,7.7977,7.864,7.9579,7.9777,8.0536,8.1466,8.1687,8.1981,8.2293,8.2293,8.2293,8.2293,8.2293,8.2293,8.2293,8.2293,8.2293,8.2293,8.2293,8.2293,8.2293,8.2293,8.2293,8.2293,8.2293,8.2293,8.2293,8.2293,8.2293,8.2293,8.2293,8.2293,8.2293,8.2293,8.2293,8.2293,8.2293,8.1942,8.1747,8.1747,8.0927,8.042,8.042,8.0431,8.0436,8.0436,7.9958,7.9687,7.9687,7.9687,8.0156,8.1015,8.1015,8.1484,0.0,0.0,6.7898,6.9783,7.0437,7.0667,0.0,0.0,0.0,0.0,0.0,0.0,0.0,0.0,0.0,0.0,0.0,0.0,0.0,0.0,0.0,0.0,0.0,0.0,0.0,0.0,0.0,0.0,0.0,0.0,7.9438,8.0285,8.0554,8.0131,7.9939,7.9208,7.7938,7.7515,7.6861,7.6015,7.6861,7.74,7.763,7.8438,7.8938,7.9131,7.8669,7.8477,7.8477,7.8477,7.8477,7.8477,7.8477,7.8477,7.8477,7.8477,7.8631,7.8823,7.8823,7.9471,8.0409,8.0588,8.1208,8.1961,8.2162,8.228,8.2293,8.2293,8.2293,8.2293,8.2293,8.2293,8.2293,8.2293,8.2293,8.2293,8.2293,8.2293,8.2293,8.2293,8.2293,8.2293,8.2293,8.2293,8.2293,8.2293,8.2293,8.2293,8.2293,8.2293,8.2293,8.2293,8.2293,8.2293,8.2293,8.2293,8.2293,8.2293,8.1708,8.1317,8.1317,8.1317,8.1317,8.1317,8.0691,8.035,8.0351,8.0351,8.0703,8.1328,8.1328,8.1679,0.0,6.4089,0.0,6.7898,6.9167,0.0,0.0,0.0,0.0,0.0,0.0,0.0,0.0,0.0,0.0,0.0,0.0,0.0,0.0,0.0,0.0,0.0,0.0,0.0,0.0,0.0,0.0,0.0,0.0,0.0,7.8515,7.94,8.0246,8.1016,8.0246,7.9746,7.9669,7.8092,7.6861,7.6015,7.6861,7.7707,7.8477,7.9323,8.0169,8.0862,7.9208,7.8477,7.8477,7.8477,7.8477,7.8477,7.8477,7.8477,7.8477,7.8477,7.9015,7.9746,7.9746,8.0285,8.1107,8.1298,8.1497,8.1753,8.1961,8.2153,8.2293,8.2293,8.2293,8.2293,8.2293,8.2293,8.2293,8.2293,8.2293,8.2293,8.2293,8.2293,8.2293,8.2293,8.2293,8.2293,8.2293,8.2293,8.2293,8.2293,8.2293,8.2293,8.2293,8.2293,8.2293,8.2293,8.2293,8.2293,8.2293,8.2293,8.2293,8.2293,8.2254,8.2215,8.2215,8.2215,8.2215,8.2215,8.2176,8.2168,8.2148,8.2148,8.2187,8.2226,8.2226,8.2265,0.0,0.0,0.0,6.6282,6.7859,6.8936,0.0,0.0,0.0,0.0,0.0,0.0,0.0,0.0,0.0,0.0,0.0,0.0,0.0,0.0,0.0,0.0,0.0,0.0,0.0,0.0,0.0,0.0,0.0,0.0,7.7707,7.9054,7.9939,8.0246,8.0516,8.0092,7.8977,7.7861,7.6861,7.6015,7.74,7.8207,7.8554,7.9977,8.0785,8.1054,8.0439,8.0169,8.0169,8.0169,8.0169,8.0169,8.0169,8.0169,8.0169,8.0169,8.0362,8.0631,8.0631,8.0823,8.1154,8.135,8.1514,8.1735,8.1948,8.2153,8.2293,8.2293,8.2293,8.2293,8.2293,8.2293,8.2293,8.2293,8.2293,8.2293,8.2293,8.2293,8.2293,8.2293,8.2293,8.2293,8.2293,8.2293,8.2293,8.2293,8.2293,8.2293,8.2293,8.2293,8.2293,8.2293,8.2293,8.2293,8.2293,8.2293,8.2293,8.2293,8.2293,8.2293,8.2293,8.2293,8.2293,8.2293,8.2293,8.2315,8.23,8.2304,8.2304,8.2304,8.2304,8.2304,6.1935,0.0,0.0,0.0,6.632,6.7436,6.859,0.0,0.0,0.0,0.0,0.0,0.0,0.0,0.0,0.0,0.0,0.0,0.0,0.0,0.0,0.0,0.0,0.0,0.0,0.0,0.0,0.0,0.0,0.0,7.7284,7.8361,7.9208,7.9785,8.0669,8.04,7.8938,7.813,7.7284,7.6438,7.7553,7.8092,7.8169,7.9862,8.0669,8.0669,8.0977,8.1093,8.1093,8.1093,8.1093,8.1093,8.1093,8.1093,8.1093,8.1093,8.1093,8.1093,8.1093,8.1093,8.1124,8.1253,8.1484,8.1717,8.1851,8.2084,8.2293,8.2293,8.2293,8.2293,8.2293,8.2293,8.2293,8.2293,8.2293,8.2293,8.2293,8.2293,8.2293,8.2293,8.2293,8.2293,8.2293,8.2293,8.2293,8.2293,8.2293,8.2293,8.2293,8.2293,8.2293,8.2293,8.2293,8.2293,8.2293,8.2293,8.2293,8.2293,8.2293,8.2293,8.2293,8.2293,8.2293,8.2293,8.2293,8.2305,8.2281,8.2303,8.2304,8.2304,8.2304,8.2304,0.0,0.0,0.0,0.0,0.0,0.0,6.8744,0.0,0.0,0.0,0.0,0.0,0.0,0.0,0.0,0.0,0.0,0.0,0.0,0.0,0.0,0.0,0.0,0.0,0.0,0.0,0.0,0.0,0.0,7.6361,7.7207,7.7284,7.8054,7.9746,8.0631,8.0669,7.9823,7.8938,7.8092,7.7284,7.7284,7.7284,7.7361,7.9015,7.9746,7.9823,8.0669,8.1054,8.1054,8.1093,8.1093,8.1093,8.1093,8.1093,8.1093,8.1093,8.1093,8.1093,8.1093,8.1093,8.1093,8.1093,8.1401,8.1698,8.1698,8.1974,8.2293,8.2293,8.2293,8.2293,8.2293,8.2293,8.2293,8.2293,8.2293,8.2293,8.2293,8.2293,8.2293,8.2293,8.2293,8.2293,8.2293,8.2293,8.2293,8.2293,8.2293,8.2293,8.2293,8.2293,8.2293,8.2293,8.2293,8.2293,8.2293,8.2293,8.2293,8.2293,8.2293,8.2293,8.2293,8.2293,8.2293,8.2293,8.2293,8.2293,8.2293,8.2297,8.2304,8.2304,8.2304,8.2304,6.1247,0.0,0.0,0.0,0.0,0.0,6.4859,6.6821,0.0,0.0,0.0,0.0,0.0,0.0,0.0,0.0,0.0,0.0,0.0,0.0,0.0,0.0,0.0,0.0,0.0,0.0,0.0,0.0,7.6015,7.6092,7.6361,7.6938,7.8054,7.9746,8.0054,8.0054,7.9823,7.8938,7.8092,7.7284,7.7284,7.7284,7.7323,7.8361,7.8861,7.89,7.9785,8.0169,8.0208,8.0823,8.1093,8.1093,8.1093,8.1093,8.1093,8.1093,8.1093,8.1093,8.1093,8.1093,8.1124,8.128,8.1507,8.1717,8.1851,8.2084,8.2293,8.2293,8.2293,8.2293,8.2293,8.2293,8.2293,8.2293,8.2293,8.2293,8.2293,8.2293,8.2293,8.2293,8.2293,8.2293,8.2293,8.2293,8.2293,8.2293,8.2293,8.2293,8.2293,8.2293,8.2293,8.2293,8.2293,8.2293,8.2293,8.2293,8.2293,8.2293,8.2293,8.2293,8.2293,8.2293,8.2293,8.2293,8.2293,8.2293,8.2293,8.231,8.2292,8.2304,8.2304,8.2304,6.1722,6.1925,6.1973,0.0,0.0,0.0,6.4551,6.6141,6.7718,0.0,0.0,0.0,0.0,0.0,0.0,0.0,0.0,0.0,0.0,0.0,0.0,0.0,0.0,0.0,0.0,0.0,0.0,0.0,7.6015,7.6015,7.6015,7.6823,7.7746,7.8746,7.9438,7.9823,7.9823,7.9285,7.8823,7.8323,7.763,7.7284,7.7323,7.7784,7.7977,7.8054,7.89,7.9246,7.9285,7.9823,8.0439,8.1093,8.1093,8.1093,8.1093,8.1093,8.1093,8.1093,8.1093,8.1093,8.1124,8.1224,8.1412,8.16,8.1804,8.2038,8.2171,8.2287,8.2293,8.2293,8.2293,8.2293,8.2293,8.2293,8.2293,8.2293,8.2293,8.2293,8.2293,8.2293,8.2293,8.2293,8.2293,8.2293,8.2293,8.2293,8.2293,8.2293,8.2293,8.2293,8.2293,8.2293,8.2293,8.2293,8.2293,8.2293,8.2293,8.2293,8.2293,8.2293,8.2293,8.2293,8.2293,8.2293,8.1942,8.1591,8.1239,8.1942,8.2281,8.2304,8.2304,8.2304,6.2273,6.2746,6.3295,0.0,0.0,0.0,6.5872,6.6154,6.6665,0.0,0.0,0.0,0.0,0.0,0.0,0.0,0.0,0.0,0.0,0.0,0.0,0.0,0.0,0.0,0.0,7.5361,7.5899,7.5976,7.6015,7.6015,7.6015,7.6746,7.7207,7.7284,7.8746,7.9592,7.9669,7.9669,7.9669,7.9631,7.813,7.74,7.7284,7.7284,7.7246,7.7207,7.8015,7.8361,7.8361,7.8438,7.94,8.0823,8.0823,8.0862,8.0977,8.0977,8.1016,8.1093,8.1093,8.1093,8.1093,8.1124,8.1253,8.1437,8.166,8.1851,8.205,8.2234,8.2293,8.2293,8.2293,8.2293,8.2293,8.2293,8.2293,8.2293,8.2293,8.2293,8.2293,8.2293,8.2293,8.2293,8.2293,8.2293,8.2293,8.2293,8.2293,8.2293,8.2293,8.2293,8.2293,8.2293,8.2293,8.2293,8.2293,8.2293,8.2293,8.2293,8.2293,8.2254,8.2176,8.2176,8.2098,8.202,8.1239,8.0459,7.9717,8.1278,8.2007,8.1991,8.1992,8.207,0.0,0.0,0.0,0.0,0.0,0.0,6.299,6.4449,6.6012,0.0,0.0,0.0,0.0,0.0,0.0,0.0,0.0,0.0,0.0,0.0,0.0,0.0,0.0,0.0,0.0,7.4476,7.5245,7.5938,7.6015,7.6015,7.6015,7.6169,7.6592,7.7284,7.763,7.8092,7.8746,7.8746,7.8746,7.8746,7.84,7.7938,7.7284,7.7284,7.6899,7.6284,7.7169,7.7515,7.7592,7.8207,7.8707,7.9015,7.9015,7.9438,8.0054,8.0054,8.0516,8.1093,8.1093,8.1093,8.1124,8.1269,8.1375,8.1484,8.182,8.1974,8.205,8.2234,8.2293,8.2293,8.2293,8.2293,8.2293,8.2293,8.2293,8.2293,8.2293,8.2293,8.2293,8.2293,8.2293,8.2293,8.2293,8.2293,8.2293,8.2293,8.2293,8.2293,8.2293,8.2293,8.2293,8.2293,8.2293,8.2293,8.2293,8.2293,8.2293,8.2293,8.2293,8.1981,8.1278,8.1239,8.0927,8.0224,8.0029,7.9873,7.9717,8.0029,8.023,8.0202,8.0192,8.0586,0.0,0.0,0.0,6.3844,0.0,0.0,0.0,6.478,6.5959,0.0,0.0,0.0,0.0,0.0,0.0,0.0,0.0,0.0,0.0,0.0,0.0,0.0,0.0,0.0,0.0,7.363,7.4437,7.5284,7.5745,7.6015,7.6015,7.6015,7.6207,7.663,7.7053,7.7476,7.79,7.8284,7.8707,7.9131,7.8707,7.8515,7.8515,7.7669,7.7053,7.663,7.663,7.663,7.6669,7.7092,7.7246,7.7323,7.8169,7.8746,7.9131,7.9131,7.9438,7.9785,7.9785,8.0092,8.0469,8.0579,8.0975,8.1461,8.1753,8.1987,8.2162,8.228,8.2293,8.2293,8.2293,8.2293,8.2293,8.2293,8.2293,8.2293,8.2293,8.2293,8.2293,8.2293,8.2293,8.2293,8.2293,8.2293,8.2293,8.2293,8.2293,8.2293,8.2293,8.2293,8.2293,8.2293,8.2293,8.2293,8.2293,8.1903,8.1669,8.1669,8.1239,8.081,8.0381,8.0341,7.9951,7.9053,7.9053,7.8858,7.839,7.839,7.8864,7.9699,7.9707,7.9917,0.0,0.0,0.0,0.0,0.0,6.4575,0.0,0.0,0.0,0.0,0.0,0.0,0.0,0.0,0.0,0.0,0.0,0.0,0.0,0.0,0.0,0.0,0.0,0.0,0.0,7.2745,7.3668,7.463,7.5207,7.5668,7.5976,7.6015,7.6015,7.6015,7.6669,7.7053,7.7053,7.7861,7.8631,7.9323,7.8746,7.8861,7.9515,7.813,7.7515,7.7476,7.663,7.6245,7.6245,7.6053,7.6015,7.613,7.7476,7.813,7.8246,7.8246,7.8361,7.8477,7.8477,7.8977,7.9554,7.9554,8.0316,8.1236,8.1465,8.1882,8.2293,8.2293,8.2293,8.2293,8.2293,8.2293,8.2293,8.2293,8.2293,8.2293,8.2293,8.2293,8.2293,8.2293,8.2293,8.2293,8.2293,8.2293,8.2293,8.2293,8.2293,8.2293,8.2293,8.2293,8.2293,8.2293,8.2137,8.2059,8.2059,8.1239,8.0732,8.0732,8.0107,7.9639,7.9444,7.9287,7.8858,7.8155,7.8155,7.7804,7.7101,7.7101,7.782,7.9207,7.9191,7.932,0.0,0.0,0.0,0.0,6.4756,0.0,0.0,0.0,0.0,0.0,0.0,0.0,0.0,0.0,0.0,0.0,0.0,0.0,0.0,0.0,0.0,0.0,0.0,0.0,0.0,0.0,7.3014,7.4591,7.413,7.4437,7.5938,7.6015,7.6015,7.6015,7.6092,7.613,7.613,7.7015,7.7476,7.7592,7.8207,7.8554,7.8631,7.8438,7.8361,7.8323,7.7476,7.713,7.7092,7.6322,7.6015,7.6015,7.6207,7.6746,7.7438,7.7438,7.79,7.8477,7.8477,7.8554,7.8631,7.8631,7.9481,8.0533,8.0752,8.1509,8.2293,8.2293,8.2293,8.2293,8.2293,8.2293,8.2293,8.2293,8.2293,8.2293,8.2293,8.2293,8.2293,8.2293,8.2293,8.2293,8.2293,8.2293,8.2293,8.2293,8.2293,8.2293,8.2293,8.2293,8.2293,8.2293,8.1591,8.1161,8.1161,8.0341,7.9834,7.9834,7.9756,7.9366,7.8585,7.7804,7.7335,7.7257,7.7257,7.7218,7.7101,7.7101,7.7195,7.741,7.7458,7.789,0.0,0.0,0.0,0.0,0.0,0.0,0.0,0.0,6.3848,0.0,0.0,0.0,0.0,0.0,0.0,0.0,0.0,0.0,0.0,0.0,0.0,0.0,0.0,0.0,0.0,0.0,0.0,0.0,0.0,7.4707,7.5938,7.6015,7.6015,7.6015,7.6015,7.6015,7.6015,7.6361,7.6784,7.7284,7.763,7.8054,7.8477,7.8477,7.8477,7.8477,7.813,7.7977,7.7977,7.7592,7.7169,7.6746,7.6746,7.6669,7.6553,7.6553,7.6746,7.7053,7.7053,7.7361,7.792,7.8617,7.9541,8.047,8.0786,8.1524,8.2293,8.2293,8.2293,8.2293,8.2293,8.2293,8.2293,8.2293,8.2293,8.2293,8.2293,8.2293,8.2137,8.163,8.1552,8.1396,8.0888,8.163,8.2293,8.2293,8.2293,8.2137,8.1591,8.1552,8.1356,8.0849,8.0459,8.0263,8.0263,7.9444,7.8936,7.8936,7.8468,7.8038,7.7648,7.7296,7.7101,7.7101,7.7101,7.7101,7.7101,7.7117,7.7122,7.7161,7.7184,7.7383,6.7133,0.0,0.0,0.0,0.0,0.0,0.0,0.0,0.0,0.0,0.0,0.0,0.0,0.0,0.0,0.0,0.0,0.0,0.0,0.0,0.0,0.0,0.0,0.0,0.0,0.0,0.0,0.0,0.0,0.0,7.5592,7.5861,7.6015,7.6015,7.6015,7.6015,7.6015,7.6015,7.6322,7.6938,7.6938,7.7361,7.8169,7.8169,7.8284,7.8477,7.8246,7.8284,7.8477,7.8246,7.7938,7.763,7.763,7.7246,7.663,7.6169,7.6015,7.6015,7.6015,7.6399,7.7102,7.8043,7.8942,7.9787,8.0378,8.1226,8.1981,8.2215,8.2293,8.2293,8.2293,8.2293,8.2254,8.1981,8.1942,8.1864,8.163,8.1591,8.1396,8.0771,8.0654,8.0459,7.9795,8.0732,8.1591,8.1591,8.1591,8.1356,8.0732,8.0654,8.0381,7.9756,7.9483,7.9326,7.9326,7.8546,7.8038,7.8038,7.7453,7.7101,7.7101,7.7101,7.7101,7.7101,7.7101,7.7101,7.7101,7.7083,7.7122,7.7179,7.7183,7.7187,0.0,0.0,0.0,6.5261,0.0,0.0,0.0,0.0,6.3197,0.0,0.0,0.0,0.0,0.0,6.5446,6.5542,0.0,0.0,0.0,0.0,0.0,0.0,0.0,0.0,0.0,0.0,0.0,0.0,0.0,0.0,7.4668,7.5553,7.6015,7.6015,7.6015,7.6015,7.6015,7.6015,7.6015,7.6053,7.6053,7.6515,7.7323,7.7323,7.7746,7.8438,7.7669,7.7784,7.8438,7.7669,7.7784,7.8438,7.8438,7.8438,7.8207,7.6592,7.6015,7.6015,7.6015,7.6015,7.6072,7.6326,7.7077,7.8098,7.9118,8.0202,8.12,8.2059,8.2293,8.2293,8.2293,8.2293,8.2098,8.1239,8.1044,8.081,7.9951,7.9795,7.9795,7.9756,7.9756,7.9717,7.9717,7.9756,7.9795,7.9795,7.9795,7.9756,7.9756,7.9756,7.9717,7.9717,7.8936,7.8429,7.8429,7.7648,7.714,7.714,7.7101,7.7101,7.7101,7.7101,7.7101,7.7101,7.7101,7.7101,7.7101,7.7101,7.714,7.7179,7.7183,7.7187,0.0,0.0,6.9005,6.6483,0.0,0.0,0.0,0.0,0.0,0.0,0.0,0.0,0.0,0.0,6.467,6.4661,6.4661,6.4307,0.0,0.0,0.0,0.0,0.0,0.0,0.0,0.0,0.0,0.0,0.0,0.0,0.0,7.4976,7.5399,7.5976,7.6015,7.6015,7.6015,7.6015,7.6015,7.6015,7.6015,7.613,7.6476,7.7053,7.7438,7.7707,7.7977,7.8246,7.8477,7.8207,7.7938,7.7707,7.7707,7.7361,7.6899,7.7438,7.7323,7.6784,7.6207,7.6015,7.6034,7.6248,7.7,7.7887,7.8404,7.9305,8.0185,8.0498,8.0576,8.0576,8.0576,8.0576,8.0498,8.0224,8.0146,8.0068,7.9756,7.9717,7.9522,7.8936,7.8858,7.8663,7.8077,7.7999,7.839,7.9522,7.9717,7.9483,7.8897,7.8858,7.8624,7.8038,7.7726,7.7531,7.7531,7.7257,7.7101,7.7101,7.7101,7.7101,7.7101,7.7101,7.7101,7.7101,7.7101,7.7101,7.7101,7.7112,7.7112,7.7218,7.72,7.7217,6.912,6.9425,0.0,0.0,6.6942,0.0,6.4305,0.0,0.0,0.0,0.0,0.0,0.0,0.0,6.4726,6.5031,6.484,6.4029,0.0,6.2336,0.0,0.0,0.0,0.0,0.0,0.0,0.0,0.0,0.0,0.0,0.0,0.0,7.4976,7.5515,7.5822,7.6015,7.6015,7.6015,7.6015,7.6015,7.6015,7.6015,7.6015,7.6592,7.6823,7.6861,7.74,7.7784,7.8054,7.8054,7.7938,7.7707,7.7707,7.7361,7.6938,7.7438,7.7284,7.6746,7.6207,7.6015,7.6005,7.616,7.6721,7.746,7.7881,7.8574,7.9444,8.0341,8.0185,7.9834,8.0459,8.0146,7.9639,7.9326,7.9248,7.9131,7.8858,7.878,7.8624,7.8038,7.7921,7.7765,7.7218,7.7101,7.7492,7.8624,7.878,7.8585,7.7999,7.7921,7.7726,7.7179,7.7101,7.7101,7.7101,7.7101,7.7101,7.7101,7.7101,7.7101,7.7101,7.7101,7.7257,7.757,7.7263,7.7263,7.757,7.7229,7.7112,7.7179,7.7179,7.72]},{"header":{"parameterUnit":"m.s-1","parameterCategory":1,"la1":30.6,"la2":29.2853,"lo1":-89.7004,"lo2":-87.6739,"dy":0.0162,"dx":0.0183,"nx":112,"ny":82,"refTime":"2024-03-13T18:00:00:Z","depth":0,"parameterNumber":3,"parameterNumberName":"V-component_of_WINDS"},"data":[0.0,0.0,0.0,0.0,0.0,0.0,0.0,0.0,0.0,0.0,0.0,0.0,0.0,0.0,0.0,0.0,0.0,0.0,0.0,0.0,0.0,0.0,0.0,0.0,0.0,0.0,0.0,0.0,0.0,0.0,0.0,0.0,0.0,0.0,0.0,0.0,0.0,0.0,0.0,0.0,0.0,0.0,0.0,0.0,0.0,0.0,0.0,0.0,0.0,0.0,0.0,0.0,0.0,0.0,0.0,0.0,0.0,0.0,0.0,0.0,0.0,0.0,0.0,0.0,0.0,0.0,0.0,0.0,0.0,0.0,0.0,0.0,0.0,0.0,0.0,0.0,0.0,0.0,0.0,0.0,0.0,0.0,0.0,0.0,0.0,0.0,0.0,0.0,0.0,0.0,0.0,-0.7834,-0.7933,-0.7872,-0.7872,-0.7872,-0.79,-0.792,0.0,0.0,0.0,0.0,0.0,0.0,0.0,0.0,0.0,0.0,0.0,0.0,0.0,0.0,0.0,0.0,0.0,0.0,0.0,0.0,0.0,0.0,0.0,0.0,0.0,0.0,0.0,0.0,0.0,0.0,0.0,0.0,0.0,0.0,0.0,0.0,0.0,0.0,0.0,0.0,0.0,0.0,0.0,0.0,0.0,0.0,0.0,0.0,0.0,0.0,0.0,0.0,0.0,0.0,0.0,0.0,0.0,0.0,0.0,0.0,0.0,0.0,0.0,0.0,0.0,0.0,0.0,0.0,0.0,0.0,0.0,0.0,0.0,0.0,0.0,0.0,0.0,0.0,0.0,0.0,0.0,0.0,0.0,0.0,0.0,0.0,0.0,0.0,0.0,0.0,0.0,0.0,0.0,0.0,0.0,0.0,0.0,0.0,0.0,0.0,0.0,0.0,0.0,0.0,-0.7846,-0.7933,-0.7861,-0.7872,-0.7872,-0.7872,-0.7939,-0.7926,0.0,0.0,0.0,0.0,0.0,0.0,0.0,0.0,0.0,0.0,0.0,0.0,0.0,0.0,0.0,0.0,0.0,0.0,0.0,0.0,0.0,0.0,0.0,0.0,0.0,0.0,0.0,0.0,0.0,0.0,0.0,0.0,0.0,0.0,0.0,0.0,0.0,0.0,0.0,0.0,0.0,0.0,0.0,0.0,0.0,0.0,0.0,0.0,0.0,0.0,0.0,0.0,0.0,0.0,0.0,0.0,0.0,0.0,0.0,0.0,0.0,0.0,0.0,0.0,0.0,0.0,0.0,0.0,0.0,0.0,0.0,0.0,0.0,0.0,0.0,0.0,0.0,0.0,0.0,0.0,0.0,0.0,0.0,0.0,0.0,0.0,0.0,0.0,0.0,0.0,0.0,0.0,0.0,0.0,0.0,0.0,0.0,0.0,0.0,0.0,0.0,0.0,0.0,-0.7939,-0.7886,-0.7937,-0.7846,-0.7873,-0.7937,-0.7942,-0.7841,-0.784,-0.7649,0.0,0.0,0.0,0.0,0.0,0.0,0.0,0.0,0.0,0.0,0.0,0.0,0.0,0.0,0.0,0.0,0.0,0.0,0.0,0.0,0.0,0.0,0.0,0.0,0.0,0.0,0.0,0.0,0.0,0.0,0.0,0.0,0.0,0.0,0.0,0.0,0.0,0.0,0.0,0.0,0.0,0.0,0.0,0.0,0.0,0.0,0.0,0.0,0.0,0.0,0.0,0.0,0.0,0.0,0.0,0.0,0.0,0.0,0.0,0.0,0.0,0.0,0.0,0.0,0.0,0.0,0.0,0.0,0.0,0.0,0.0,0.0,0.0,0.0,0.0,0.0,0.0,0.0,0.0,0.0,0.0,0.0,0.0,0.0,0.0,0.0,0.0,0.0,0.0,0.0,0.0,0.0,0.0,0.0,0.0,0.0,0.0,0.0,0.0,0.0,0.0,0.0,-0.7774,-0.7899,-0.7948,-0.7969,-0.8007,-0.8098,-0.8103,-0.8095,-0.801,-0.7475,0.0,0.0,0.0,0.0,0.0,0.0,0.0,0.0,0.0,0.0,0.0,0.0,0.0,0.0,0.0,0.0,0.0,0.0,0.0,0.0,0.0,0.0,0.0,0.0,0.0,0.0,0.0,0.0,0.0,0.0,0.0,0.0,0.0,0.0,0.0,0.0,0.0,0.0,0.0,0.0,0.0,0.0,0.0,0.0,0.0,0.0,0.0,0.0,0.0,0.0,0.0,0.0,0.0,0.0,0.0,0.0,0.0,0.0,0.0,0.0,0.0,0.0,0.0,0.0,0.0,0.0,0.0,0.0,0.0,0.0,0.0,0.0,0.0,0.0,0.0,0.0,0.0,0.0,0.0,0.0,0.0,0.0,0.0,0.0,0.0,0.0,0.0,0.0,0.0,0.0,0.0,0.0,0.0,0.0,0.0,0.0,0.0,0.0,0.0,0.0,0.0,0.0,-0.7614,-0.7944,-0.7959,-0.8353,-0.8486,-0.8497,-0.8497,-0.8517,-0.85,-0.7758,0.0,0.0,0.0,0.0,0.0,0.0,0.0,0.0,0.0,0.0,0.0,0.0,0.0,0.0,0.0,0.0,0.0,0.0,0.0,0.0,0.0,0.0,0.0,0.0,0.0,0.0,0.0,0.0,0.0,0.0,0.0,0.0,0.0,0.0,0.0,0.0,0.0,0.0,0.0,0.0,0.0,0.0,0.0,0.0,0.0,0.0,0.0,0.0,0.0,0.0,0.0,0.0,0.0,0.0,0.0,0.0,0.0,0.0,0.0,0.0,0.0,0.0,0.0,0.0,0.0,0.0,0.0,0.0,0.0,0.0,0.0,0.0,0.0,0.0,0.0,0.0,0.0,0.0,0.0,0.0,0.0,0.0,0.0,0.0,0.0,0.0,0.0,0.0,0.0,0.0,0.0,0.0,0.0,0.0,0.0,0.0,0.0,0.0,0.0,0.0,0.0,0.0,-0.8245,-0.8309,0.0,-0.848,-0.8643,-0.8585,-0.859,-0.8582,-0.8635,0.0,0.0,0.0,0.0,0.0,0.0,0.0,0.0,0.0,0.0,0.0,0.0,0.0,0.0,0.0,0.0,0.0,0.0,0.0,0.0,0.0,0.0,0.0,0.0,0.0,0.0,0.0,0.0,0.0,0.0,0.0,0.0,0.0,0.0,0.0,0.0,0.0,0.0,0.0,0.0,0.0,0.0,0.0,0.0,0.0,0.0,0.0,0.0,0.0,0.0,0.0,0.0,0.0,0.0,0.0,0.0,0.0,0.0,0.0,0.0,0.0,0.0,0.0,0.0,0.0,0.0,0.0,0.0,0.0,0.0,0.0,0.0,0.0,0.0,0.0,0.0,0.0,0.0,0.0,0.0,0.0,0.0,0.0,0.0,0.0,0.0,0.0,0.0,0.0,0.0,0.0,0.0,0.0,0.0,0.0,0.0,0.0,0.0,0.0,0.0,0.0,0.0,-0.8512,-0.8614,-0.8548,0.0,-0.8607,-0.8635,-0.8579,-0.859,-0.8568,-0.8586,0.0,0.0,0.0,0.0,0.0,0.0,0.0,0.0,0.0,0.0,0.0,0.0,0.0,0.0,0.0,0.0,0.0,0.0,0.0,0.0,0.0,0.0,0.0,0.0,0.0,0.0,0.0,0.0,0.0,0.0,0.0,0.0,0.0,0.0,0.0,0.0,0.0,0.0,0.0,0.0,0.0,0.0,0.0,0.0,0.0,0.0,0.0,0.0,0.0,0.0,0.0,0.0,0.0,0.0,0.0,0.0,0.0,0.0,0.0,0.0,0.0,0.0,0.0,0.0,0.0,0.0,0.0,0.0,0.0,0.0,0.0,0.0,0.0,0.0,0.0,0.0,0.0,0.0,0.0,0.0,0.0,0.0,0.0,0.0,0.0,0.0,0.0,0.0,0.0,0.0,0.0,0.0,0.0,0.0,0.0,0.0,0.0,0.0,0.0,0.0,0.0,0.0,-0.8534,-0.8632,-0.859,-0.859,-0.859,-0.859,-0.859,-0.859,-0.8568,0.0,0.0,0.0,0.0,0.0,0.0,0.0,0.0,0.0,0.0,0.0,0.0,0.0,0.0,0.0,0.0,0.0,0.0,0.0,0.0,0.0,0.0,0.0,0.0,0.0,0.0,0.0,0.0,0.0,0.0,0.0,0.0,0.0,0.0,0.0,0.0,0.0,0.0,0.0,0.0,0.0,0.0,0.0,0.0,0.0,0.0,0.0,0.0,0.0,0.0,0.0,0.0,0.0,0.0,0.0,0.0,0.0,0.0,0.0,0.0,0.0,0.0,0.0,0.0,0.0,0.0,0.0,0.0,0.0,0.0,0.0,0.0,0.0,0.0,0.0,0.0,0.0,0.0,0.0,0.0,0.0,0.0,0.0,0.0,0.0,0.0,0.0,0.0,0.0,0.0,0.0,0.0,0.0,0.0,0.0,0.0,0.0,0.0,0.0,0.0,0.0,0.0,0.0,-0.854,-0.8552,-0.859,-0.859,-0.859,-0.859,-0.859,-0.859,-0.8568,-0.8586,0.0,0.0,0.0,0.0,0.0,0.0,0.0,0.0,0.0,0.0,0.0,0.0,0.0,0.0,0.0,0.0,0.0,0.0,0.0,0.0,0.0,0.0,0.0,0.0,0.0,0.0,0.0,0.0,0.0,0.0,0.0,0.0,0.0,0.0,0.0,0.0,0.0,0.0,0.0,0.0,0.0,0.0,0.0,0.0,0.0,0.0,0.0,0.0,0.0,0.0,0.0,0.0,0.0,0.0,0.0,0.0,0.0,0.0,0.0,0.0,0.0,0.0,0.0,0.0,0.0,0.0,0.0,0.0,0.0,0.0,0.0,0.0,0.0,0.0,0.0,0.0,0.0,0.0,0.0,0.0,0.0,0.0,0.0,0.0,0.0,0.0,0.0,0.0,0.0,0.0,0.0,0.0,0.0,0.0,0.0,0.0,0.0,0.0,0.0,0.0,0.0,0.0,-0.8591,-0.8574,-0.859,-0.859,-0.859,-0.859,-0.859,-0.859,-0.859,-0.8661,0.0,0.0,0.0,0.0,0.0,0.0,0.0,0.0,0.0,0.0,0.0,0.0,0.0,0.0,0.0,0.0,0.0,0.0,0.0,0.0,0.0,0.0,0.0,0.0,0.0,0.0,0.0,0.0,0.0,0.0,0.0,0.0,0.0,0.0,0.0,0.0,0.0,0.0,0.0,0.0,0.0,0.0,0.0,0.0,0.0,0.0,0.0,0.0,0.0,0.0,0.0,0.0,0.0,0.0,0.0,0.0,0.0,0.0,0.0,0.0,0.0,0.0,0.0,0.0,0.0,0.0,0.0,0.0,0.0,0.0,0.0,0.0,0.0,0.0,0.0,0.0,0.0,0.0,0.0,0.0,0.0,0.0,0.0,0.0,0.0,0.0,0.0,0.0,0.0,0.0,0.0,0.0,0.0,0.0,0.0,0.0,0.0,0.0,0.0,0.0,0.0,0.0,-0.8591,-0.8574,-0.859,-0.859,-0.859,-0.859,-0.859,-0.859,-0.8618,-0.8642,0.0,0.0,0.0,0.0,0.0,0.0,0.0,0.0,0.0,0.0,0.0,0.0,0.0,0.0,0.0,0.0,0.0,0.0,0.0,0.0,0.0,0.0,0.0,0.0,0.0,0.0,0.0,0.0,0.0,0.0,0.0,0.0,0.0,0.0,0.0,0.0,0.0,0.0,0.0,0.0,0.0,0.0,0.0,0.0,0.0,0.0,0.0,0.0,0.0,0.0,0.0,0.0,0.0,0.0,0.0,0.0,0.0,0.0,0.0,0.0,0.1231,0.0,0.0,0.0,0.0,0.0,0.0,0.0,0.0,0.0,0.0,0.0,0.0,0.0,0.0,0.0,0.0,0.0,0.0,0.0,0.0,0.0,0.0,0.0,0.0,0.0,0.0,0.0,0.0,0.0,0.0,0.0,0.0,0.0,0.0,0.0,0.0,0.0,0.0,0.0,0.0,0.0,-0.8591,-0.8574,-0.859,-0.859,-0.859,-0.859,-0.859,-0.859,-0.8618,-0.8642,0.0,0.0,0.0,0.0,0.0,0.0,0.0,0.0,0.0,0.0,0.0,0.0,0.0,0.0,0.0,0.0,0.0,0.0,0.0,0.0,0.0,0.0,0.0,0.0,0.0,0.0,0.0,0.0,0.0,0.0,0.0,0.0,0.0,0.0,0.0,0.0,0.0,0.0,0.0,0.0,0.0,0.0,0.0,0.0,0.0,0.0,0.0,0.0,0.0,0.0,0.0,0.0,0.0,0.0,0.0,0.0,0.0,0.0,0.0,0.0,0.0,0.1584,0.0,0.0,0.0,0.0,0.0,0.0,0.0,0.0,0.0,0.0,0.0,0.0,0.0,0.0,0.0,0.0,0.0,0.0,0.0,0.0,0.0,0.0,0.0,0.0,0.0,0.0,0.0,0.0,0.0,0.0,0.0,0.0,0.0,0.0,0.0,0.0,0.0,0.0,0.0,0.0,-0.8591,-0.8574,-0.859,-0.86,-0.8595,-0.859,-0.86,-0.8595,-0.8535,-0.8546,-0.8565,0.0,0.0,0.0,0.0,0.0,0.0,0.0,0.0,0.0,0.0,0.0,0.0,0.0,0.0,0.0,0.0,0.0,0.0,0.0,0.0,0.0,0.0,0.0,0.0,0.0,0.0,0.0,0.0,0.0,0.0,0.0,0.0,0.0,0.0,0.0,0.0,0.0,0.0,0.0,0.0,0.0,0.0,0.0,0.0,0.0,0.0,0.0,0.0,0.0,0.0,0.0,0.0,0.0,0.0,0.1877,0.1902,0.1902,0.1915,0.1936,0.1885,0.2008,0.1928,0.0,0.0,0.0,0.0,0.0,0.0,0.0,0.0,0.0,0.0,0.0,0.0,0.0,0.0,0.0,0.0,0.0,0.0,0.0,0.0,0.0,0.0,0.0,0.0,0.0,-0.2991,-0.5926,0.0,0.0,0.0,0.0,0.0,0.0,0.0,0.0,0.0,0.0,0.0,0.0,-0.8531,-0.8629,-0.8638,-0.8542,-0.7709,-0.7564,-0.8542,-0.8666,-0.8655,-0.8655,-0.859,-0.8587,0.0,0.0,0.0,0.0,0.0,0.0,0.0,0.0,0.0,0.0,0.0,0.0,0.0,0.0,0.0,0.0,0.0,0.0,0.0,0.0,0.0,0.0,0.0,0.0,0.0,0.0,0.0,0.0,0.0,0.0,0.0,0.0,0.1892,0.1789,0.0,0.0,0.0,0.0,0.0,0.0,0.0,0.0,0.0,0.0,0.0,0.0,0.0,0.0,0.1873,0.19,0.1915,0.1919,0.1945,0.196,0.1964,0.1964,0.1967,0.197,0.1962,0.0,0.193,0.1802,0.0,0.0,0.0,0.0,0.0,0.0,0.0,0.0,0.0,0.0,0.0,0.0,0.0,0.0,0.0,0.0,0.0,0.0,0.0,0.0,0.0,0.0,0.0,0.0,-0.0518,-0.0916,0.0,-0.1008,-0.0735,-0.0122,0.0,0.0,0.0,0.0,0.0,0.0,0.0,0.0,-0.853,-0.8558,-0.8544,-0.8649,-0.4164,-0.319,-0.8233,-0.8644,-0.8639,-0.8655,-0.8534,-0.8547,-0.8573,-0.8593,0.0,0.0,0.0,0.0,0.0,0.0,0.0,0.0,0.0,0.0,0.0,0.0,0.0,0.0,0.0,0.0,0.0,0.0,0.0,0.0,0.0,0.0,0.0,0.0,0.0,0.0,0.0,0.0,0.0,0.187,0.1913,0.1819,0.1809,0.1787,0.0,0.0,0.0,0.0,0.0,0.0,0.0,0.0,0.0,0.1891,0.1891,0.1906,0.1936,0.1949,0.1956,0.1958,0.2004,0.2026,0.2027,0.2061,0.2067,0.205,0.2033,0.2008,0.1978,0.1945,0.1924,0.191,0.0,0.0,0.0,0.0,0.0,0.187,0.1904,0.0,0.0,0.0,0.0,0.0,0.0,0.0,0.0,0.0,0.0,0.0,0.0,0.0,0.0,0.0,0.0,0.0,0.0,0.0,0.0,0.0,0.0,0.0,0.0,0.0,0.0,0.0,0.0,0.0,-0.3785,-0.3709,-0.3751,-0.3778,-0.1536,-0.2374,-0.8438,-0.574,-0.3771,-0.3774,-0.3753,-0.373,-0.3705,-0.6907,-0.8408,0.0,0.0,0.0,0.0,0.0,0.0,0.0,0.0,0.0,0.0,0.0,0.0,0.0,0.0,0.0,0.0,0.0,0.0,0.0,0.0,0.0,0.0,0.0,0.0,0.0,0.0,0.0,0.0,0.1908,0.1838,0.1861,0.1864,0.1846,0.0,0.0,0.0,0.0,0.0,0.0,0.1896,0.1904,0.1922,0.1952,0.1954,0.1969,0.1999,0.1999,0.1999,0.2,0.2044,0.2068,0.2076,0.2114,0.2123,0.2108,0.2078,0.205,0.2026,0.1975,0.1954,0.1952,0.1937,0.1932,0.0,0.1956,0.1951,0.2058,0.1984,0.1985,0.2087,0.2087,0.0,0.2071,0.2047,0.0,0.0,0.0,0.0,0.0502,0.0128,0.0,0.0,0.0,0.0,0.0,0.0,0.0,0.0,0.0,0.0,0.0,0.0,0.0,0.0,0.0,0.0,0.0,0.0,0.0,0.0,0.0,0.0,-0.1837,-0.6532,-0.2687,0.0,0.0,0.0,0.0,0.0,-0.408,-0.7071,-0.8618,0.0,0.0,0.0,0.0,0.0,0.0,0.0,0.0,0.0,0.0,0.0,0.0,0.0,0.0,0.0,0.0,0.0,0.0,0.0,0.0,0.0,0.0,0.0,0.0,0.0,0.0,0.0,0.0,0.0,0.1926,0.1926,0.0,0.0,0.0,0.0,0.1881,0.191,0.1928,0.1929,0.1956,0.1985,0.2014,0.2014,0.2029,0.206,0.206,0.206,0.206,0.2063,0.2079,0.2106,0.208,0.2083,0.2108,0.2078,0.2063,0.2059,0.2027,0.2014,0.2016,0.2044,0.2054,0.2054,0.2057,0.2056,0.2056,0.2059,0.2059,0.2057,0.2057,0.2038,0.2139,0.2138,0.2119,0.0,0.0,0.206,0.1817,0.04,0.0,0.0,0.0,0.0,0.0,0.0,0.0,0.0,0.0,0.0,0.0,0.0,0.0,-0.618,-0.1206,-0.0136,0.0,0.0,0.0,0.0,0.0,0.0,-0.0145,-0.0437,-0.0145,0.0,0.0,0.0,0.0,0.0,-0.0281,-0.3034,-0.8499,-0.8612,0.0,0.0,0.0,0.0,0.0,0.0,0.0,0.0,0.0,0.0,0.0,0.0,0.0,0.0,0.0,0.0,0.0,0.0,0.0,0.0,0.0,0.0,0.0,0.0,0.0,0.0,0.0,0.0,0.1904,0.1919,0.0,0.0,0.191,0.1915,0.1915,0.196,0.1988,0.1988,0.2016,0.2037,0.2048,0.2067,0.2082,0.2093,0.2113,0.2123,0.2123,0.2162,0.2187,0.2198,0.2225,0.2233,0.2225,0.2193,0.2169,0.2151,0.2139,0.2101,0.2049,0.206,0.2064,0.2064,0.2064,0.2064,0.2064,0.2064,0.2064,0.2067,0.2087,0.2099,0.2106,0.2106,0.2231,0.2226,0.2249,0.2255,0.1862,0.0403,0.0,0.0269,0.1212,0.0673,0.0,0.0,0.0,0.0,0.0,0.0,0.0,0.0,-0.1633,-0.2211,-0.0276,0.0,0.0,0.0,0.0,0.0,0.0,0.0,0.0,0.0,0.0,0.0,0.0,0.0,0.0,0.0,0.0,-0.0988,-0.3075,-0.6764,-0.8562,0.0,0.0,0.0,0.0,0.0,0.0,0.0,0.0,0.0,0.0,0.0,0.0,0.0,0.0,0.0,0.0,0.0,0.0,0.0,0.0,0.0,0.0,0.0,0.0,0.0,0.0,0.1924,0.1903,0.1928,0.1947,0.1945,0.1955,0.1969,0.199,0.2018,0.2038,0.2049,0.2068,0.2089,0.2109,0.2129,0.2144,0.2155,0.2176,0.2185,0.2185,0.2226,0.2251,0.2262,0.229,0.2298,0.2289,0.2259,0.2234,0.2215,0.2215,0.218,0.2124,0.2114,0.211,0.2109,0.2098,0.2094,0.2094,0.2094,0.2094,0.2098,0.2119,0.2138,0.2155,0.2155,0.2155,0.2155,0.2155,0.2155,0.2019,0.0943,0.0808,0.0943,0.2019,0.1481,0.0809,0.0677,0.0678,0.0681,0.069,0.0276,0.0,0.0,0.0,0.0,0.0,0.0,0.0,0.0,0.0,0.0,0.0,0.0,0.0,0.0,0.0,0.0,0.0,0.0,0.0,0.0,0.0,0.0,0.0,-0.5662,-0.846,-0.8071,0.0,0.0,0.0,0.0,0.0,0.0,0.0,0.0,0.0,0.0,0.0,0.0,0.0,0.0,0.0,0.0,0.0,0.0,0.0,0.0,0.0,0.0,0.0,0.1847,0.1895,0.1933,0.1934,0.196,0.2001,0.206,0.2038,0.2046,0.2105,0.2083,0.208,0.211,0.2113,0.214,0.22,0.2203,0.2218,0.2248,0.2249,0.2251,0.2251,0.2251,0.2266,0.2294,0.2264,0.2267,0.2293,0.2264,0.2251,0.2251,0.2251,0.2251,0.2248,0.2214,0.2202,0.2198,0.2169,0.2158,0.2158,0.2158,0.2158,0.2158,0.2157,0.2157,0.2157,0.2155,0.2155,0.2157,0.2157,0.2157,0.2158,0.2158,0.2158,0.2158,0.2158,0.2158,0.2165,0.2195,0.2202,0.221,0.2241,0.1111,0.0138,0.014,0.0142,0.0,0.0,0.0,0.0,0.0,0.0,0.0,0.0,0.0,0.0,0.0,0.0,0.0,0.0,0.0,0.0,0.0,-0.0148,-0.0146,-0.0,-0.5554,-0.7991,-0.7243,0.0,0.0,0.0,0.0,0.0,0.0,0.0,0.0,0.0,0.0,0.0,0.0,0.0,0.0,0.0,0.0,0.0,0.0,0.0,0.0,0.0,0.0,0.1915,0.1907,0.194,0.1979,0.2022,0.2015,0.2031,0.2091,0.209,0.2091,0.2108,0.2143,0.2166,0.2174,0.2196,0.2215,0.2233,0.2274,0.23,0.2308,0.2353,0.2375,0.2375,0.2375,0.2379,0.2387,0.2379,0.2379,0.2387,0.2378,0.2375,0.2375,0.2375,0.2375,0.2365,0.227,0.2233,0.2232,0.2223,0.2221,0.2221,0.2221,0.2221,0.2217,0.2195,0.2188,0.2184,0.2161,0.217,0.2188,0.2188,0.2203,0.2221,0.2221,0.2221,0.2221,0.2221,0.2221,0.2222,0.2232,0.2233,0.2243,0.2273,0.1987,0.1701,0.1708,0.1596,0.1324,0.0146,0.0,0.0,0.0,0.0,0.0,0.0,0.0,0.0,0.0,0.0,0.0,0.0,0.0,0.0,0.0,-0.4066,-0.4332,-0.0148,-0.1556,-0.3984,0.0,0.0,0.0,0.0,0.0,0.0,0.0,0.0,0.0,0.0,0.0,0.0,0.0,0.0,0.0,0.0,0.0,0.0,0.0,0.0,0.0,0.0,0.194,0.1967,0.1967,0.1982,0.2016,0.2076,0.2067,0.208,0.2142,0.2147,0.2158,0.2183,0.2218,0.2244,0.2255,0.2285,0.2307,0.2319,0.2353,0.2371,0.2371,0.2406,0.2424,0.2424,0.2424,0.2424,0.2424,0.2424,0.2424,0.0,0.2424,0.2424,0.2424,0.2424,0.2424,0.0,0.0,0.0,0.0,0.0,0.2245,0.2245,0.2245,0.2245,0.2243,0.2225,0.2219,0.2215,0.2198,0.2204,0.2219,0.2219,0.2232,0.2245,0.2245,0.2255,0.2264,0.2264,0.2264,0.2267,0.2279,0.2273,0.2273,0.2303,0.0,0.0,0.2324,0.176,0.1033,0.0148,0.0,0.0,0.0,0.0,0.0,0.0,0.0,0.0,0.0,0.0,0.0,0.0,0.0,0.0,0.0,-0.3183,0.0,0.0,0.0,-0.1409,0.0,0.0,0.0,0.0,-0.8012,-0.8193,0.0,0.0,0.0,0.0,0.0,0.0,0.0,0.0,0.0,0.0,0.0,0.0,0.0,0.0,0.0,0.0,0.1985,0.2023,0.2037,0.2035,0.2054,0.2113,0.212,0.2143,0.2204,0.2214,0.2237,0.2292,0.2303,0.2316,0.2342,0.0,0.0,0.0,0.0,0.2429,0.2429,0.2432,0.2433,0.2433,0.2433,0.2433,0.2433,0.2433,0.2433,0.2433,0.2433,0.2433,0.2433,0.2433,0.2432,0.2423,0.2365,0.2343,0.2337,0.2285,0.2266,0.0,0.0,0.0,0.0,0.2262,0.226,0.226,0.2256,0.2258,0.226,0.226,0.2263,0.2266,0.2266,0.2283,0.2301,0.2301,0.2298,0.2303,0.2327,0.2316,0.2308,0.2333,0.2341,0.2352,0.2379,0.1181,0.0147,0.0,0.015,0.0,0.0,0.0,0.0,0.0,0.0,0.0,0.0,0.0,0.0,0.0,0.0,0.0,0.0,0.0,0.0,0.0,0.0,0.0,-0.0,-0.5201,-0.7571,-0.7589,-0.7602,-0.7992,0.0,0.0,0.0,0.0,0.0,0.0,0.0,0.0,0.0,0.0,0.0,0.0,0.0,0.0,0.0,0.1994,0.2011,0.2053,0.2151,0.2144,0.2142,0.2178,0.2183,0.2206,0.2267,0.2293,0.2312,0.2323,0.2371,0.2401,0.2406,0.2412,0.0,0.2423,0.2447,0.2461,0.2461,0.2485,0.2497,0.2497,0.0,0.0,0.2497,0.2497,0.2497,0.2497,0.2497,0.2497,0.2497,0.2497,0.2482,0.2457,0.242,0.2406,0.2405,0.2393,0.2388,0.2388,0.2388,0.2388,0.2386,0.236,0.2353,0.2348,0.2323,0.2333,0.0,0.2353,0.2371,0.2388,0.2388,0.2375,0.2361,0.2361,0.2342,0.2326,0.2331,0.2348,0.2363,0.2368,0.239,0.2408,0.2414,0.2109,0.1509,0.0152,0.1081,0.156,0.0156,0.0,0.0,0.0,0.0,0.0,0.0,0.0,0.0,0.0,0.0,0.0,0.0,0.0,0.0,0.0,0.0,0.0,-0.0,-0.1182,-0.1605,-0.1709,-0.1668,-0.4131,0.0,0.0,0.0,0.0,0.0,0.0,0.0,0.0,0.0,0.0,0.0,0.1918,0.1948,0.0,0.1989,0.2034,0.2067,0.2371,0.3251,0.3437,0.306,0.2384,0.2245,0.2546,0.3457,0.2776,0.2656,0.3559,0.2873,0.2446,0.2446,0.2461,0.2469,0.2469,0.2484,0.2492,0.2492,0.2507,0.2514,0.2514,0.2514,0.2514,0.2514,0.2514,0.2522,0.2537,0.2537,0.2545,0.2557,0.2542,0.2519,0.2491,0.2474,0.245,0.2424,0.2424,0.2424,0.2424,0.2424,0.2424,0.2421,0.2406,0.2401,0.2398,0.2383,0.2388,0.2401,0.2401,0.2412,0.2424,0.2424,0.2424,0.2424,0.2424,0.2412,0.2401,0.2401,0.2401,0.2401,0.2401,0.2413,0.2428,0.2444,0.2446,0.2145,0.1387,0.2016,0.2185,0.1413,0.1256,0.094,0.0156,0.0,0.0,0.0,0.0,0.0,0.0,0.0,0.0,0.0,0.0,0.0,0.0,0.0,0.0,0.0,0.0,0.0,0.0,0.0,-0.1568,0.0,0.0,0.0,0.0,0.0,0.0,0.0,0.0,0.2023,0.2268,0.2297,0.2454,0.2732,0.289,0.2929,0.298,0.3049,0.3506,0.4753,0.5035,0.443,0.3014,0.2736,0.3327,0.467,0.3411,0.3006,0.4394,0.3226,0.2477,0.2477,0.2502,0.2514,0.2514,0.2514,0.2514,0.2514,0.2514,0.2514,0.2514,0.2514,0.2514,0.2514,0.2514,0.2527,0.2552,0.2557,0.2572,0.2592,0.2575,0.2553,0.2532,0.2532,0.2502,0.2457,0.2446,0.2442,0.2442,0.2442,0.2442,0.2442,0.2442,0.2442,0.2442,0.2442,0.2442,0.2442,0.2442,0.2442,0.2442,0.2442,0.2455,0.2469,0.2469,0.2465,0.2462,0.2467,0.2454,0.2443,0.2448,0.2454,0.2466,0.2491,0.2495,0.2491,0.248,0.2477,0.2489,0.2519,0.2523,0.2052,0.0633,0.0475,0.0475,0.0475,0.0158,0.0,0.0,0.0,0.0,0.0,0.0,0.0,0.0,0.0,0.0,0.0,0.0,0.0,0.0,0.0,0.0,0.372,0.392,0.3995,0.5039,0.4457,0.3906,0.0,0.0,0.2342,0.3616,0.392,0.4345,0.5631,0.5766,0.5824,0.6113,0.6156,0.625,0.6621,0.6681,0.6158,0.464,0.4402,0.4435,0.4739,0.3332,0.2613,0.2771,0.2648,0.2508,0.2508,0.2512,0.2514,0.2514,0.2514,0.2514,0.2514,0.2514,0.2514,0.2514,0.2514,0.2514,0.2514,0.2514,0.2517,0.2521,0.2548,0.2562,0.2566,0.2587,0.2594,0.2592,0.2592,0.2587,0.2575,0.2523,0.2504,0.2504,0.2504,0.2504,0.2504,0.2504,0.2504,0.2504,0.2504,0.2504,0.2504,0.2504,0.2504,0.2504,0.2504,0.2487,0.2469,0.2469,0.2448,0.2436,0.2463,0.2488,0.2512,0.254,0.2564,0.2583,0.2586,0.2586,0.257,0.2517,0.2508,0.2521,0.2551,0.2555,0.2404,0.2268,0.227,0.227,0.227,0.0803,0.0,0.0,0.0,0.0,0.0,0.0,0.0,0.0,0.0,0.0,0.0,0.0,0.0,0.0,0.0,0.0,0.4993,0.4639,0.0,0.0,0.5624,0.5459,0.5974,0.5272,0.4684,0.5347,0.5379,0.5672,0.6239,0.6381,0.6439,0.0,0.6694,0.6651,0.6819,0.6884,0.6661,0.6162,0.5206,0.4798,0.4796,0.3357,0.294,0.3891,0.2975,0.2514,0.2514,0.2514,0.2514,0.2514,0.2514,0.2514,0.2514,0.2514,0.2514,0.2514,0.2514,0.2514,0.2514,0.2514,0.2523,0.2542,0.2571,0.2575,0.256,0.2572,0.2567,0.2552,0.257,0.2577,0.2577,0.2568,0.2564,0.2564,0.2564,0.2564,0.2564,0.2564,0.2564,0.2564,0.2564,0.2564,0.2564,0.2564,0.2564,0.2564,0.2564,0.2556,0.2547,0.2547,0.2536,0.253,0.2544,0.2556,0.2568,0.2582,0.2593,0.2597,0.2579,0.2577,0.2568,0.2544,0.2555,0.257,0.2582,0.2422,0.2589,0.2601,0.2602,0.2604,0.2605,0.1945,0.1131,0.0,0.0,0.0,0.0,0.0,0.0,0.0,0.0,0.0,0.0,0.0,0.0,0.0,0.0,0.0,0.5421,0.0,0.0,0.6324,0.6809,0.6792,0.6846,0.6528,0.6464,0.685,0.6873,0.7043,0.7515,0.7553,0.7764,0.7952,0.7654,0.7617,0.8149,0.7963,0.776,0.7685,0.6762,0.5919,0.5616,0.4149,0.3884,0.5636,0.4547,0.3922,0.3922,0.3922,0.3922,0.3922,0.3922,0.3922,0.3922,0.3922,0.3609,0.314,0.314,0.2983,0.2514,0.2514,0.2526,0.2549,0.2578,0.2578,0.256,0.2568,0.2559,0.2541,0.2563,0.2571,0.2574,0.2594,0.2601,0.2601,0.2601,0.2601,0.2601,0.2601,0.2601,0.2601,0.2601,0.2601,0.2601,0.2601,0.2601,0.2601,0.2601,0.2601,0.2601,0.2601,0.2596,0.2592,0.26,0.2596,0.2592,0.26,0.2601,0.2596,0.2575,0.2571,0.2571,0.2571,0.2589,0.2605,0.2613,0.2622,0.2627,0.2627,0.2627,0.2627,0.263,0.2622,0.1962,0.0164,0.0,0.0,0.0,0.0,0.0,0.0,0.0,0.0,0.0,0.0,0.0,0.0,0.0,0.0,0.4218,0.0,0.6411,0.791,0.8259,0.822,0.822,0.7274,0.6823,0.8128,0.8481,0.8967,1.0306,1.0699,1.0846,1.0993,0.987,0.9575,1.1299,1.0274,0.947,0.947,0.9527,0.9056,0.0,0.5907,0.5636,0.7357,0.7357,0.7361,0.7361,0.7361,0.7361,0.7361,0.7361,0.7361,0.7361,0.7361,0.6577,0.4857,0.4857,0.4077,0.2514,0.2514,0.2515,0.2518,0.2548,0.256,0.2562,0.2589,0.26,0.26,0.26,0.26,0.2601,0.2601,0.2601,0.2601,0.2601,0.2601,0.2601,0.2601,0.2601,0.2601,0.2601,0.2601,0.2601,0.2601,0.2601,0.2601,0.2601,0.2601,0.2601,0.2601,0.2581,0.2568,0.2596,0.2581,0.257,0.2597,0.2601,0.2601,0.2601,0.26,0.26,0.26,0.2601,0.2612,0.2642,0.2672,0.269,0.269,0.269,0.269,0.269,0.2662,0.1985,0.0165,0.0,0.0,0.0,0.0,0.0,0.0,0.0,0.0,0.0,0.0,0.0,0.0,0.0,0.0,0.6458,0.0,0.8017,0.9435,0.9806,0.9907,0.9907,0.9551,0.945,0.9845,1.0016,1.0212,1.0719,1.0914,1.1029,1.1274,1.0933,1.0469,1.0262,0.9742,0.9234,0.8332,0.8255,0.0,0.0,0.0,0.0,0.7513,0.7513,0.7513,0.7513,0.7513,0.7513,0.7513,0.7513,0.7513,0.7513,0.7513,0.7201,0.6577,0.5483,0.4077,0.2514,0.2514,0.2514,0.2515,0.2525,0.253,0.253,0.254,0.2544,0.2545,0.2566,0.2574,0.2577,0.2594,0.2601,0.2601,0.2601,0.2601,0.2601,0.2601,0.2601,0.2601,0.2601,0.2601,0.2601,0.2601,0.2601,0.2601,0.2601,0.2601,0.2601,0.2601,0.2594,0.259,0.26,0.2594,0.259,0.26,0.2601,0.2596,0.2577,0.2574,0.2574,0.2574,0.259,0.2768,0.2616,0.2626,0.2632,0.2632,0.265,0.2662,0.2662,0.2672,0.251,0.1841,0.0663,0.0,0.0,0.0,0.0,0.0,0.0,0.0,0.0,0.0,0.0,0.0,0.0,0.0,0.7745,0.8469,0.8796,1.0163,1.0649,1.0717,1.0717,1.0717,1.0717,1.0717,1.0717,1.0751,1.0846,1.0955,1.109,1.128,1.1018,1.0599,1.0334,0.9991,0.9505,0.9203,0.9254,0.9767,0.0,0.0,0.0,0.9226,0.9226,0.9226,0.9226,0.9226,0.9226,0.9226,0.9266,0.9286,0.9286,0.9484,0.8893,0.7656,0.5931,0.4342,0.2578,0.2567,0.2562,0.2562,0.2551,0.2545,0.2545,0.2534,0.253,0.2532,0.254,0.2544,0.2545,0.2564,0.2571,0.2574,0.2594,0.2601,0.2601,0.2601,0.2601,0.2601,0.2601,0.2601,0.2601,0.2601,0.2601,0.2601,0.2601,0.2601,0.2601,0.2601,0.2594,0.2586,0.2586,0.2578,0.2571,0.2571,0.2571,0.2564,0.2547,0.2544,0.2544,0.2544,0.2559,0.2578,0.2598,0.2601,0.2601,0.2601,0.2619,0.2631,0.2631,0.2649,0.266,0.2661,0.1658,0.0661,0.0,0.0,0.0,0.0,0.0,0.0,0.0,0.0,0.0,0.0,0.0,0.0,0.8269,0.8666,0.8955,1.0287,1.0717,1.0717,1.0717,1.0717,1.0717,1.0717,1.0585,1.0591,0.0,0.0,1.1165,1.1172,1.0251,1.0064,1.155,1.0883,1.0597,0.0,0.0,0.0,0.0,0.0,0.0,1.2501,0.0,1.2501,1.2501,1.2508,1.2515,1.2515,1.2671,1.2752,1.2752,1.2742,1.1091,0.7757,0.6177,0.4535,0.2691,0.2662,0.2649,0.2647,0.2619,0.2607,0.2604,0.2578,0.2567,0.2563,0.2534,0.2522,0.2519,0.2519,0.2517,0.2522,0.2578,0.2597,0.2597,0.2597,0.2597,0.2597,0.2597,0.2597,0.2597,0.2597,0.2597,0.2597,0.2597,0.2597,0.2597,0.2597,0.2577,0.2557,0.2557,0.2536,0.2517,0.2517,0.2518,0.2519,0.2519,0.2519,0.2519,0.2519,0.2519,0.2537,0.2428,0.2435,0.2435,0.2435,0.2436,0.26,0.26,0.2764,0.2765,0.2768,0.2632,0.1812,0.0,0.0,0.0,0.0,0.0,0.0,0.0,0.0,0.0,0.0,0.0,0.0,0.9701,1.0128,1.0267,1.0578,1.0717,1.0717,1.0717,1.0717,1.0717,1.0717,0.9915,0.954,0.0,0.0,0.0,1.1174,1.1325,0.0,1.1986,1.1861,0.0,1.2433,0.0,1.2501,1.2501,1.2501,0.0,0.0,1.2501,1.2501,1.2501,1.261,1.2671,1.2671,1.2922,1.3057,1.3057,1.1728,0.9983,0.7849,0.6202,0.4369,0.2692,0.2684,0.2682,0.268,0.2672,0.2669,0.2669,0.2661,0.2658,0.2658,0.265,0.2619,0.2579,0.2579,0.2552,0.2517,0.2532,0.2537,0.2537,0.2537,0.2537,0.2537,0.2537,0.2537,0.2537,0.2537,0.2537,0.2537,0.2537,0.2537,0.2537,0.2537,0.2532,0.2526,0.2526,0.2537,0.2548,0.2548,0.2564,0.2579,0.2579,0.2579,0.2579,0.2579,0.2579,0.2568,0.254,0.2537,0.2537,0.2537,0.2557,0.2571,0.2571,0.259,0.2602,0.2602,0.2611,0.1803,0.0,0.0,0.0,0.0,0.0,0.0,0.0,0.0,0.0,0.0,0.0,0.0,1.0512,1.0819,1.0839,1.09,1.0914,1.0894,1.0833,1.0819,1.0799,1.0731,1.0047,0.0,1.0699,0.0,0.0,0.0,0.0,0.0,1.2047,1.2244,1.2413,0.0,1.2501,0.0,1.2501,1.2501,1.2501,0.0,1.2501,1.2528,1.2596,1.2684,1.2793,1.2922,1.3152,1.2999,1.2284,1.0556,0.8735,0.686,0.5862,0.4498,0.2772,0.2758,0.2752,0.2751,0.0,0.2732,0.2731,0.2718,0.2713,0.2712,0.2698,0.2672,0.2642,0.2642,0.2612,0.2572,0.2572,0.2564,0.2548,0.2522,0.2514,0.2514,0.2514,0.2514,0.2514,0.2514,0.2523,0.2534,0.2534,0.2544,0.2552,0.2552,0.2552,0.2552,0.2552,0.2566,0.2578,0.2578,0.259,0.2601,0.2601,0.2601,0.2607,0.2619,0.2458,0.2451,0.2594,0.257,0.2552,0.2552,0.2567,0.2572,0.256,0.2574,0.2578,0.2564,0.2577,0.2107,0.1142,0.0326,0.0,0.0,0.0,0.0,0.0,0.0,0.0,0.0,0.0,0.0,1.0914,1.0962,1.1009,1.1131,1.1165,1.1124,1.0982,1.0948,1.09,1.0724,0.0,1.0445,1.069,1.0812,1.102,1.1165,0.0,1.206,1.206,1.2318,1.2501,1.2501,1.2501,1.2501,1.2501,1.2522,1.2528,1.2528,1.2549,1.261,1.2725,1.2786,1.2795,1.2919,1.2866,1.2035,1.0725,0.8913,0.7213,0.5467,0.5342,0.4478,0.2872,0.2846,0.2834,0.2833,0.0,0.0,0.2793,0.2767,0.2757,0.2754,0.2727,0.2712,0.2705,0.2705,0.2683,0.2653,0.2653,0.2635,0.2604,0.2545,0.2526,0.2526,0.2526,0.2526,0.2526,0.2526,0.2545,0.2566,0.2566,0.2583,0.2601,0.2601,0.2601,0.2601,0.2601,0.2605,0.2609,0.2613,0.2617,0.262,0.262,0.2623,0.2635,0.2661,0.2499,0.2508,0.2701,0.2652,0.245,0.245,0.2446,0.2597,0.2574,0.2564,0.2548,0.2522,0.2541,0.2556,0.256,0.0969,0.0,0.0,0.0,0.0,0.0,0.0,0.0,0.0,0.0,0.0,1.0941,1.1036,1.1131,1.1158,1.1165,1.1124,1.0982,1.0948,0.0,0.0,0.9701,0.9341,1.0293,0.993,0.9775,1.1027,0.0,0.0,0.0,0.0,1.2501,0.0,0.0,0.0,0.0,0.0,0.0,0.0,0.0,0.0,1.2732,1.3085,1.2752,1.1657,1.0058,0.9058,0.9003,0.7122,0.594,0.5643,0.4069,0.3205,0.2874,0.2868,0.2866,0.2866,0.0,0.0,0.2857,0.2853,0.2851,0.2851,0.2845,0.2812,0.2767,0.2767,0.2732,0.2684,0.2684,0.2682,0.2667,0.2607,0.2586,0.2586,0.2586,0.2586,0.2586,0.2586,0.259,0.2594,0.2594,0.2598,0.2601,0.2601,0.2601,0.2601,0.2601,0.2622,0.2646,0.2672,0.2697,0.2714,0.2714,0.2735,0.2754,0.2759,0.2587,0.2762,0.2767,0.2714,0.2676,0.2676,0.2654,0.2638,0.2632,0.2587,0.2557,0.2552,0.2533,0.2533,0.2559,0.0961,0.0,0.0,0.0,0.0,0.0,0.0,0.0,0.0,0.0,0.0,1.1036,1.1172,1.1301,1.1382,1.1402,1.1341,1.1111,0.0,0.0,0.0,1.0019,0.9783,1.0377,1.0257,0.0,1.1013,1.1599,0.0,0.0,0.0,0.0,0.0,0.0,0.0,0.0,0.0,0.0,0.0,0.0,0.0,1.3085,1.3431,1.2803,1.1152,0.9274,0.7929,0.6935,0.5033,0.4181,0.4201,0.333,0.2812,0.2827,0.2827,0.2827,0.2827,0.2827,0.0,0.2827,0.2827,0.2827,0.2829,0.2844,0.2833,0.2808,0.2825,0.2801,0.2763,0.2763,0.2752,0.2735,0.2706,0.2664,0.2626,0.2626,0.2615,0.2601,0.2601,0.2613,0.2626,0.2626,0.2637,0.2649,0.2649,0.2649,0.2653,0.2669,0.2684,0.2703,0.2733,0.2751,0.2762,0.2762,0.2773,0.2788,0.2804,0.2807,0.2812,0.2829,0.2804,0.2774,0.2743,0.2727,0.2712,0.2695,0.2654,0.2615,0.2583,0.2553,0.2537,0.2536,0.0951,0.0,0.0,0.0,0.0,0.0,0.0,0.0,0.0,0.0,0.0,1.1138,1.1301,1.147,1.1592,1.1619,1.1538,1.1233,1.1077,0.0,1.0561,1.0521,1.0527,1.05,0.0,1.0995,0.0,1.1511,1.185,1.2033,1.242,1.2637,0.0,0.0,0.0,0.0,0.0,0.0,0.0,0.0,0.0,1.3498,1.331,1.2507,1.0895,0.9081,0.7399,0.5512,0.414,0.3112,0.2773,0.2773,0.2777,0.2784,0.2784,0.2784,0.2784,0.2784,0.0,0.0,0.2784,0.2784,0.2785,0.281,0.2819,0.2822,0.2845,0.284,0.2819,0.2826,0.2812,0.2795,0.28,0.2746,0.2676,0.2676,0.266,0.2641,0.2641,0.2658,0.2676,0.2676,0.2694,0.2712,0.2712,0.2712,0.2718,0.2743,0.2747,0.2755,0.2778,0.2788,0.2793,0.2793,0.2799,0.2811,0.2834,0.2838,0.2846,0.2871,0.2874,0.2856,0.2984,0.2972,0.2784,0.2759,0.2724,0.2679,0.2624,0.2587,0.2555,0.2525,0.0944,0.0,0.0,0.0,0.0,0.0,0.0,0.0,0.0,0.0,0.0,1.1199,1.1375,1.1599,1.1613,1.1619,1.1538,1.1233,0.0,1.1023,1.0582,1.0602,1.0656,1.0521,1.0744,0.0,0.0,0.0,1.1735,1.202,1.2325,1.2515,1.2501,0.0,0.0,0.0,0.0,0.0,0.0,0.0,0.0,0.0,1.2047,1.0964,1.0889,0.895,0.7234,0.5387,0.5219,0.4405,0.2742,0.2742,0.2757,0.2784,0.2784,0.2784,0.2784,0.0,0.0,0.0,0.2784,0.2784,0.2784,0.2787,0.2788,0.2788,0.2791,0.2789,0.2791,0.2819,0.2827,0.2829,0.2856,0.2823,0.277,0.277,0.2769,0.2766,0.2766,0.2769,0.277,0.277,0.2773,0.2774,0.2774,0.2774,0.2776,0.2778,0.278,0.278,0.2782,0.2806,0.2825,0.2825,0.2848,0.2867,0.287,0.287,0.2871,0.2874,0.2874,0.2872,0.2867,0.2841,0.2823,0.2821,0.294,0.289,0.2686,0.263,0.2423,0.2556,0.0948,0.0,0.0,0.0,0.0,0.0,0.0,0.0,0.0,0.0,0.0,1.1179,1.1389,1.1619,1.1619,1.1619,1.1538,1.1233,0.0,1.0928,1.0568,1.0541,1.0561,1.05,1.067,1.0887,1.1124,1.1341,0.0,1.1884,1.2257,1.2467,1.2386,0.0,0.0,0.0,0.0,0.0,0.0,0.0,0.0,0.0,1.292,1.1999,1.0791,1.0075,0.8215,0.5371,0.5371,0.4546,0.271,0.271,0.2717,0.2729,0.2729,0.2729,0.2729,0.0,0.0,0.0,0.2729,0.2729,0.2731,0.2748,0.2757,0.2758,0.2777,0.2784,0.2785,0.2797,0.2801,0.2806,0.2837,0.283,0.2811,0.2811,0.2797,0.2784,0.2784,0.2784,0.278,0.2761,0.2743,0.2729,0.2729,0.2729,0.2733,0.2751,0.2757,0.2767,0.2803,0.2821,0.2834,0.2853,0.2866,0.2874,0.2874,0.2874,0.2874,0.2874,0.2874,0.2874,0.2874,0.2863,0.2856,0.2856,0.2816,0.2945,0.2893,0.268,0.2627,0.2563,0.0955,0.0,0.0,0.0,0.0,0.0,0.0,0.0,0.0,0.0,0.0,1.1172,1.1389,1.1619,1.1619,1.1619,1.1538,0.0,0.0,1.0928,1.0622,1.0561,1.0561,1.0561,1.0649,1.0819,1.1118,1.1253,1.1443,1.1782,1.2182,1.24,0.0,0.0,0.0,0.0,0.0,0.0,0.0,0.0,0.0,0.0,1.3587,1.2836,1.1564,1.1558,1.0049,0.7041,0.6376,0.5203,0.353,0.3027,0.2692,0.2692,0.2692,0.2692,0.2692,0.0,0.0,0.0,0.2692,0.2692,0.2695,0.2716,0.2725,0.2727,0.2748,0.2757,0.2758,0.2767,0.277,0.2774,0.2806,0.2815,0.2815,0.2815,0.2812,0.281,0.281,0.2803,0.2789,0.2759,0.2735,0.272,0.272,0.272,0.2725,0.2747,0.2751,0.2763,0.2807,0.2815,0.2822,0.2844,0.2846,0.2846,0.2846,0.2855,0.286,0.286,0.2868,0.2874,0.2874,0.2874,0.2874,0.2874,0.2855,0.2821,0.294,0.2736,0.2679,0.259,0.0966,0.0,0.0,0.0,0.0,0.0,0.0,0.0,0.0,0.0,0.0,1.1206,1.1389,1.1619,1.1619,1.1619,1.1538,0.0,1.1158,1.1077,1.0778,1.0717,1.0717,1.0717,1.0717,1.0819,1.1118,1.1165,1.1321,1.1769,1.2094,1.2291,0.0,0.0,0.0,0.0,0.0,0.0,0.0,0.0,0.0,0.0,1.3485,1.3403,1.3397,1.3397,1.2561,1.0721,0.8887,0.7045,0.5371,0.353,0.2692,0.2692,0.2692,0.2692,0.0,0.0,0.0,0.0,0.2692,0.2692,0.2692,0.2692,0.2692,0.2692,0.2692,0.2694,0.2698,0.2728,0.2737,0.2743,0.2774,0.2784,0.2784,0.2784,0.2826,0.2872,0.2872,0.2852,0.2821,0.2791,0.2782,0.2782,0.2782,0.2782,0.2782,0.2782,0.2782,0.2782,0.2784,0.2784,0.2784,0.2784,0.2784,0.2784,0.2958,0.2985,0.2829,0.2829,0.2856,0.2874,0.2874,0.2874,0.2874,0.2874,0.2874,0.286,0.283,0.2799,0.2743,0.2653,0.0982,0.0,0.0,0.0,0.0,0.0,0.0,0.0,0.0,0.0,0.0,1.1002,1.1158,1.1307,1.1307,1.1307,1.1253,1.1063,1.1016,1.0962,1.0758,1.0717,1.0717,1.0717,1.0717,1.0819,1.1118,1.1165,1.1287,0.0,0.0,0.0,0.0,0.0,0.0,0.0,0.0,0.0,0.0,0.0,0.0,0.0,1.3424,1.3403,1.3403,1.3403,1.2561,1.0721,1.0055,0.8382,0.5371,0.4868,0.3866,0.2692,0.2692,0.0,0.0,0.0,0.0,0.0,0.2692,0.2692,0.2692,0.2692,0.2692,0.2692,0.2692,0.2692,0.2694,0.2703,0.2706,0.2712,0.2743,0.2752,0.2757,0.2777,0.2797,0.2812,0.2812,0.2791,0.2765,0.2755,0.2736,0.2721,0.2721,0.2721,0.2721,0.2721,0.2721,0.2728,0.2748,0.2752,0.2759,0.278,0.2784,0.2784,0.2784,0.2792,0.2972,0.2972,0.2825,0.2842,0.2842,0.2861,0.2874,0.2874,0.2874,0.2861,0.283,0.2819,0.2261,0.0848,0.0333,0.0,0.0,0.0,0.0,0.0,0.0,0.0,0.0,0.0,0.0,1.0873,1.1056,1.1165,1.1165,1.1165,1.1124,1.0982,1.0948,1.0907,1.0751,1.0717,1.0717,1.0717,1.0717,1.0799,1.1043,0.0,0.0,0.0,0.0,0.0,0.0,0.0,0.0,0.0,0.0,0.0,0.0,0.0,0.0,0.0,0.0,1.3403,1.3403,1.3403,1.2899,1.1724,1.1059,0.955,0.7376,0.671,0.5873,0.4705,0.4705,0.0,0.0,0.0,0.0,0.0,0.3027,0.2692,0.2692,0.2692,0.2692,0.2692,0.2692,0.2692,0.2692,0.2692,0.2692,0.2695,0.2714,0.2721,0.2724,0.2743,0.2765,0.2781,0.2769,0.2752,0.2735,0.2724,0.2706,0.2692,0.2692,0.2692,0.2692,0.2692,0.2692,0.2698,0.2717,0.2721,0.2727,0.2746,0.2748,0.2748,0.2748,0.2759,0.2766,0.2766,0.2793,0.2811,0.2811,0.2838,0.2857,0.2857,0.2867,0.2866,0.2846,0.2134,0.1232,0.0,0.0,0.0,0.0,0.0,0.0,0.0,0.0,0.0,0.0,0.0,0.0,0.0,1.1023,1.1131,1.1131,1.1131,1.1097,1.0962,1.0934,0.0,1.0751,1.0717,1.0724,1.0731,1.0724,1.0772,0.0,0.0,0.0,0.0,0.0,0.0,0.0,0.0,0.0,0.0,0.0,0.0,0.0,0.0,0.0,0.0,0.0,1.3403,1.3403,1.3403,1.3403,1.3403,1.1724,1.0893,1.0721,0.9054,0.8052,0.8052,0.8052,0.0,0.0,0.0,0.0,0.0,0.3698,0.3027,0.3029,0.2859,0.2861,0.2861,0.2692,0.2692,0.2692,0.2692,0.2692,0.2692,0.2692,0.2692,0.2692,0.2692,0.2732,0.2772,0.2743,0.2735,0.2728,0.2699,0.2692,0.2692,0.2692,0.2692,0.2692,0.2692,0.2692,0.2692,0.2692,0.2692,0.2692,0.2692,0.2692,0.2692,0.2692,0.2717,0.2735,0.2735,0.2761,0.278,0.2953,0.2807,0.2826,0.2829,0.2856,0.2874,0.2694,0.1077,0.0,0.0,0.0,0.0,0.0,0.0,0.0,0.0,0.0,0.0,0.0,0.0,0.0,1.0541,0.0,1.0826,1.0826,1.0826,1.0819,0.0,1.0772,1.0765,0.0,0.0,1.0758,1.0873,1.0799,1.0806,0.0,0.0,0.0,0.0,0.0,0.0,0.0,0.0,0.0,0.0,0.0,0.0,0.0,0.0,0.0,0.0,0.0,1.3403,1.3403,1.3403,1.3403,1.3403,1.2899,1.2063,1.0721,1.0221,0.9388,0.8052,0.8052,0.0,0.0,0.0,0.0,0.7379,0.6881,0.6714,0.6546,0.5203,0.4703,0.4535,0.3195,0.2692,0.2692,0.2692,0.2692,0.2692,0.2692,0.2692,0.2692,0.2692,0.2702,0.2713,0.2705,0.2703,0.2702,0.2694,0.2692,0.2692,0.2692,0.2692,0.2692,0.2692,0.2692,0.2692,0.2692,0.2692,0.2692,0.2692,0.2692,0.2692,0.2692,0.2698,0.2703,0.2703,0.2729,0.2748,0.2748,0.2776,0.2803,0.2826,0.2856,0.2335,0.0718,0.018,0.0,0.0,0.0,0.0,0.0,0.0,0.0,0.0,0.0,0.0,0.0,0.0,0.0,1.0453,1.0656,1.0826,1.0826,1.0826,1.0826,1.0826,1.0772,1.0717,0.0,0.0,1.0744,1.0826,1.0887,0.0,0.0,0.0,0.0,0.0,0.0,0.0,0.0,0.0,0.0,0.0,0.0,0.0,0.0,0.0,0.0,0.0,0.0,1.3403,1.3403,1.3403,1.3403,1.3403,1.3403,1.2899,1.1896,1.1896,1.1392,1.0554,1.0554,0.0,0.0,0.0,0.0,0.9221,0.8386,0.8052,0.7885,0.6878,0.6543,0.6376,0.4535,0.3866,0.3866,0.3027,0.2692,0.2692,0.2692,0.2692,0.2692,0.2692,0.2692,0.2692,0.2692,0.2692,0.2692,0.2692,0.2692,0.2692,0.2692,0.2692,0.2692,0.2692,0.2692,0.2692,0.2692,0.2692,0.2692,0.2692,0.2692,0.2692,0.2692,0.2692,0.2692,0.2692,0.2706,0.2717,0.2717,0.2744,0.2769,0.2785,0.2827,0.2502,0.1436,0.0539,0.0,0.0,0.0,0.0,0.0,0.0,0.0,0.0,0.0,0.0,0.0,0.0,0.0,1.048,1.0751,1.0968,1.0928,1.0928,1.0941,1.0921,1.0812,1.0717,0.0,0.0,1.0744,1.0812,1.0989,0.0,0.0,0.0,0.0,0.0,0.0,0.0,0.0,0.0,0.0,0.0,0.0,0.0,0.0,0.0,0.0,0.0,0.0,0.0,1.3403,1.3403,1.3403,1.3403,1.3403,1.3403,1.3403,1.3403,1.3403,1.3403,1.3403,0.0,0.0,0.0,0.0,1.1059,0.9388,0.8887,0.872,0.8553,0.8382,0.8215,0.6376,0.5873,0.5538,0.3698,0.2859,0.2692,0.2692,0.2692,0.2692,0.2692,0.2692,0.2692,0.2692,0.2692,0.2692,0.2692,0.2692,0.2692,0.2692,0.2692,0.2692,0.2692,0.2692,0.2692,0.2692,0.2692,0.2692,0.2692,0.2692,0.2692,0.2692,0.2692,0.2692,0.2692,0.2692,0.2692,0.2692,0.2716,0.2733,0.2737,0.2785,0.283,0.2506,0.0897,0.0,0.0,0.0,0.0,0.0,0.0,0.0,0.0,0.0,0.0,0.0,0.0,0.0,1.0609,1.09,1.107,1.0819,1.0853,1.0914,1.0785,1.0738,1.0717,1.0717,0.0,0.0,0.0,1.1118,0.0,0.0,0.0,0.0,0.0,0.0,0.0,0.0,0.0,0.0,0.0,0.0,0.0,0.0,0.0,0.0,0.0,0.0,0.0,1.3403,1.3403,1.3403,1.3403,1.3403,1.3403,1.3403,1.3403,1.3403,1.3403,1.3403,1.3403,0.0,0.0,1.3065,1.2899,1.2733,1.2561,1.2395,1.0893,1.0221,1.0055,0.8215,0.7547,0.7379,0.5538,0.4034,0.2692,0.2692,0.2692,0.2692,0.2692,0.2692,0.2692,0.2692,0.2692,0.2692,0.2692,0.2692,0.2692,0.2692,0.2692,0.2692,0.2692,0.2692,0.2692,0.2692,0.2692,0.2692,0.2692,0.2692,0.2692,0.2692,0.2692,0.2692,0.2692,0.2692,0.2692,0.2692,0.2697,0.271,0.2736,0.2747,0.2082,0.0531,0.0179,0.0,0.0,0.0,0.0,0.0,0.0,0.0,0.0,0.0,0.0,0.0,0.0,0.0,1.0636,1.088,1.1016,1.088,1.1016,1.1172,1.1097,1.1084,1.1056,0.0,0.0,0.0,0.0,0.0,0.0,0.0,0.0,0.0,0.0,0.0,0.0,0.0,0.0,0.0,0.0,0.0,0.0,0.0,0.0,0.0,0.0,0.0,0.0,0.0,1.3403,1.3403,1.3403,1.3403,1.3403,1.3403,1.3403,1.3403,1.3403,1.3403,1.3403,1.3403,0.0,1.3403,1.3403,1.3403,1.3403,1.3403,1.2561,1.2229,1.1896,1.0055,0.8215,0.6543,0.5706,0.4199,0.2692,0.2692,0.2692,0.2692,0.2692,0.2692,0.2692,0.2692,0.2692,0.2692,0.2692,0.2692,0.2692,0.2692,0.2692,0.2692,0.2692,0.2692,0.2692,0.2692,0.2692,0.2692,0.2692,0.2692,0.2692,0.2692,0.2692,0.2692,0.2692,0.2692,0.2692,0.2692,0.2692,0.2698,0.2712,0.2728,0.19,0.0176,0.0,0.0,0.0,0.0,0.0,0.0,0.0,0.0,0.0,0.0,0.0,0.0,0.0,0.0,1.069,1.086,1.0955,1.0989,1.1145,1.1307,1.1375,1.1362,1.1321,0.0,0.0,0.0,0.0,0.0,0.0,0.0,0.0,0.0,0.0,0.0,0.0,0.0,0.0,0.0,0.0,0.0,0.0,0.0,0.0,0.0,0.0,0.0,0.0,0.0,1.3403,1.3403,1.3403,1.3403,1.3403,1.3403,1.3403,1.3403,1.3403,1.3403,1.3403,1.3403,1.3403,1.3403,1.3403,1.3403,1.3403,1.3403,1.3403,1.3403,1.3231,1.189,0.9049,0.6041,0.6041,0.4535,0.2692,0.2692,0.2692,0.2692,0.2692,0.2692,0.2692,0.2692,0.2692,0.2692,0.2692,0.2692,0.2692,0.2692,0.2692,0.2692,0.2692,0.2692,0.2692,0.2692,0.2692,0.2692,0.2692,0.2692,0.2692,0.2692,0.2692,0.2692,0.2692,0.2692,0.2692,0.2692,0.2692,0.2692,0.2692,0.238,0.1552,0.0,0.0,0.0,0.0,0.0,0.0,0.0,0.0,0.0,0.0,0.0,0.0,0.0,0.0,0.0,1.0846,1.0941,1.0982,1.1118,1.1063,1.105,1.1328,1.128,0.0,1.1531,0.0,0.0,0.0,0.0,0.0,0.0,0.0,0.0,0.0,0.0,0.0,0.0,0.0,0.0,0.0,0.0,0.0,0.0,0.0,0.0,0.0,0.0,0.0,0.0,0.0,1.3403,1.3403,1.3403,1.3403,1.3403,1.3403,1.3403,1.3403,1.3403,1.3403,1.3403,1.3403,1.3403,1.3403,1.3403,1.3403,1.3403,1.3403,1.3403,1.3403,1.3231,1.0887,0.7881,0.7881,0.5541,0.2692,0.2692,0.2692,0.2692,0.2692,0.2692,0.2692,0.2692,0.2692,0.2692,0.2692,0.2692,0.2692,0.2692,0.2692,0.2692,0.2692,0.2692,0.2692,0.2692,0.2692,0.2692,0.2692,0.2692,0.2692,0.2692,0.2692,0.2692,0.2692,0.2692,0.2692,0.2692,0.2692,0.2694,0.2695,0.119,0.0172,0.0,0.0,0.0,0.0,0.0,0.0,0.0,0.0,0.0,0.0,0.0,0.0,0.0,0.0,0.0,1.0751,1.0873,1.0982,1.1124,1.1124,0.0,0.0,1.1633,1.1755,1.187,1.1972,0.0,0.0,0.0,0.0,0.0,0.0,0.0,0.0,0.0,0.0,0.0,0.0,0.0,0.0,0.0,0.0,0.0,0.0,0.0,0.0,0.0,0.0,0.0,0.0,1.3403,1.3403,1.3403,1.3403,1.3403,1.3403,1.3403,1.3403,1.3403,1.3403,1.3403,1.3403,1.3403,1.3403,1.3403,1.3403,1.3403,1.3403,1.3403,1.3403,1.3403,1.1059,0.8052,0.8052,0.5709,0.2692,0.2692,0.2692,0.2692,0.2692,0.2692,0.2692,0.2692,0.2692,0.2692,0.2692,0.2692,0.2692,0.2692,0.2692,0.2692,0.2692,0.2692,0.2692,0.2692,0.2692,0.2692,0.2692,0.2692,0.2692,0.2692,0.2692,0.2692,0.2692,0.2692,0.2524,0.185,0.1346,0.1515,0.2527,0.1014,0.0,0.0,0.0,0.0,0.0,0.0,0.0,0.0,0.0,0.0,0.0,0.0,0.0,0.0,0.0,0.0,1.0765,1.0867,1.0982,1.1124,0.0,0.0,1.1619,1.1843,1.2026,1.2169,1.225,0.0,0.0,0.0,0.0,0.0,0.0,0.0,0.0,0.0,0.0,0.0,0.0,0.0,0.0,0.0,0.0,0.0,0.0,0.0,0.0,0.0,0.0,0.0,0.0,0.0,1.3403,1.3403,1.3403,1.3403,1.3403,1.3403,1.3403,1.3403,1.3403,1.3403,1.3403,1.3403,1.3403,1.3403,1.3403,1.3403,1.3403,1.3403,1.3403,1.3403,1.1392,0.8716,0.8219,0.6044,0.3532,0.2861,0.2692,0.2692,0.2692,0.2692,0.2692,0.2692,0.2692,0.2692,0.2692,0.2692,0.2692,0.2692,0.2692,0.2692,0.2692,0.2692,0.2692,0.2692,0.2701,0.2706,0.2706,0.2714,0.2721,0.2721,0.2721,0.2721,0.2721,0.2721,0.2208,0.1015,0.0337,0.0505,0.1685,0.0674,0.0,0.0,0.0,0.0,0.0,0.0,0.0,0.0,0.0,0.0,0.0,0.0,0.0,0.0,0.0,0.0,1.0948,1.0948,1.0982,1.1131,0.0,0.0,1.1769,1.1837,1.1959,1.2406,1.2393,1.2291,0.0,0.0,0.0,0.0,0.0,0.0,0.0,0.0,0.0,0.0,0.0,0.0,0.0,0.0,0.0,0.0,0.0,0.0,0.0,0.0,0.0,0.0,0.0,0.0,1.3403,1.3403,1.3403,1.3403,1.3403,1.3403,1.3403,1.3403,1.3403,1.3403,1.3403,1.3403,1.3403,1.3403,1.3403,1.3403,1.3403,1.3403,1.3403,1.3403,1.2229,1.0388,0.8553,0.6878,0.5036,0.3363,0.2692,0.2692,0.2692,0.2692,0.2692,0.2692,0.2692,0.2692,0.2692,0.2692,0.2692,0.2692,0.2692,0.2692,0.2692,0.2692,0.2692,0.2692,0.2717,0.2737,0.2737,0.2763,0.2784,0.2784,0.2784,0.2784,0.2784,0.2784,0.2079,0.0171,0.0,0.0,0.0,0.0,0.0,0.0,0.0,0.0,0.0,0.0,0.0,0.0,0.0,0.0,0.0,0.0,0.0,0.0,0.0,0.0,1.0819,1.0941,0.0,1.1287,0.0,0.0,0.0,1.2155,0.0,0.0,1.2467,1.244,0.0,0.0,0.0,0.0,0.0,0.0,0.0,0.0,0.0,0.0,0.0,0.0,0.0,0.0,0.0,0.0,0.0,0.0,0.0,0.0,0.0,0.0,0.0,0.0,1.3403,1.3403,1.3403,1.3403,1.3403,1.3403,1.3403,1.3403,1.3403,1.3403,1.3403,1.3403,1.3403,1.3403,1.3403,1.3403,1.3403,1.3403,1.3403,1.3403,1.2229,1.0388,0.8553,0.6878,0.5036,0.3363,0.2692,0.2692,0.2692,0.2692,0.2697,0.2718,0.2724,0.2729,0.2751,0.2757,0.2751,0.2729,0.2724,0.2731,0.2752,0.2757,0.2757,0.2757,0.2763,0.277,0.277,0.2777,0.2784,0.2784,0.2784,0.2784,0.2784,0.2784,0.2606,0.2078,0.0856,0.0,0.0,0.0,0.0,0.0,0.0,0.0,0.0,0.0,0.0,0.0,0.0,0.0,0.0,0.0,0.0,0.0,0.0,0.0,1.0982,1.1118,0.0,1.1511,1.1742,1.1999,1.2305,0.0,0.0,0.0,0.0,0.0,0.0,0.0,0.0,0.0,0.0,0.0,0.0,0.0,0.0,0.0,0.0,0.0,0.0,0.0,0.0,0.0,0.0,0.0,0.0,0.0,0.0,0.0,0.0,0.0,1.3403,1.3403,1.3403,1.3403,1.3403,1.3403,1.3403,1.3403,1.3403,1.3403,1.3403,1.3403,1.3403,1.3403,1.3403,1.3403,1.3403,1.3403,1.3403,1.3403,1.2733,1.1392,0.8887,0.7379,0.6041,0.3532,0.2692,0.2695,0.2706,0.271,0.2717,0.2747,0.2757,0.2761,0.2778,0.2784,0.2778,0.2761,0.2757,0.2761,0.278,0.2784,0.2784,0.2784,0.2793,0.2801,0.2801,0.2811,0.2819,0.2819,0.2819,0.2819,0.2819,0.2808,0.2801,0.2801,0.1733,0.0859,0.0,0.0,0.0,0.0,0.0,0.0,0.0,0.0,0.0,0.0,0.0,0.0,0.0,0.0,0.0,0.0,0.0,0.0,1.1301,1.1402,0.0,1.1782,1.1979,0.0,1.244,0.0,0.0,0.0,0.0,0.0,0.0,0.0,0.0,0.0,0.0,0.0,0.0,0.0,0.0,0.0,0.0,0.0,0.0,0.0,0.0,0.0,0.0,0.0,0.0,0.0,0.0,0.0,0.0,0.0,1.3403,1.3403,1.3403,0.0,1.3403,1.3403,1.3403,1.3403,1.3403,1.3403,1.3403,1.3403,1.3403,1.3403,1.3403,1.3403,1.3403,1.3403,1.3403,1.3403,1.3403,1.2899,0.9388,0.8215,0.7379,0.4034,0.2862,0.2702,0.2729,0.274,0.2748,0.2778,0.2788,0.2788,0.2791,0.2792,0.2792,0.2792,0.2789,0.2788,0.2791,0.2792,0.2792,0.2792,0.2814,0.2833,0.2833,0.2856,0.2874,0.2874,0.2874,0.2874,0.2874,0.2849,0.2833,0.2833,0.2806,0.2082,0.0343,0.0171,0.0,0.0,0.0,0.0,0.0,0.0,0.0,0.0,0.0,0.0,0.0,0.0,0.0,0.0,0.0,0.0,1.1226,1.147,0.0,0.0,1.221,1.2427,1.2488,0.0,0.0,0.0,0.0,0.0,0.0,0.0,0.0,0.0,0.0,0.0,0.0,0.0,0.0,0.0,0.0,0.0,0.0,0.0,0.0,0.0,0.0,0.0,0.0,0.0,0.0,0.0,0.0,1.3519,1.3403,1.3403,1.3403,0.0,1.3403,1.3403,1.3403,1.3403,1.3403,1.3403,1.3403,1.3403,1.3403,1.3403,1.3403,1.3403,1.3403,1.3403,1.3403,1.3403,1.3403,1.3065,1.0893,0.9221,0.7714,0.5538,0.3889,0.2729,0.2736,0.2755,0.278,0.2811,0.2819,0.2825,0.2848,0.2855,0.2855,0.2855,0.2837,0.2826,0.2849,0.2855,0.2855,0.2855,0.286,0.2864,0.2864,0.287,0.2874,0.2874,0.2874,0.2874,0.2874,0.2868,0.2864,0.2864,0.2837,0.2641,0.2283,0.0864,0.0,0.0,0.0,0.0,0.0,0.0,0.0,0.0,0.0,0.0,0.0,0.0,0.0,0.0,0.0,0.0,1.1321,0.0,0.0,1.2182,0.0,1.2501,1.2501,0.0,0.0,0.0,0.0,0.0,0.0,0.0,0.0,0.0,0.0,0.0,0.0,0.0,0.0,0.0,0.0,0.0,0.0,0.0,0.0,0.0,0.0,0.0,0.0,0.0,0.0,0.0,1.3702,1.3553,1.3403,1.3403,1.3403,1.3403,1.3403,1.3403,1.3403,1.3403,1.3403,1.3403,1.3403,1.3403,1.3403,1.3403,1.3403,1.3403,1.3403,1.3403,1.3403,1.3403,1.3403,1.3065,1.1392,0.9584,0.7772,0.5921,0.4267,0.2762,0.2777,0.2792,0.2811,0.2842,0.2851,0.2855,0.287,0.2874,0.2874,0.2874,0.2861,0.2855,0.2871,0.2874,0.2874,0.2874,0.2874,0.2874,0.2874,0.2874,0.2874,0.2874,0.2874,0.2874,0.2874,0.2874,0.2874,0.2874,0.286,0.2844,0.283,0.1924,0.1387,0.138,0.0853,0.0509,0.0,0.0,0.0,0.0,0.0,0.0,0.0,0.0,0.0,0.0,0.0,0.0,1.1402,0.0,1.1823,1.2366,1.2501,0.0,1.2501,1.2501,0.0,0.0,0.0,0.0,0.0,0.0,0.0,0.0,0.0,0.0,0.0,0.0,0.0,0.0,0.0,0.0,0.0,0.0,0.0,0.0,0.0,0.0,0.0,0.0,1.4041,1.3885,1.3743,1.3593,1.3444,1.3417,1.3403,1.3403,1.3403,1.3417,1.3437,1.3437,1.3424,1.3403,1.3403,1.3403,1.3403,1.3403,1.3403,1.3403,1.3403,1.3403,1.3403,1.3403,1.3417,1.3271,1.176,1.0151,0.8369,0.6498,0.4659,0.3318,0.2821,0.2833,0.2841,0.2867,0.2874,0.2874,0.2874,0.2874,0.2874,0.2874,0.2874,0.2874,0.2874,0.2874,0.2874,0.2874,0.2874,0.2874,0.2874,0.2874,0.2874,0.2874,0.2874,0.2874,0.2874,0.2874,0.2874,0.2874,0.2874,0.2864,0.2838,0.2831,0.2818,0.2793,0.2072,0.1201,0.0515,0.0343,0.0171,0.0169,0.0,0.0,0.0,0.0,0.0,0.0,0.0,0.0,1.1199,0.0,1.2081,0.0,1.2501,1.2501,0.0,0.0,0.0,0.0,0.0,0.0,0.0,0.0,0.0,0.0,0.0,0.0,0.0,0.0,0.0,0.0,0.0,0.0,0.0,0.0,0.0,0.0,0.0,0.0,0.0,1.4211,1.4197,1.4048,1.3892,1.3743,1.36,1.3464,1.3403,1.3403,1.3403,1.3471,1.36,1.36,1.3526,1.3403,1.3403,1.3403,1.3403,1.3403,1.3403,1.3403,1.3403,1.3403,1.3403,1.3403,1.3485,1.36,1.3257,1.2149,1.0532,0.8469,0.6795,0.4932,0.3356,0.2846,0.2868,0.2872,0.2874,0.2874,0.2874,0.2874,0.2874,0.2874,0.2874,0.2874,0.2874,0.2874,0.2874,0.2874,0.2874,0.2874,0.2874,0.2874,0.2874,0.2874,0.2874,0.2874,0.2874,0.2874,0.2874,0.2874,0.2874,0.2872,0.2868,0.2844,0.2827,0.2823,0.2793,0.2603,0.243,0.1561,0.1214,0.1212,0.0346,0.0,0.0,0.0,0.0,0.0,0.0,0.0,1.1328,1.1735,1.2135,0.0,1.2501,1.2501,1.2501,0.0,0.0,0.0,0.0,0.0,0.0,0.0,0.0,0.0,0.0,0.0,0.0,0.0,0.0,0.0,0.0,0.0,0.0,0.0,0.0,0.0,0.0,0.0,1.4068,1.4217,1.4231,1.4075,1.4007,1.3858,1.3634,1.3559,1.3485,1.3403,1.3492,1.3566,1.3634,1.3709,1.3709,1.3648,1.3648,1.3648,1.3648,1.3648,1.3648,1.3648,1.3648,1.3648,1.3648,1.3648,1.3688,1.3749,1.3749,1.2631,1.083,0.8913,0.7223,0.534,0.3388,0.2863,0.2874,0.2874,0.2874,0.2874,0.2874,0.2874,0.2874,0.2874,0.2874,0.2874,0.2874,0.2874,0.2874,0.2874,0.2874,0.2874,0.2874,0.2874,0.2874,0.2874,0.2874,0.2874,0.2874,0.2874,0.2874,0.2874,0.2874,0.2874,0.2874,0.2861,0.2855,0.2855,0.2826,0.2808,0.2808,0.2457,0.2282,0.2282,0.0698,0.0,0.0,0.0,0.0,0.0,0.0,0.0,0.0,0.0,1.1972,1.2305,1.242,1.2461,0.0,0.0,0.0,0.0,0.0,0.0,0.0,0.0,0.0,0.0,0.0,0.0,0.0,0.0,0.0,0.0,0.0,0.0,0.0,0.0,0.0,0.0,0.0,0.0,1.4007,1.4156,1.4204,1.4129,1.4095,1.3966,1.3743,1.3668,1.3553,1.3403,1.3553,1.3648,1.3688,1.3831,1.3919,1.3953,1.3871,1.3838,1.3838,1.3838,1.3838,1.3838,1.3838,1.3838,1.3838,1.3838,1.3865,1.3899,1.3899,1.3121,1.1659,0.9717,0.7998,0.6091,0.4126,0.3233,0.2874,0.2874,0.2874,0.2874,0.2874,0.2874,0.2874,0.2874,0.2874,0.2874,0.2874,0.2874,0.2874,0.2874,0.2874,0.2874,0.2874,0.2874,0.2874,0.2874,0.2874,0.2874,0.2874,0.2874,0.2874,0.2874,0.2874,0.2874,0.2874,0.2874,0.2874,0.2874,0.2853,0.284,0.284,0.284,0.284,0.284,0.1408,0.0526,0.0,0.0,0.0,0.0,0.0,0.0,0.0,1.1301,0.0,1.1972,1.2196,0.0,0.0,0.0,0.0,0.0,0.0,0.0,0.0,0.0,0.0,0.0,0.0,0.0,0.0,0.0,0.0,0.0,0.0,0.0,0.0,0.0,0.0,0.0,0.0,0.0,1.3844,1.4,1.415,1.4285,1.415,1.4061,1.4048,1.377,1.3553,1.3403,1.3553,1.3702,1.3838,1.3987,1.4136,1.4258,1.3966,1.3838,1.3838,1.3838,1.3838,1.3838,1.3838,1.3838,1.3838,1.3838,1.3933,1.4061,1.4061,1.4156,1.3755,1.1788,1.0007,0.8052,0.6091,0.4305,0.2874,0.2874,0.2874,0.2874,0.2874,0.2874,0.2874,0.2874,0.2874,0.2874,0.2874,0.2874,0.2874,0.2874,0.2874,0.2874,0.2874,0.2874,0.2874,0.2874,0.2874,0.2874,0.2874,0.2874,0.2874,0.2874,0.2874,0.2874,0.2874,0.2874,0.2874,0.2874,0.2872,0.2871,0.2871,0.2871,0.2871,0.2871,0.287,0.1793,0.0,0.0,0.0,0.0,0.0,0.0,0.0,0.0,0.0,1.1687,1.1965,1.2155,0.0,0.0,0.0,0.0,0.0,0.0,0.0,0.0,0.0,0.0,0.0,0.0,0.0,0.0,0.0,0.0,0.0,0.0,0.0,0.0,0.0,0.0,0.0,0.0,1.3702,1.3939,1.4095,1.415,1.4197,1.4122,1.3926,1.3729,1.3553,1.3403,1.3648,1.379,1.3851,1.4102,1.4245,1.4292,1.4183,1.4136,1.4136,1.4136,1.4136,1.4136,1.4136,1.4136,1.4136,1.4136,1.417,1.4217,1.4217,1.4251,1.3945,1.1976,1.0189,0.823,0.627,0.4305,0.2874,0.2874,0.2874,0.2874,0.2874,0.2874,0.2874,0.2874,0.2874,0.2874,0.2874,0.2874,0.2874,0.2874,0.2874,0.2874,0.2874,0.2874,0.2874,0.2874,0.2874,0.2874,0.2874,0.2874,0.2874,0.2874,0.2874,0.2874,0.2874,0.2874,0.2874,0.2874,0.2874,0.2874,0.2874,0.2874,0.2874,0.2874,0.2874,0.2156,0.0898,0.0359,0.0,0.0,0.0,0.0,1.0921,0.0,0.0,0.0,1.1694,1.1891,1.2094,0.0,0.0,0.0,0.0,0.0,0.0,0.0,0.0,0.0,0.0,0.0,0.0,0.0,0.0,0.0,0.0,0.0,0.0,0.0,0.0,0.0,0.0,0.0,1.3627,1.3817,1.3966,1.4068,1.4224,1.4177,1.3919,1.3777,1.3627,1.3478,1.3675,1.377,1.3783,1.4082,1.4224,1.4224,1.4278,1.4299,1.4299,1.4299,1.4299,1.4299,1.4299,1.4299,1.4299,1.4299,1.4299,1.4299,1.4299,1.4299,1.4122,1.2869,1.0728,0.8409,0.6981,0.4841,0.2874,0.2874,0.2874,0.2874,0.2874,0.2874,0.2874,0.2874,0.2874,0.2874,0.2874,0.2874,0.2874,0.2874,0.2874,0.2874,0.2874,0.2874,0.2874,0.2874,0.2874,0.2874,0.2874,0.2874,0.2874,0.2874,0.2874,0.2874,0.2874,0.2874,0.2874,0.2874,0.2874,0.2874,0.2874,0.2874,0.2874,0.2874,0.2874,0.2515,0.1975,0.0539,0.0,0.0,0.0,0.0,0.0,0.0,0.0,0.0,0.0,0.0,1.2121,0.0,0.0,0.0,0.0,0.0,0.0,0.0,0.0,0.0,0.0,0.0,0.0,0.0,0.0,0.0,0.0,0.0,0.0,0.0,0.0,0.0,0.0,1.3464,1.3614,1.3627,1.3763,1.4061,1.4217,1.4224,1.4075,1.3919,1.377,1.3627,1.3627,1.3627,1.3641,1.3933,1.4061,1.4075,1.4224,1.4292,1.4292,1.4299,1.4299,1.4299,1.4299,1.4299,1.4299,1.4299,1.4299,1.4299,1.4299,1.4299,1.4299,1.4299,1.1621,0.8587,0.8587,0.5912,0.2874,0.2874,0.2874,0.2874,0.2874,0.2874,0.2874,0.2874,0.2874,0.2874,0.2874,0.2874,0.2874,0.2874,0.2874,0.2874,0.2874,0.2874,0.2874,0.2874,0.2874,0.2874,0.2874,0.2874,0.2874,0.2874,0.2874,0.2874,0.2874,0.2874,0.2874,0.2874,0.2874,0.2874,0.2874,0.2874,0.2874,0.2874,0.2874,0.2874,0.2874,0.1077,0.0,0.0,0.0,0.0,1.1213,0.0,0.0,0.0,0.0,0.0,1.1436,1.1782,0.0,0.0,0.0,0.0,0.0,0.0,0.0,0.0,0.0,0.0,0.0,0.0,0.0,0.0,0.0,0.0,0.0,0.0,0.0,0.0,1.3403,1.3417,1.3464,1.3566,1.3763,1.4061,1.4116,1.4116,1.4075,1.3919,1.377,1.3627,1.3627,1.3627,1.3634,1.3817,1.3905,1.3912,1.4068,1.4136,1.4143,1.4251,1.4299,1.4299,1.4299,1.4299,1.4299,1.4299,1.4299,1.4299,1.4299,1.4299,1.4122,1.2692,1.055,0.8409,0.6981,0.4841,0.2874,0.2874,0.2874,0.2874,0.2874,0.2874,0.2874,0.2874,0.2874,0.2874,0.2874,0.2874,0.2874,0.2874,0.2874,0.2874,0.2874,0.2874,0.2874,0.2874,0.2874,0.2874,0.2874,0.2874,0.2874,0.2874,0.2874,0.2874,0.2874,0.2874,0.2874,0.2874,0.2874,0.2874,0.2874,0.2874,0.2874,0.2874,0.2874,0.2874,0.2874,0.2335,0.1436,0.0,0.0,0.0,1.144,1.1198,1.0928,0.0,0.0,0.0,1.1382,1.1811,1.2093,0.0,0.0,0.0,0.0,0.0,0.0,0.0,0.0,0.0,0.0,0.0,0.0,0.0,0.0,0.0,0.0,0.0,0.0,0.0,1.3403,1.3403,1.3403,1.3546,1.3709,1.3885,1.4007,1.4075,1.4075,1.398,1.3899,1.381,1.3688,1.3627,1.3634,1.3715,1.3749,1.3763,1.3912,1.3973,1.398,1.4075,1.4183,1.4299,1.4299,1.4299,1.4299,1.4299,1.4299,1.4299,1.4299,1.4299,1.4122,1.3046,1.1261,0.9477,0.7517,0.5557,0.3947,0.3053,0.2874,0.2874,0.2874,0.2874,0.2874,0.2874,0.2874,0.2874,0.2874,0.2874,0.2874,0.2874,0.2874,0.2874,0.2874,0.2874,0.2874,0.2874,0.2874,0.2874,0.2874,0.2874,0.2874,0.2874,0.2874,0.2874,0.2874,0.2874,0.2874,0.2874,0.2874,0.2874,0.2874,0.2874,0.2874,0.2874,0.2861,0.2849,0.2837,0.2861,0.1975,0.0,0.0,0.0,1.1682,1.1488,1.1303,0.0,0.0,0.0,1.1763,1.1963,1.2205,0.0,0.0,0.0,0.0,0.0,0.0,0.0,0.0,0.0,0.0,0.0,0.0,0.0,0.0,0.0,0.0,1.3288,1.3383,1.3397,1.3403,1.3403,1.3403,1.3532,1.3614,1.3627,1.3885,1.4034,1.4048,1.4048,1.4048,1.4041,1.3777,1.3648,1.3627,1.3627,1.362,1.3614,1.3756,1.3817,1.3817,1.3831,1.4,1.4251,1.4251,1.4258,1.4278,1.4278,1.4285,1.4299,1.4299,1.4299,1.4299,1.4122,1.2869,1.1083,0.8943,0.6981,0.5378,0.3411,0.2874,0.2874,0.2874,0.2874,0.2874,0.2874,0.2874,0.2874,0.2874,0.2874,0.2874,0.2874,0.2874,0.2874,0.2874,0.2874,0.2874,0.2874,0.2874,0.2874,0.2874,0.2874,0.2874,0.2874,0.2874,0.2874,0.2874,0.2874,0.2874,0.2874,0.2874,0.2872,0.287,0.287,0.2867,0.2864,0.2837,0.281,0.2784,0.2838,0.1968,0.0358,0.0179,0.0,0.0,0.0,0.0,0.0,0.0,0.0,1.1674,1.1945,1.2086,0.0,0.0,0.0,0.0,0.0,0.0,0.0,0.0,0.0,0.0,0.0,0.0,0.0,0.0,0.0,0.0,1.3132,1.3268,1.339,1.3403,1.3403,1.3403,1.3431,1.3505,1.3627,1.3688,1.377,1.3885,1.3885,1.3885,1.3885,1.3824,1.3743,1.3627,1.3627,1.3559,1.3451,1.3607,1.3668,1.3682,1.379,1.3878,1.3933,1.3933,1.4007,1.4116,1.4116,1.4197,1.4299,1.4299,1.4299,1.4122,1.2509,1.1799,1.0728,0.7338,0.5912,0.5378,0.3411,0.2874,0.2874,0.2874,0.2874,0.2874,0.2874,0.2874,0.2874,0.2874,0.2874,0.2874,0.2874,0.2874,0.2874,0.2874,0.2874,0.2874,0.2874,0.2874,0.2874,0.2874,0.2874,0.2874,0.2874,0.2874,0.2874,0.2874,0.2874,0.2874,0.2874,0.2874,0.2863,0.2838,0.2837,0.2826,0.2801,0.2795,0.2789,0.2784,0.2795,0.2626,0.2275,0.07,0.0,0.0,0.0,0.0,1.241,0.0,0.0,0.0,1.2299,1.2374,0.0,0.0,0.0,0.0,0.0,0.0,0.0,0.0,0.0,0.0,0.0,0.0,0.0,0.0,0.0,0.0,1.2983,1.3125,1.3275,1.3356,1.3403,1.3403,1.3403,1.3437,1.3512,1.3587,1.3661,1.3736,1.3804,1.3878,1.3953,1.3878,1.3844,1.3844,1.3695,1.3587,1.3512,1.3512,1.3512,1.3519,1.3593,1.362,1.3634,1.3783,1.3885,1.3953,1.3953,1.4007,1.4068,1.4068,1.4122,1.4008,1.3123,1.2102,1.0905,0.8052,0.5733,0.4126,0.3233,0.2874,0.2874,0.2874,0.2874,0.2874,0.2874,0.2874,0.2874,0.2874,0.2874,0.2874,0.2874,0.2874,0.2874,0.2874,0.2874,0.2874,0.2874,0.2874,0.2874,0.2874,0.2874,0.2874,0.2874,0.2874,0.2874,0.2874,0.286,0.2852,0.2852,0.2837,0.2822,0.2807,0.2806,0.2792,0.2761,0.2761,0.2754,0.2737,0.2737,0.2582,0.2087,0.1739,0.0872,0.0,0.0,0.0,0.0,0.0,1.3138,0.0,0.0,0.0,0.0,0.0,0.0,0.0,0.0,0.0,0.0,0.0,0.0,0.0,0.0,0.0,0.0,0.0,0.0,0.0,1.2827,1.299,1.3159,1.3261,1.3342,1.3397,1.3403,1.3403,1.3403,1.3519,1.3587,1.3587,1.3729,1.3865,1.3987,1.3885,1.3905,1.4021,1.3777,1.3668,1.3661,1.3512,1.3444,1.3444,1.341,1.3403,1.3424,1.3661,1.3777,1.3797,1.3797,1.3817,1.3838,1.3838,1.3926,1.4027,1.4027,1.2541,1.0515,0.8562,0.5546,0.2874,0.2874,0.2874,0.2874,0.2874,0.2874,0.2874,0.2874,0.2874,0.2874,0.2874,0.2874,0.2874,0.2874,0.2874,0.2874,0.2874,0.2874,0.2874,0.2874,0.2874,0.2874,0.2874,0.2874,0.2874,0.2874,0.2868,0.2866,0.2866,0.2837,0.2819,0.2819,0.2797,0.2781,0.2774,0.2769,0.2754,0.2729,0.2729,0.2717,0.2692,0.2692,0.2208,0.1383,0.2074,0.1558,0.0,0.0,0.0,0.0,1.3617,0.0,0.0,0.0,0.0,0.0,0.0,0.0,0.0,0.0,0.0,0.0,0.0,0.0,0.0,0.0,0.0,0.0,0.0,0.0,0.0,0.0,1.2874,1.3152,1.3071,1.3125,1.339,1.3403,1.3403,1.3403,1.3417,1.3424,1.3424,1.358,1.3661,1.3682,1.379,1.3851,1.3865,1.3831,1.3817,1.381,1.3661,1.36,1.3593,1.3458,1.3403,1.3403,1.3437,1.3532,1.3654,1.3654,1.3736,1.3838,1.3838,1.3851,1.3865,1.3865,1.1524,0.8464,0.6533,0.4628,0.2874,0.2874,0.2874,0.2874,0.2874,0.2874,0.2874,0.2874,0.2874,0.2874,0.2874,0.2874,0.2874,0.2874,0.2874,0.2874,0.2874,0.2874,0.2874,0.2874,0.2874,0.2874,0.2874,0.2874,0.2874,0.2874,0.2849,0.2834,0.2834,0.2806,0.2788,0.2788,0.2785,0.2772,0.2744,0.2717,0.2701,0.2698,0.2698,0.2697,0.2692,0.2692,0.219,0.1351,0.0676,0.017,0.0,0.0,0.0,0.0,0.0,0.0,0.0,0.0,1.299,0.0,0.0,0.0,0.0,0.0,0.0,0.0,0.0,0.0,0.0,0.0,0.0,0.0,0.0,0.0,0.0,0.0,0.0,0.0,0.0,1.3173,1.339,1.3403,1.3403,1.3403,1.3403,1.3403,1.3403,1.3464,1.3539,1.3627,1.3688,1.3763,1.3838,1.3838,1.3838,1.3838,1.3777,1.3749,1.3749,1.3682,1.3607,1.3532,1.3532,1.3519,1.3498,1.3498,1.3532,1.3587,1.3587,1.3641,1.3389,1.1224,0.959,0.7926,0.4941,0.3559,0.2874,0.2874,0.2874,0.2874,0.2874,0.2874,0.2874,0.2874,0.2874,0.2874,0.2874,0.2874,0.2868,0.2851,0.2848,0.2842,0.2825,0.2851,0.2874,0.2874,0.2874,0.2868,0.2849,0.2848,0.2841,0.2823,0.281,0.2803,0.2803,0.2774,0.2757,0.2757,0.274,0.2725,0.2712,0.2699,0.2692,0.2692,0.2692,0.2692,0.2692,0.2188,0.202,0.2021,0.0674,0.0,1.427,0.0,0.0,0.0,0.0,0.0,0.0,0.0,0.0,0.0,0.0,0.0,0.0,0.0,0.0,0.0,0.0,0.0,0.0,0.0,0.0,0.0,0.0,0.0,0.0,0.0,0.0,0.0,0.0,0.0,1.3329,1.3376,1.3403,1.3403,1.3403,1.3403,1.3403,1.3403,1.3458,1.3566,1.3566,1.3641,1.3783,1.3783,1.3804,1.3838,1.3797,1.3804,1.3838,1.3797,1.3743,1.3688,1.3688,1.362,1.3512,1.3431,1.3403,1.3403,1.3403,1.3471,1.3075,0.9928,0.8646,0.7683,0.4564,0.3191,0.2863,0.2871,0.2874,0.2874,0.2874,0.2874,0.2872,0.2863,0.2861,0.2859,0.2851,0.2849,0.2842,0.2821,0.2816,0.281,0.2787,0.2819,0.2849,0.2849,0.2849,0.2841,0.2819,0.2816,0.2807,0.2785,0.2776,0.277,0.277,0.2743,0.2725,0.2725,0.2705,0.2692,0.2692,0.2692,0.2692,0.2692,0.2692,0.2692,0.2692,0.2018,0.202,0.2695,0.0842,0.0,0.0,0.0,0.0,1.3872,0.0,0.0,0.0,0.0,1.3433,0.0,0.0,0.0,0.0,0.0,1.3167,1.2888,0.0,0.0,0.0,0.0,0.0,0.0,0.0,0.0,0.0,0.0,0.0,0.0,0.0,0.0,1.3166,1.3322,1.3403,1.3403,1.3403,1.3403,1.3403,1.3403,1.3403,1.341,1.341,1.3492,1.3634,1.3634,1.3709,1.3831,1.3695,1.3715,1.3831,1.3695,1.3715,1.3831,1.3831,1.3831,1.379,1.3505,1.3403,1.3403,1.3403,1.3403,1.3072,1.1237,0.9464,0.7692,0.5879,0.4203,0.2836,0.2866,0.2874,0.2874,0.2874,0.2874,0.2867,0.2837,0.283,0.2822,0.2792,0.2787,0.2787,0.2785,0.2785,0.2784,0.2784,0.2785,0.2787,0.2787,0.2787,0.2785,0.2785,0.2785,0.2784,0.2784,0.2757,0.2739,0.2739,0.2712,0.2694,0.2694,0.2692,0.2692,0.2692,0.2692,0.2692,0.2692,0.2692,0.2692,0.2692,0.2692,0.2694,0.2695,0.0842,0.0,0.0,0.0,1.4667,1.4131,0.0,0.0,0.0,0.0,0.0,0.0,0.0,0.0,0.0,0.0,1.3451,1.3302,1.3302,1.3083,0.0,0.0,0.0,0.0,0.0,0.0,0.0,0.0,0.0,0.0,0.0,0.0,0.0,1.322,1.3295,1.3397,1.3403,1.3403,1.3403,1.3403,1.3403,1.3403,1.3403,1.3424,1.3485,1.3587,1.3654,1.3702,1.3749,1.3797,1.3838,1.379,1.3743,1.3702,1.3702,1.3641,1.3559,1.3654,1.3634,1.3539,1.3437,1.3403,1.3065,1.1225,0.9454,0.7843,0.5998,0.4156,0.28,0.2811,0.2814,0.2814,0.2814,0.2814,0.2811,0.2801,0.2799,0.2796,0.2785,0.2784,0.2777,0.2757,0.2754,0.2747,0.2727,0.2724,0.2737,0.2777,0.2784,0.2776,0.2755,0.2754,0.2746,0.2725,0.2714,0.2707,0.2707,0.2698,0.2692,0.2692,0.2692,0.2692,0.2692,0.2692,0.2692,0.2692,0.2692,0.2692,0.2692,0.2356,0.2356,0.2697,0.2022,0.1179,1.4692,1.4757,0.0,0.0,1.4229,0.0,1.3669,0.0,0.0,0.0,0.0,0.0,0.0,0.0,1.3758,1.3823,1.3782,1.3464,0.0,1.1976,0.0,0.0,0.0,0.0,0.0,0.0,0.0,0.0,0.0,0.0,0.0,0.0,1.322,1.3315,1.337,1.3403,1.3403,1.3403,1.3403,1.3403,1.3403,1.3403,1.3403,1.3505,1.3546,1.3553,1.3648,1.3715,1.3763,1.3763,1.3743,1.3702,1.3702,1.3641,1.3566,1.3654,1.3627,1.3532,1.3437,1.3403,1.3231,1.2063,1.01,0.78,0.6643,0.4634,0.2774,0.2806,0.28,0.2788,0.281,0.2799,0.2781,0.277,0.2767,0.2763,0.2754,0.2751,0.2746,0.2725,0.2721,0.2716,0.2697,0.2692,0.2706,0.2746,0.2751,0.2744,0.2724,0.2721,0.2714,0.2695,0.2692,0.2692,0.2692,0.2692,0.2692,0.2692,0.2692,0.2692,0.2692,0.2692,0.2698,0.2709,0.2529,0.2529,0.2709,0.236,0.2356,0.2695,0.2695,0.2022]}]]